[[{"header":{"parameterUnit":"m.s-1","parameterCategory":1,"la1":31.0,"la2":29.5877,"lo1":-88.7671,"lo2":-86.6584,"dy":0.0162,"dx":0.0185,"nx":115,"ny":88,"refTime":"2024-04-28T12:00:00:Z","depth":0,"parameterNumber":2,"parameterNumberName":"U-component_of_WINDS"},"data":[0.0,0.0,0.0,0.0,0.0,0.0,0.0,0.0,0.0,0.0,0.0,0.0,0.0,0.0,0.0,0.0,0.0,0.0,0.0,0.0,0.0,0.0,0.0,0.0,0.0,0.0,0.0,0.0,0.0,0.0,0.0,0.0,0.0,0.0,0.0,0.0,0.0,0.0,0.0,0.0,0.0,0.0,0.0,0.0,0.0,0.0,0.0,0.0,0.0,0.0,0.0,0.0,0.0,0.0,0.0,0.0,0.0,0.0,0.0,0.0,0.0,0.0,0.0,0.0,0.0,0.0,0.0,0.0,0.0,0.0,0.0,0.0,0.0,0.0,0.0,0.0,0.0,0.0,0.0,0.0,0.0,0.0,0.0,0.0,0.0,0.0,0.0,0.0,0.0,0.0,0.0,0.0,0.0,0.0,0.0,0.0,0.0,0.0,0.0,0.0,0.0,0.0,0.0,0.0,0.0,0.0,0.0,0.0,0.0,0.0,0.0,0.0,0.0,0.0,0.0,0.0,0.0,0.0,0.0,0.0,0.0,0.0,0.0,0.0,0.0,0.0,0.0,0.0,0.0,0.0,0.0,0.0,0.0,0.0,0.0,0.0,0.0,0.0,0.0,0.0,0.0,0.0,0.0,0.0,0.0,0.0,0.0,0.0,0.0,0.0,0.0,0.0,0.0,0.0,0.0,0.0,0.0,0.0,0.0,0.0,0.0,0.0,0.0,0.0,0.0,0.0,0.0,0.0,0.0,0.0,0.0,0.0,0.0,0.0,0.0,0.0,0.0,0.0,0.0,0.0,0.0,0.0,0.0,0.0,0.0,0.0,0.0,0.0,0.0,0.0,0.0,0.0,0.0,0.0,0.0,0.0,0.0,0.0,0.0,0.0,0.0,0.0,0.0,0.0,0.0,0.0,0.0,0.0,0.0,0.0,0.0,0.0,0.0,0.0,0.0,0.0,0.0,0.0,0.0,0.0,0.0,0.0,0.0,0.0,0.0,0.0,0.0,0.0,0.0,0.0,0.0,0.0,0.0,0.0,0.0,0.0,0.0,0.0,0.0,0.0,0.0,0.0,0.0,0.0,0.0,0.0,0.0,0.0,0.0,0.0,0.0,0.0,0.0,0.0,0.0,0.0,0.0,0.0,0.0,0.0,0.0,0.0,0.0,0.0,0.0,0.0,0.0,0.0,0.0,0.0,0.0,0.0,0.0,0.0,0.0,0.0,0.0,0.0,0.0,0.0,0.0,0.0,0.0,0.0,0.0,0.0,0.0,0.0,0.0,0.0,0.0,0.0,0.0,0.0,0.0,0.0,0.0,0.0,0.0,0.0,0.0,0.0,0.0,0.0,0.0,0.0,0.0,0.0,0.0,0.0,0.0,0.0,0.0,0.0,0.0,0.0,0.0,0.0,0.0,0.0,0.0,0.0,0.0,0.0,0.0,0.0,0.0,0.0,0.0,0.0,0.0,0.0,0.0,0.0,0.0,0.0,0.0,0.0,0.0,0.0,0.0,0.0,0.0,0.0,0.0,0.0,0.0,0.0,0.0,0.0,0.0,0.0,0.0,0.0,0.0,0.0,0.0,0.0,0.0,0.0,0.0,0.0,0.0,0.0,0.0,0.0,0.0,0.0,0.0,0.0,0.0,0.0,0.0,0.0,0.0,0.0,0.0,0.0,0.0,0.0,0.0,0.0,0.0,0.0,0.0,0.0,0.0,0.0,0.0,0.0,0.0,0.0,0.0,0.0,0.0,0.0,0.0,0.0,0.0,0.0,0.0,0.0,0.0,0.0,0.0,0.0,0.0,0.0,0.0,0.0,0.0,0.0,0.0,0.0,0.0,0.0,0.0,0.0,0.0,0.0,0.0,0.0,0.0,0.0,0.0,0.0,0.0,0.0,0.0,0.0,0.0,0.0,0.0,0.0,0.0,0.0,0.0,0.0,0.0,0.0,0.0,0.0,0.0,0.0,0.0,0.0,0.0,0.0,0.0,0.0,0.0,0.0,0.0,0.0,0.0,0.0,0.0,0.0,0.0,0.0,0.0,0.0,0.0,0.0,0.0,0.0,0.0,0.0,0.0,0.0,0.0,0.0,0.0,0.0,0.0,0.0,0.0,0.0,0.0,0.0,0.0,0.0,0.0,0.0,0.0,0.0,0.0,0.0,0.0,0.0,0.0,0.0,0.0,0.0,0.0,0.0,0.0,0.0,0.0,0.0,0.0,0.0,0.0,0.0,0.0,0.0,0.0,0.0,0.0,0.0,0.0,0.0,0.0,0.0,0.0,0.0,0.0,0.0,0.0,0.0,0.0,0.0,0.0,0.0,0.0,0.0,0.0,0.0,0.0,0.0,0.0,0.0,0.0,0.0,0.0,0.0,0.0,0.0,0.0,0.0,0.0,0.0,0.0,0.0,0.0,0.0,0.0,0.0,0.0,0.0,0.0,0.0,0.0,0.0,0.0,0.0,0.0,0.0,0.0,0.0,0.0,0.0,0.0,0.0,0.0,0.0,0.0,0.0,0.0,0.0,0.0,0.0,0.0,0.0,0.0,0.0,0.0,0.0,0.0,0.0,0.0,0.0,0.0,0.0,0.0,0.0,0.0,0.0,0.0,0.0,0.0,0.0,0.0,0.0,0.0,0.0,0.0,0.0,0.0,0.0,0.0,0.0,0.0,0.0,0.0,0.0,0.0,0.0,0.0,0.0,0.0,0.0,0.0,0.0,0.0,0.0,0.0,0.0,0.0,0.0,0.0,0.0,0.0,0.0,0.0,0.0,0.0,0.0,0.0,0.0,0.0,0.0,0.0,0.0,0.0,0.0,0.0,0.0,0.0,0.0,0.0,0.0,0.0,0.0,0.0,0.0,0.0,0.0,0.0,0.0,0.0,0.0,0.0,0.0,0.0,0.0,0.0,0.0,0.0,0.0,0.0,0.0,0.0,0.0,0.0,0.0,0.0,0.0,0.0,0.0,0.0,0.0,0.0,0.0,0.0,0.0,0.0,0.0,0.0,0.0,0.0,0.0,0.0,0.0,0.0,0.0,0.0,0.0,0.0,0.0,0.0,0.0,0.0,0.0,0.0,0.0,0.0,0.0,0.0,0.0,0.0,0.0,0.0,0.0,0.0,0.0,0.0,0.0,0.0,0.0,0.0,0.0,0.0,0.0,0.0,0.0,0.0,0.0,0.0,0.0,0.0,0.0,0.0,0.0,0.0,0.0,0.0,0.0,0.0,0.0,0.0,0.0,0.0,0.0,0.0,0.0,0.0,0.0,0.0,0.0,0.0,0.0,0.0,0.0,0.0,0.0,0.0,0.0,0.0,0.0,0.0,0.0,0.0,0.0,0.0,0.0,0.0,0.0,0.0,0.0,0.0,0.0,0.0,0.0,0.0,0.0,0.0,0.0,0.0,0.0,0.0,0.0,0.0,0.0,0.0,0.0,0.0,0.0,0.0,0.0,0.0,0.0,0.0,0.0,0.0,0.0,0.0,0.0,0.0,0.0,0.0,0.0,0.0,0.0,0.0,0.0,0.0,0.0,0.0,0.0,0.0,0.0,0.0,0.0,0.0,0.0,0.0,0.0,0.0,0.0,0.0,0.0,0.0,0.0,0.0,0.0,0.0,0.0,0.0,0.0,0.0,0.0,0.0,0.0,0.0,0.0,0.0,0.0,0.0,0.0,0.0,0.0,0.0,0.0,0.0,0.0,0.0,0.0,0.0,0.0,0.0,0.0,0.0,0.0,0.0,0.0,0.0,0.0,0.0,0.0,0.0,0.0,0.0,0.0,0.0,0.0,0.0,0.0,0.0,0.0,0.0,0.0,0.0,0.0,0.0,0.0,0.0,0.0,0.0,0.0,0.0,0.0,0.0,0.0,0.0,0.0,0.0,0.0,0.0,0.0,0.0,0.0,0.0,0.0,0.0,0.0,0.0,0.0,0.0,0.0,0.0,0.0,0.0,0.0,0.0,0.0,0.0,0.0,0.0,0.0,0.0,0.0,0.0,0.0,0.0,0.0,0.0,0.0,0.0,0.0,0.0,0.0,0.0,0.0,0.0,0.0,0.0,0.0,0.0,0.0,0.0,0.0,0.0,0.0,0.0,0.0,0.0,0.0,0.0,0.0,0.0,0.0,0.0,0.0,0.0,0.0,0.0,0.0,0.0,0.0,0.0,0.0,0.0,0.0,0.0,0.0,0.0,0.0,0.0,0.0,0.0,0.0,0.0,0.0,0.0,0.0,0.0,0.0,0.0,0.0,0.0,0.0,0.0,0.0,0.0,0.0,-4.5708,0.0,0.0,0.0,0.0,0.0,0.0,0.0,0.0,0.0,0.0,0.0,0.0,0.0,0.0,0.0,0.0,0.0,0.0,0.0,0.0,0.0,0.0,0.0,0.0,0.0,0.0,0.0,0.0,0.0,0.0,0.0,0.0,0.0,0.0,0.0,0.0,0.0,0.0,0.0,0.0,0.0,0.0,0.0,0.0,0.0,0.0,0.0,0.0,0.0,0.0,0.0,0.0,0.0,0.0,0.0,0.0,0.0,0.0,0.0,0.0,0.0,0.0,0.0,0.0,0.0,0.0,0.0,0.0,0.0,0.0,0.0,0.0,0.0,0.0,0.0,0.0,0.0,0.0,0.0,0.0,0.0,0.0,0.0,0.0,0.0,0.0,0.0,0.0,0.0,0.0,0.0,0.0,0.0,0.0,0.0,0.0,0.0,0.0,0.0,0.0,0.0,0.0,0.0,0.0,0.0,0.0,0.0,0.0,0.0,0.0,-4.5892,-4.5892,-4.5841,-4.5778,-4.5739,0.0,0.0,0.0,0.0,0.0,0.0,0.0,0.0,0.0,0.0,0.0,0.0,0.0,0.0,0.0,0.0,0.0,0.0,0.0,0.0,0.0,0.0,0.0,0.0,0.0,0.0,0.0,0.0,0.0,0.0,0.0,0.0,0.0,0.0,0.0,0.0,0.0,0.0,0.0,0.0,0.0,0.0,0.0,0.0,0.0,0.0,0.0,0.0,0.0,0.0,0.0,0.0,0.0,0.0,0.0,0.0,0.0,0.0,0.0,0.0,0.0,0.0,0.0,0.0,0.0,0.0,0.0,0.0,0.0,0.0,0.0,0.0,0.0,0.0,0.0,0.0,0.0,0.0,0.0,0.0,0.0,0.0,0.0,0.0,0.0,0.0,0.0,0.0,0.0,0.0,0.0,0.0,0.0,0.0,0.0,0.0,0.0,0.0,0.0,0.0,0.0,0.0,0.0,0.0,0.0,0.0,0.0,0.0,0.0,0.0,0.0,0.0,-4.5841,-4.5805,-4.5773,0.0,0.0,0.0,0.0,0.0,0.0,0.0,0.0,0.0,0.0,0.0,0.0,0.0,0.0,0.0,0.0,0.0,0.0,0.0,0.0,0.0,0.0,0.0,0.0,0.0,0.0,0.0,0.0,0.0,0.0,0.0,0.0,0.0,0.0,0.0,0.0,0.0,0.0,0.0,0.0,0.0,0.0,0.0,0.0,0.0,0.0,0.0,0.0,0.0,0.0,0.0,0.0,0.0,0.0,0.0,0.0,0.0,0.0,0.0,0.0,0.0,0.0,0.0,0.0,0.0,0.0,0.0,0.0,0.0,0.0,0.0,0.0,0.0,0.0,0.0,0.0,0.0,0.0,0.0,0.0,0.0,0.0,0.0,0.0,0.0,0.0,0.0,0.0,0.0,0.0,0.0,0.0,0.0,0.0,0.0,0.0,0.0,0.0,0.0,0.0,0.0,0.0,0.0,0.0,0.0,0.0,0.0,0.0,0.0,0.0,-4.5892,-4.5911,-4.5841,0.0,-4.5715,0.0,0.0,0.0,0.0,0.0,0.0,0.0,0.0,0.0,0.0,0.0,0.0,0.0,0.0,0.0,0.0,0.0,0.0,0.0,0.0,0.0,0.0,0.0,0.0,0.0,0.0,0.0,0.0,0.0,0.0,0.0,0.0,0.0,0.0,0.0,0.0,0.0,0.0,0.0,0.0,0.0,0.0,0.0,0.0,0.0,0.0,0.0,0.0,0.0,0.0,0.0,0.0,0.0,0.0,0.0,0.0,0.0,0.0,0.0,0.0,0.0,0.0,0.0,0.0,0.0,0.0,0.0,0.0,0.0,0.0,0.0,0.0,0.0,0.0,0.0,0.0,0.0,0.0,0.0,0.0,0.0,0.0,0.0,0.0,0.0,0.0,0.0,0.0,0.0,0.0,0.0,0.0,0.0,0.0,0.0,0.0,0.0,0.0,0.0,0.0,0.0,0.0,0.0,0.0,0.0,0.0,0.0,0.0,0.0,0.0,-4.5892,-4.5892,-4.5841,-4.5771,0.0,0.0,0.0,0.0,0.0,0.0,0.0,0.0,0.0,0.0,0.0,0.0,0.0,0.0,0.0,0.0,0.0,0.0,0.0,0.0,0.0,0.0,0.0,0.0,0.0,0.0,0.0,0.0,0.0,0.0,0.0,0.0,0.0,0.0,0.0,0.0,0.0,0.0,0.0,0.0,0.0,0.0,0.0,0.0,0.0,0.0,0.0,0.0,0.0,0.0,0.0,0.0,0.0,0.0,0.0,0.0,0.0,0.0,0.0,0.0,0.0,0.0,0.0,0.0,0.0,0.0,0.0,0.0,0.0,0.0,0.0,0.0,0.0,0.0,0.0,0.0,0.0,0.0,0.0,0.0,0.0,0.0,0.0,0.0,0.0,0.0,0.0,0.0,0.0,0.0,0.0,0.0,0.0,0.0,0.0,0.0,0.0,0.0,0.0,0.0,0.0,0.0,0.0,0.0,0.0,0.0,0.0,0.0,0.0,0.0,-4.5972,-4.5923,-4.5899,-4.5841,-4.5771,-4.5723,0.0,0.0,0.0,0.0,0.0,0.0,0.0,0.0,0.0,0.0,0.0,0.0,0.0,0.0,0.0,0.0,0.0,0.0,0.0,0.0,0.0,0.0,0.0,0.0,0.0,0.0,0.0,0.0,0.0,0.0,0.0,0.0,0.0,0.0,0.0,0.0,0.0,0.0,0.0,0.0,0.0,0.0,0.0,0.0,0.0,0.0,0.0,0.0,0.0,0.0,0.0,0.0,0.0,0.0,0.0,0.0,0.0,0.0,0.0,0.0,0.0,0.0,0.0,0.0,0.0,0.0,0.0,0.0,0.0,0.0,0.0,0.0,0.0,0.0,0.0,0.0,0.0,0.0,0.0,0.0,0.0,0.0,0.0,0.0,0.0,0.0,0.0,0.0,0.0,0.0,0.0,0.0,0.0,0.0,0.0,0.0,0.0,0.0,0.0,0.0,0.0,0.0,0.0,0.0,0.0,0.0,0.0,0.0,-4.6098,-4.6042,-4.5958,-4.5906,-4.5847,-4.5805,0.0,0.0,0.0,0.0,0.0,0.0,0.0,0.0,0.0,0.0,0.0,0.0,0.0,0.0,0.0,0.0,0.0,0.0,0.0,0.0,0.0,0.0,0.0,0.0,0.0,0.0,0.0,0.0,0.0,0.0,0.0,0.0,0.0,0.0,0.0,0.0,0.0,0.0,0.0,0.0,0.0,0.0,0.0,0.0,0.0,0.0,0.0,0.0,0.0,0.0,0.0,0.0,0.0,0.0,0.0,0.0,0.0,0.0,0.0,0.0,0.0,0.0,0.0,0.0,0.0,0.0,0.0,0.0,0.0,0.0,0.0,0.0,0.0,0.0,0.0,0.0,0.0,0.0,0.0,0.0,0.0,0.0,0.0,0.0,0.0,0.0,0.0,0.0,0.0,0.0,0.0,0.0,0.0,0.0,0.0,0.0,0.0,0.0,0.0,0.0,0.0,0.0,0.0,0.0,0.0,0.0,0.0,0.0,0.0,-4.6093,-4.6051,-4.596,-4.59,-4.5867,-4.5833,0.0,0.0,0.0,0.0,0.0,0.0,0.0,0.0,0.0,0.0,0.0,0.0,0.0,0.0,0.0,0.0,0.0,0.0,0.0,0.0,0.0,0.0,0.0,0.0,0.0,0.0,0.0,0.0,0.0,0.0,0.0,0.0,0.0,0.0,0.0,0.0,0.0,0.0,0.0,0.0,0.0,0.0,0.0,0.0,0.0,0.0,0.0,0.0,0.0,0.0,0.0,0.0,0.0,0.0,0.0,0.0,0.0,0.0,0.0,0.0,0.0,0.0,0.0,0.0,0.0,0.0,0.0,0.0,0.0,0.0,0.0,0.0,0.0,0.0,0.0,0.0,0.0,0.0,0.0,0.0,0.0,0.0,0.0,0.0,0.0,0.0,0.0,0.0,0.0,0.0,0.0,0.0,0.0,0.0,0.0,0.0,0.0,0.0,0.0,0.0,0.0,0.0,0.0,0.0,0.0,0.0,0.0,0.0,0.0,-4.6126,0.0,-4.5997,-4.5931,-4.5938,-4.59,0.0,0.0,0.0,0.0,0.0,0.0,0.0,0.0,0.0,0.0,0.0,0.0,0.0,0.0,0.0,0.0,0.0,0.0,0.0,0.0,0.0,0.0,0.0,0.0,0.0,0.0,0.0,0.0,0.0,0.0,0.0,0.0,0.0,0.0,0.0,0.0,0.0,0.0,0.0,0.0,0.0,0.0,0.0,0.0,0.0,0.0,0.0,0.0,0.0,0.0,0.0,0.0,0.0,0.0,0.0,0.0,0.0,0.0,0.0,0.0,0.0,0.0,0.0,0.0,0.0,0.0,0.0,0.0,0.0,0.0,0.0,0.0,0.0,0.0,0.0,0.0,0.0,0.0,0.0,0.0,0.0,0.0,0.0,0.0,0.0,0.0,0.0,0.0,0.0,0.0,0.0,0.0,0.0,0.0,0.0,0.0,0.0,0.0,0.0,0.0,0.0,0.0,0.0,0.0,0.0,0.0,0.0,0.0,-4.6245,-4.6248,-4.6221,-4.6202,-4.6041,-4.6091,-4.6026,0.0,0.0,0.0,0.0,0.0,0.0,0.0,0.0,0.0,0.0,0.0,0.0,0.0,0.0,0.0,0.0,0.0,0.0,0.0,0.0,0.0,0.0,0.0,0.0,0.0,0.0,0.0,0.0,0.0,0.0,0.0,0.0,0.0,0.0,0.0,0.0,0.0,0.0,0.0,0.0,0.0,0.0,0.0,0.0,0.0,0.0,0.0,0.0,0.0,0.0,0.0,0.0,0.0,0.0,0.0,0.0,0.0,0.0,0.0,0.0,0.0,0.0,0.0,0.0,0.0,0.0,0.0,0.0,0.0,0.0,0.0,0.0,0.0,0.0,0.0,0.0,0.0,0.0,0.0,0.0,0.0,0.0,0.0,0.0,0.0,0.0,0.0,0.0,0.0,0.0,0.0,0.0,0.0,0.0,0.0,0.0,0.0,0.0,0.0,0.0,0.0,0.0,0.0,0.0,0.0,0.0,0.0,0.0,0.0,-4.7922,-4.7892,-4.7865,-4.7801,-4.7789,-4.7503,0.0,0.0,0.0,0.0,0.0,0.0,0.0,0.0,0.0,0.0,0.0,0.0,0.0,0.0,0.0,0.0,0.0,0.0,0.0,0.0,0.0,0.0,0.0,0.0,0.0,0.0,0.0,0.0,0.0,0.0,0.0,0.0,0.0,0.0,0.0,0.0,0.0,0.0,0.0,0.0,0.0,0.0,0.0,0.0,0.0,0.0,0.0,0.0,0.0,0.0,0.0,0.0,0.0,0.0,0.0,0.0,0.0,0.0,0.0,0.0,0.0,0.0,0.0,0.0,0.0,0.0,0.0,0.0,0.0,0.0,0.0,0.0,0.0,0.0,0.0,0.0,0.0,0.0,0.0,0.0,0.0,0.0,0.0,0.0,0.0,0.0,0.0,0.0,0.0,0.0,0.0,0.0,0.0,0.0,0.0,0.0,0.0,0.0,0.0,0.0,0.0,0.0,0.0,0.0,0.0,0.0,0.0,0.0,0.0,-5.0141,-4.9551,-4.9192,-4.9123,-4.9124,-4.8545,-4.7359,0.0,0.0,0.0,0.0,0.0,0.0,0.0,0.0,0.0,0.0,0.0,0.0,0.0,0.0,0.0,0.0,0.0,0.0,0.0,0.0,0.0,0.0,0.0,0.0,0.0,0.0,0.0,0.0,0.0,0.0,0.0,0.0,0.0,0.0,0.0,0.0,0.0,0.0,0.0,0.0,0.0,0.0,0.0,0.0,0.0,0.0,0.0,0.0,0.0,0.0,0.0,0.0,0.0,0.0,0.0,0.0,0.0,0.0,0.0,0.0,0.0,0.0,0.0,0.0,0.0,0.0,0.0,0.0,0.0,0.0,0.0,0.0,0.0,0.0,0.0,0.0,0.0,0.0,0.0,0.0,0.0,0.0,0.0,0.0,0.0,0.0,0.0,0.0,0.0,0.0,0.0,0.0,0.0,0.0,0.0,0.0,0.0,0.0,0.0,0.0,0.0,0.0,0.0,0.0,0.0,0.0,0.0,0.0,-5.2765,-5.1221,-5.0355,-5.0263,-5.0178,-4.9305,0.0,0.0,0.0,0.0,0.0,0.0,0.0,0.0,0.0,0.0,0.0,0.0,0.0,0.0,0.0,0.0,0.0,0.0,0.0,0.0,0.0,0.0,0.0,0.0,0.0,0.0,0.0,0.0,0.0,0.0,0.0,0.0,0.0,0.0,0.0,0.0,0.0,0.0,0.0,0.0,0.0,0.0,0.0,0.0,0.0,0.0,0.0,0.0,0.0,0.0,0.0,0.0,0.0,0.0,0.0,0.0,0.0,0.0,0.0,0.0,0.0,0.0,0.0,0.0,0.0,0.0,0.0,0.0,0.0,0.0,0.0,0.0,0.0,0.0,0.0,0.0,0.0,0.0,0.0,0.0,0.0,0.0,0.0,0.0,0.0,0.0,0.0,0.0,0.0,0.0,0.0,0.0,0.0,0.0,0.0,0.0,0.0,0.0,0.0,0.0,0.0,0.0,0.0,0.0,0.0,0.0,0.0,0.0,0.0,-5.3602,-5.3832,-5.3604,-5.2888,-5.2259,-5.1082,0.0,0.0,0.0,0.0,0.0,0.0,0.0,0.0,0.0,0.0,0.0,0.0,0.0,0.0,0.0,0.0,0.0,0.0,0.0,0.0,0.0,0.0,0.0,0.0,0.0,0.0,0.0,0.0,0.0,0.0,0.0,0.0,0.0,0.0,0.0,0.0,0.0,0.0,0.0,0.0,0.0,0.0,0.0,0.0,0.0,0.0,0.0,0.0,0.0,0.0,0.0,0.0,0.0,0.0,0.0,0.0,0.0,0.0,0.0,0.0,0.0,0.0,0.0,0.0,0.0,0.0,0.0,0.0,0.0,0.0,0.0,0.0,0.0,0.0,0.0,0.0,0.0,0.0,0.0,0.0,0.0,0.0,0.0,0.0,0.0,0.0,0.0,0.0,0.0,0.0,0.0,0.0,0.0,0.0,0.0,0.0,0.0,0.0,0.0,0.0,0.0,0.0,0.0,0.0,0.0,0.0,0.0,0.0,-5.3161,-5.4528,-5.5388,-5.5423,-5.4511,-5.3628,-5.2347,0.0,0.0,0.0,0.0,0.0,0.0,0.0,0.0,0.0,0.0,0.0,0.0,0.0,0.0,0.0,0.0,0.0,0.0,0.0,0.0,0.0,0.0,0.0,0.0,0.0,0.0,0.0,0.0,0.0,0.0,0.0,0.0,0.0,0.0,0.0,0.0,0.0,0.0,0.0,0.0,0.0,0.0,0.0,0.0,0.0,0.0,0.0,0.0,0.0,0.0,0.0,0.0,0.0,0.0,0.0,0.0,0.0,0.0,0.0,0.0,0.0,0.0,0.0,0.0,0.0,0.0,0.0,0.0,0.0,0.0,0.0,0.0,0.0,0.0,0.0,0.0,0.0,0.0,0.0,0.0,0.0,0.0,0.0,0.0,0.0,0.0,0.0,0.0,0.0,0.0,0.0,0.0,0.0,0.0,0.0,0.0,0.0,0.0,0.0,0.0,0.0,0.0,0.0,0.0,0.0,0.0,0.0,0.0,-5.4375,-5.5137,-5.6113,-5.6172,-5.5311,-5.4458,-5.3103,0.0,0.0,0.0,0.0,0.0,0.0,0.0,0.0,0.0,0.0,0.0,0.0,0.0,0.0,0.0,0.0,0.0,0.0,0.0,0.0,0.0,0.0,0.0,0.0,0.0,0.0,0.0,0.0,0.0,0.0,0.0,0.0,0.0,0.0,0.0,0.0,0.0,0.0,0.0,0.0,0.0,0.0,0.0,0.0,0.0,0.0,0.0,0.0,0.0,0.0,0.0,0.0,0.0,0.0,0.0,0.0,0.0,0.0,0.0,0.0,0.0,0.0,0.0,0.0,0.0,0.0,0.0,0.0,0.0,0.0,0.0,0.0,0.0,0.0,0.0,0.0,0.0,0.0,0.0,0.0,0.0,0.0,0.0,0.0,0.0,0.0,0.0,0.0,0.0,0.0,0.0,0.0,0.0,0.0,0.0,0.0,0.0,0.0,0.0,0.0,0.0,0.0,0.0,0.0,0.0,0.0,0.0,0.0,-5.4082,-5.4277,-5.5801,-5.6172,-5.5312,-5.4448,-5.2853,0.0,0.0,0.0,0.0,0.0,0.0,0.0,0.0,0.0,0.0,0.0,0.0,0.0,0.0,0.0,0.0,0.0,0.0,0.0,0.0,0.0,0.0,0.0,0.0,0.0,0.0,0.0,0.0,0.0,0.0,0.0,0.0,0.0,0.0,0.0,0.0,0.0,0.0,0.0,0.0,0.0,0.0,0.0,0.0,0.0,0.0,0.0,0.0,-4.9218,0.0,0.0,0.0,0.0,0.0,0.0,0.0,0.0,0.0,0.0,0.0,0.0,0.0,0.0,0.0,0.0,0.0,0.0,0.0,0.0,0.0,0.0,0.0,0.0,0.0,0.0,0.0,0.0,0.0,0.0,0.0,0.0,0.0,0.0,0.0,0.0,0.0,0.0,0.0,0.0,0.0,0.0,0.0,0.0,0.0,0.0,0.0,0.0,0.0,0.0,0.0,0.0,0.0,0.0,0.0,0.0,0.0,0.0,0.0,-5.3769,-5.459,-5.5508,-5.5566,-5.4726,-5.4257,-5.2963,0.0,0.0,0.0,0.0,0.0,0.0,0.0,0.0,0.0,0.0,0.0,0.0,0.0,0.0,0.0,0.0,0.0,0.0,0.0,0.0,0.0,0.0,0.0,0.0,0.0,0.0,0.0,0.0,0.0,0.0,0.0,0.0,0.0,0.0,0.0,0.0,0.0,0.0,0.0,0.0,0.0,0.0,0.0,0.0,0.0,0.0,0.0,0.0,0.0,0.0,0.0,0.0,0.0,0.0,0.0,0.0,0.0,0.0,0.0,0.0,0.0,0.0,0.0,0.0,0.0,0.0,0.0,0.0,0.0,0.0,0.0,0.0,0.0,0.0,0.0,0.0,0.0,0.0,0.0,0.0,0.0,0.0,0.0,0.0,0.0,0.0,0.0,0.0,0.0,0.0,0.0,0.0,0.0,0.0,0.0,0.0,0.0,0.0,0.0,0.0,0.0,0.0,0.0,0.0,0.0,0.0,0.0,-5.2187,-5.3476,-5.5019,-5.5098,-5.4746,-5.4023,-5.3867,-5.2929,-5.1069,0.0,0.0,0.0,0.0,0.0,0.0,0.0,0.0,0.0,0.0,0.0,0.0,0.0,0.0,0.0,0.0,0.0,0.0,0.0,0.0,0.0,0.0,0.0,0.0,0.0,0.0,0.0,0.0,0.0,0.0,0.0,0.0,0.0,0.0,0.0,0.0,0.0,0.0,-4.7988,-4.916,0.0,0.0,0.0,0.0,0.0,0.0,0.0,0.0,-4.9881,0.0,0.0,0.0,0.0,0.0,0.0,0.0,0.0,0.0,0.0,0.0,0.0,0.0,0.0,0.0,0.0,0.0,0.0,0.0,0.0,0.0,0.0,0.0,0.0,0.0,0.0,0.0,0.0,0.0,0.0,0.0,0.0,0.0,0.0,0.0,0.0,0.0,0.0,0.0,0.0,0.0,0.0,0.0,0.0,0.0,0.0,0.0,0.0,0.0,0.0,0.0,0.0,0.0,0.0,0.0,0.0,-5.0307,-5.1873,-5.3182,-5.4198,-5.4218,-5.416,-5.4004,-5.3281,-5.1777,-4.9472,0.0,0.0,0.0,0.0,0.0,0.0,0.0,0.0,0.0,0.0,0.0,0.0,0.0,0.0,0.0,0.0,0.0,0.0,0.0,0.0,0.0,0.0,0.0,0.0,0.0,0.0,0.0,0.0,0.0,0.0,0.0,0.0,0.0,0.0,0.0,0.0,0.0,0.0,0.0,-4.9394,-4.9101,0.0,0.0,0.0,0.0,0.0,0.0,0.0,0.0,-5.1772,0.0,0.0,0.0,0.0,0.0,0.0,0.0,0.0,0.0,0.0,0.0,0.0,0.0,0.0,0.0,0.0,0.0,0.0,0.0,0.0,0.0,0.0,0.0,0.0,0.0,0.0,0.0,0.0,0.0,0.0,0.0,0.0,0.0,0.0,0.0,0.0,0.0,0.0,0.0,0.0,0.0,0.0,0.0,0.0,0.0,0.0,0.0,0.0,0.0,0.0,0.0,0.0,0.0,0.0,0.0,-4.9543,-5.1147,-5.2456,-5.3297,-5.3319,-5.332,-5.332,-5.293,-5.1504,0.0,0.0,0.0,0.0,0.0,0.0,0.0,0.0,0.0,0.0,0.0,0.0,0.0,0.0,0.0,0.0,0.0,0.0,0.0,0.0,0.0,0.0,0.0,0.0,0.0,0.0,0.0,0.0,0.0,0.0,0.0,0.0,0.0,0.0,0.0,0.0,0.0,0.0,0.0,0.0,-5.0449,-5.0351,-5.082,0.0,0.0,0.0,0.0,0.0,0.0,-5.2705,-5.2401,0.0,0.0,0.0,0.0,0.0,0.0,0.0,0.0,0.0,0.0,0.0,0.0,0.0,0.0,0.0,0.0,0.0,0.0,0.0,0.0,0.0,0.0,0.0,0.0,0.0,0.0,0.0,0.0,0.0,0.0,0.0,0.0,0.0,0.0,0.0,0.0,0.0,0.0,0.0,0.0,0.0,0.0,0.0,0.0,0.0,0.0,0.0,0.0,0.0,0.0,0.0,0.0,0.0,0.0,0.0,-4.8953,-5.0537,-5.1827,-5.2647,-5.2515,-5.2536,-5.2693,-5.2362,-5.1132,0.0,0.0,0.0,0.0,0.0,0.0,0.0,0.0,0.0,0.0,0.0,0.0,0.0,0.0,0.0,0.0,0.0,0.0,0.0,0.0,0.0,0.0,0.0,0.0,0.0,0.0,0.0,0.0,0.0,0.0,0.0,0.0,0.0,0.0,0.0,0.0,0.0,0.0,0.0,0.0,0.0,-5.1914,-5.2598,-5.2851,0.0,0.0,0.0,0.0,-5.2968,-5.2965,0.0,0.0,0.0,0.0,0.0,0.0,0.0,0.0,0.0,0.0,0.0,0.0,0.0,0.0,0.0,0.0,0.0,0.0,0.0,0.0,0.0,0.0,0.0,0.0,0.0,0.0,0.0,0.0,0.0,0.0,0.0,0.0,0.0,0.0,0.0,0.0,0.0,0.0,0.0,0.0,0.0,0.0,0.0,0.0,0.0,0.0,0.0,0.0,0.0,0.0,0.0,0.0,0.0,0.0,0.0,0.0,-4.886,-5.0528,-5.1801,-5.2621,-5.1944,-5.1927,-5.2649,-5.1204,-4.9935,0.0,0.0,0.0,0.0,0.0,0.0,0.0,0.0,0.0,0.0,0.0,0.0,0.0,0.0,0.0,0.0,0.0,0.0,0.0,0.0,0.0,0.0,0.0,0.0,0.0,0.0,0.0,0.0,0.0,0.0,0.0,0.0,0.0,0.0,0.0,0.0,0.0,0.0,0.0,0.0,0.0,-5.2578,-5.2676,-5.3359,-5.3574,0.0,0.0,-5.3828,-5.3847,-5.3847,0.0,0.0,0.0,0.0,0.0,0.0,0.0,0.0,0.0,0.0,0.0,0.0,0.0,0.0,0.0,0.0,0.0,0.0,0.0,0.0,0.0,0.0,0.0,0.0,0.0,0.0,0.0,0.0,0.0,0.0,0.0,0.0,0.0,0.0,0.0,0.0,0.0,0.0,0.0,0.0,0.0,0.0,0.0,0.0,0.0,0.0,0.0,0.0,0.0,0.0,0.0,0.0,0.0,0.0,0.0,-4.8799,-4.8868,-5.0514,-5.159,-5.1941,-5.1546,-5.1527,-5.1898,-5.1182,-5.0168,0.0,0.0,0.0,0.0,0.0,0.0,0.0,0.0,0.0,0.0,0.0,0.0,0.0,0.0,0.0,0.0,0.0,0.0,0.0,0.0,0.0,0.0,0.0,0.0,0.0,0.0,0.0,0.0,0.0,0.0,0.0,0.0,0.0,0.0,0.0,0.0,0.0,0.0,0.0,0.0,0.0,0.0,-5.2713,-5.3007,0.0,0.0,0.0,-5.3262,-5.3262,0.0,0.0,0.0,0.0,0.0,0.0,0.0,0.0,0.0,0.0,0.0,0.0,0.0,0.0,0.0,0.0,0.0,0.0,0.0,0.0,0.0,0.0,0.0,0.0,0.0,0.0,0.0,0.0,0.0,0.0,0.0,0.0,0.0,0.0,0.0,0.0,0.0,0.0,0.0,0.0,0.0,0.0,0.0,0.0,0.0,0.0,0.0,0.0,0.0,0.0,0.0,0.0,0.0,0.0,0.0,0.0,0.0,-4.8806,-5.0486,-5.1364,-5.1361,-5.133,-5.1301,-5.1258,-5.1076,0.0,0.0,0.0,0.0,0.0,0.0,0.0,0.0,0.0,0.0,0.0,0.0,0.0,0.0,0.0,0.0,0.0,0.0,0.0,0.0,0.0,0.0,0.0,0.0,0.0,0.0,0.0,-4.4101,0.0,0.0,0.0,0.0,0.0,0.0,0.0,0.0,0.0,0.0,0.0,0.0,0.0,0.0,-5.2711,-5.2708,-5.271,-5.2712,0.0,0.0,-5.2695,-5.2695,-5.2714,-5.2714,0.0,0.0,0.0,0.0,0.0,0.0,0.0,0.0,0.0,0.0,0.0,0.0,0.0,0.0,0.0,0.0,0.0,0.0,0.0,0.0,0.0,0.0,0.0,0.0,0.0,0.0,0.0,0.0,0.0,0.0,0.0,0.0,0.0,0.0,0.0,0.0,0.0,0.0,0.0,0.0,0.0,0.0,0.0,0.0,0.0,0.0,0.0,0.0,0.0,0.0,0.0,0.0,0.0,0.0,0.0,-4.8775,-5.0431,-5.1308,-5.1308,-5.1304,-5.1277,-5.1198,-5.0419,-4.9597,0.0,0.0,0.0,0.0,0.0,0.0,0.0,0.0,0.0,0.0,0.0,0.0,0.0,0.0,0.0,0.0,0.0,0.0,0.0,0.0,0.0,0.0,0.0,0.0,0.0,0.0,0.0,0.0,0.0,0.0,0.0,0.0,0.0,0.0,0.0,0.0,0.0,0.0,0.0,0.0,0.0,-5.2708,-5.2708,-5.2708,-5.2709,0.0,0.0,-5.2714,-5.2695,-5.2695,-5.2715,-5.2694,0.0,0.0,0.0,0.0,0.0,0.0,0.0,0.0,0.0,0.0,0.0,0.0,0.0,0.0,0.0,0.0,0.0,0.0,0.0,0.0,0.0,0.0,0.0,0.0,0.0,0.0,0.0,0.0,0.0,0.0,0.0,0.0,0.0,0.0,0.0,0.0,0.0,0.0,0.0,0.0,0.0,0.0,0.0,0.0,0.0,0.0,0.0,0.0,0.0,0.0,0.0,0.0,0.0,-4.8656,-4.8729,-5.0371,-5.1239,-5.1234,-5.1155,-5.1111,-5.106,-5.0732,-5.0182,0.0,0.0,0.0,0.0,0.0,0.0,0.0,0.0,0.0,0.0,0.0,0.0,0.0,0.0,0.0,0.0,0.0,0.0,0.0,0.0,0.0,0.0,0.0,0.0,0.0,0.0,0.0,0.0,-4.7672,-4.8255,-4.739,0.0,0.0,0.0,0.0,0.0,0.0,0.0,0.0,0.0,0.0,-5.2096,-5.2617,-5.2698,0.0,0.0,-5.304,-5.2711,-5.2714,-5.2245,-5.1894,-5.1894,-5.0898,0.0,0.0,0.0,0.0,0.0,0.0,0.0,0.0,0.0,0.0,0.0,0.0,0.0,0.0,0.0,0.0,0.0,0.0,0.0,0.0,0.0,0.0,0.0,0.0,0.0,0.0,0.0,0.0,0.0,0.0,0.0,0.0,0.0,0.0,0.0,0.0,0.0,0.0,0.0,0.0,0.0,0.0,0.0,0.0,0.0,0.0,0.0,0.0,0.0,0.0,0.0,0.0,-4.8552,-4.8623,-5.0267,-5.1092,-5.113,-5.1017,-5.0961,-5.0966,-5.0963,-5.0569,0.0,0.0,0.0,0.0,0.0,0.0,0.0,0.0,0.0,0.0,0.0,0.0,0.0,0.0,0.0,0.0,0.0,0.0,0.0,0.0,0.0,0.0,0.0,0.0,0.0,0.0,0.0,0.0,-4.6822,-4.7033,-4.6688,0.0,0.0,0.0,0.0,0.0,0.0,0.0,0.0,0.0,0.0,-5.1716,-5.2567,-5.271,-5.2986,-5.3868,-5.3482,-5.2999,-5.2749,-5.2184,-5.1794,-5.1794,0.0,0.0,0.0,0.0,0.0,0.0,0.0,0.0,0.0,0.0,0.0,0.0,0.0,0.0,0.0,0.0,0.0,0.0,0.0,0.0,0.0,0.0,0.0,0.0,0.0,0.0,0.0,-4.7552,0.0,0.0,-4.7733,0.0,0.0,0.0,0.0,0.0,0.0,0.0,0.0,0.0,0.0,0.0,0.0,0.0,0.0,0.0,0.0,0.0,0.0,0.0,0.0,0.0,0.0,-4.8416,-4.8445,-5.0082,-5.0914,-5.0914,-5.0906,-5.0901,-5.0908,-5.0899,-5.0494,-4.9636,0.0,0.0,0.0,0.0,0.0,0.0,0.0,0.0,0.0,0.0,0.0,0.0,0.0,0.0,0.0,0.0,0.0,0.0,0.0,0.0,0.0,0.0,0.0,0.0,0.0,0.0,-4.6239,-4.6234,-4.6579,0.0,0.0,0.0,0.0,0.0,0.0,0.0,0.0,0.0,0.0,-5.0848,-5.1726,-5.2607,-5.2724,-5.3059,-5.3925,-5.4005,-5.3695,-5.2881,-5.2707,-5.2687,0.0,0.0,0.0,0.0,0.0,0.0,0.0,0.0,0.0,0.0,0.0,0.0,0.0,0.0,0.0,0.0,0.0,0.0,0.0,0.0,0.0,0.0,0.0,0.0,0.0,0.0,0.0,-4.7537,-4.7999,0.0,0.0,0.0,0.0,0.0,0.0,0.0,0.0,0.0,0.0,0.0,-4.8171,-4.8143,0.0,0.0,0.0,0.0,0.0,0.0,0.0,0.0,0.0,0.0,0.0,0.0,-4.8551,-4.915,-5.0273,-5.0852,-5.0897,-5.0799,-5.0764,-5.0785,-5.0777,-5.0373,-4.9571,0.0,0.0,0.0,0.0,0.0,0.0,0.0,0.0,0.0,0.0,0.0,0.0,0.0,0.0,0.0,0.0,0.0,0.0,0.0,0.0,0.0,0.0,0.0,0.0,0.0,-4.6999,0.0,0.0,0.0,0.0,0.0,0.0,0.0,0.0,0.0,0.0,0.0,-4.913,-4.9987,-5.0848,-5.1921,-5.3366,-5.3561,-5.409,0.0,0.0,0.0,0.0,0.0,0.0,0.0,0.0,0.0,0.0,0.0,0.0,0.0,0.0,-4.7925,-4.7923,-4.7932,-4.7945,-4.7921,0.0,0.0,0.0,0.0,0.0,0.0,0.0,0.0,0.0,0.0,0.0,0.0,0.0,0.0,-4.873,0.0,-4.8514,0.0,0.0,0.0,0.0,0.0,0.0,0.0,0.0,-4.8605,-4.8741,-4.8813,-4.8811,-4.8639,0.0,-4.835,-4.7661,0.0,0.0,0.0,0.0,0.0,0.0,0.0,0.0,-4.8852,-4.9419,-5.0249,-5.0711,-5.0758,-5.0673,-5.0615,-5.0635,-5.0644,-5.0433,-4.9922,-4.9642,-4.8975,0.0,0.0,0.0,0.0,0.0,0.0,0.0,0.0,0.0,0.0,0.0,0.0,0.0,0.0,0.0,0.0,0.0,0.0,0.0,0.0,0.0,0.0,0.0,-4.7481,0.0,0.0,0.0,0.0,0.0,0.0,0.0,0.0,0.0,-4.7911,-4.8703,-4.9567,-5.0445,-5.105,-5.2006,-5.3743,0.0,0.0,0.0,0.0,0.0,0.0,0.0,-5.447,-5.4449,-5.4195,-5.398,-5.398,-5.3068,-5.2136,-5.1575,0.0,0.0,-4.904,-4.88,-4.8798,-4.8798,-4.8792,-4.8804,-4.8792,-4.8767,-4.8734,0.0,0.0,0.0,0.0,0.0,0.0,0.0,0.0,-5.1213,-5.0784,0.0,-5.0213,0.0,0.0,0.0,0.0,0.0,-4.8485,0.0,0.0,-4.9701,-5.0133,-5.0156,-5.0076,-4.9713,-4.9068,-4.9029,-4.864,-4.7914,-4.8003,0.0,0.0,0.0,0.0,0.0,0.0,-4.9276,-4.9273,-5.0078,-5.05,-5.0511,-5.0511,-5.05,-5.0511,-5.0572,-5.0623,-5.0664,-4.9875,-4.9471,-4.9459,-4.789,0.0,0.0,0.0,0.0,0.0,0.0,0.0,0.0,0.0,0.0,0.0,0.0,0.0,0.0,0.0,0.0,0.0,0.0,0.0,0.0,-4.7353,0.0,0.0,0.0,0.0,0.0,0.0,0.0,0.0,0.0,0.0,-4.8782,-4.9577,-5.0438,-5.1313,0.0,0.0,0.0,0.0,-5.4554,-5.6248,-5.6494,-5.6213,-5.5374,-5.5289,-5.5337,-5.5337,0.0,0.0,-5.4108,-5.4068,-5.3994,-5.4023,-5.3868,-5.2936,-4.9647,-4.9179,-4.914,-4.9101,-4.9199,-4.9022,-4.8998,-4.9257,-4.9135,-5.1943,0.0,0.0,0.0,0.0,-5.1139,-5.1527,-5.1933,-5.0749,-5.0454,-5.0787,-4.9711,0.0,0.0,0.0,0.0,0.0,0.0,-4.9525,-4.957,-4.9838,-4.9978,-4.9986,-5.0018,-4.9949,-4.9796,-4.9851,-4.9766,-4.9595,-4.9629,-4.904,-4.7884,0.0,0.0,0.0,0.0,-4.9431,-5.0033,-5.0301,-5.0457,-5.05,-5.05,-5.05,-5.05,-5.0521,-5.0532,-5.0553,-5.0353,-4.996,-4.9325,-4.8856,0.0,0.0,0.0,0.0,0.0,0.0,0.0,0.0,0.0,0.0,0.0,0.0,0.0,0.0,0.0,0.0,0.0,0.0,0.0,-4.8856,-4.8987,-4.8871,0.0,0.0,0.0,0.0,0.0,0.0,0.0,0.0,0.0,-5.031,-5.0185,-5.0594,0.0,0.0,-5.2855,-5.4512,-5.4746,-5.5155,-5.627,-5.6461,0.0,-5.6179,-5.6137,-5.6152,-5.616,-5.5975,-5.5864,-5.5864,-5.5337,-5.4929,-5.4914,-5.4424,-5.3645,-5.2812,-5.2529,-5.2475,-5.2514,-5.2517,-5.2499,-5.248,-5.2028,-5.1567,-5.1958,-5.0979,-5.1684,-5.1612,-5.1058,-5.1373,-5.1574,-5.1646,-5.0631,-5.0318,-5.0448,-4.9547,-4.8993,-4.875,-4.8943,0.0,0.0,0.0,-4.9461,-4.9476,-4.9488,-4.9533,-4.9625,-4.9679,-4.9797,-4.992,-5.0018,-5.0063,-5.0126,-5.0182,-4.9668,-4.8715,0.0,0.0,-4.9549,-4.9572,-4.9824,-5.0329,-5.0348,-5.0371,-5.0424,-5.0393,-5.0393,-5.0404,-5.0359,-5.0359,-5.0435,-5.0427,-5.0197,-4.9677,-4.9346,-4.8541,0.0,0.0,0.0,0.0,0.0,0.0,0.0,0.0,0.0,0.0,0.0,-4.3113,-4.4592,0.0,0.0,0.0,-4.8021,-4.9169,-5.0,-4.9827,0.0,0.0,0.0,0.0,0.0,0.0,0.0,-4.8851,-4.9401,-5.0183,-5.134,-5.1145,-5.1408,-5.2855,-5.3035,-5.3541,-5.4864,0.0,-5.5375,-5.6247,-5.6402,-5.644,-5.6468,-5.6449,-5.6468,-5.6485,-5.6525,-5.6558,-5.6558,-5.6133,-5.5825,-5.5767,-5.5376,-5.5025,-5.5044,-5.5035,-5.4768,-5.4143,-5.3991,-5.3994,-5.3997,-5.33,-5.2714,-5.135,-5.0803,-5.2403,-5.2228,-5.0996,-5.1679,-5.1546,-5.0802,-5.0729,-5.0288,-4.961,-4.9616,-4.9194,-4.8513,-4.8697,0.0,-4.8957,-4.8926,-4.8925,-4.8974,-4.8925,-4.9012,-4.9179,-4.926,-4.9434,-4.9692,-4.9764,-4.9835,-4.9893,-4.9965,-4.9986,-4.9986,-5.0163,-5.0278,-5.029,-5.0259,-5.029,-5.029,-5.029,-5.0298,-5.0278,-5.02,-5.02,-5.0267,-5.0139,-5.0145,-5.0267,-5.0212,-5.02,-5.0217,-4.9491,-4.8671,-4.7754,0.0,0.0,0.0,0.0,0.0,0.0,0.0,0.0,0.0,0.0,0.0,0.0,0.0,0.0,0.0,-4.9136,0.0,-5.0707,-5.0124,0.0,0.0,0.0,-4.8504,-4.8485,-4.8485,-4.8794,-4.9595,0.0,0.0,-5.1965,-5.2235,-5.264,-5.3637,-5.3754,-5.4097,-5.4971,-5.5107,-5.5372,-5.6181,-5.6275,-5.6303,-5.6344,-5.6378,-5.6409,-5.6469,-5.6482,-5.6503,-5.6506,-5.6536,-5.6563,-5.6545,-5.6604,-5.6565,-5.6584,-5.6469,-5.6098,-5.4556,-5.4264,-5.4248,-5.4296,-5.3563,-5.2904,-5.1431,-5.1356,-5.1282,-5.1073,-5.0841,-5.1026,-5.0987,-5.0747,-5.0141,-4.9776,-4.9555,-4.8913,-4.8584,-4.8513,-4.855,-4.8606,-4.8695,-4.8786,-4.884,-4.8857,-4.8891,-4.8942,-4.9044,-4.9179,-4.9337,-4.9548,-4.9673,-4.9774,-4.9898,-4.9925,-4.9925,-4.9925,-4.9959,-5.0057,-5.0145,-5.0145,-5.0145,-5.0126,-5.0145,-5.0133,-5.0063,-5.0018,-4.9992,-5.0005,-4.9978,-4.9965,-4.9986,-5.0044,-4.9999,-4.9925,-4.9719,-4.8908,-4.7345,-4.6967,0.0,0.0,0.0,0.0,0.0,0.0,0.0,0.0,0.0,-4.485,-4.6786,0.0,-4.821,0.0,-4.9913,-5.051,-5.0683,-5.0547,0.0,0.0,-4.9365,-4.9228,-4.9255,-4.9247,-4.9564,-5.0422,-5.0518,-5.0906,-5.1932,-5.2578,-5.3272,-5.4101,-5.4362,-5.4773,-5.5606,-5.578,-5.5827,-5.6017,-5.6109,-5.6141,-5.6181,-5.6269,-5.6339,-5.6402,-5.6461,-5.6491,-5.6488,-5.6523,-5.6536,-5.6604,-5.6604,-5.6604,-5.6604,-5.6604,-5.6489,-5.6079,-5.6001,-5.5981,-5.5966,-5.4763,-5.3676,-5.1009,-5.0463,-5.0112,-4.9852,-4.9678,-5.0085,-5.0031,-4.9664,-4.9205,-4.9022,-4.8985,-4.8508,-4.8343,-4.8419,-4.8401,-4.8438,-4.8476,-4.855,-4.8569,-4.8569,-4.8624,-4.8678,-4.8767,-4.8873,-4.9027,-4.919,-4.9289,-4.9384,-4.9457,-4.9488,-4.9551,-4.9615,-4.9607,-4.9665,-4.9797,-4.9952,-5.0018,-4.9999,-5.0018,-4.9992,-4.9965,-4.9857,-4.9802,-4.9802,-4.9673,-4.9596,-4.9644,-4.9577,-4.9533,-4.9503,-4.9152,-4.8328,-4.7003,-4.6676,-4.5628,0.0,0.0,0.0,0.0,0.0,0.0,0.0,0.0,0.0,0.0,0.0,-4.8558,-4.9768,-5.0325,-5.0623,-5.0613,-5.0605,-5.0442,-5.0,-4.9942,-4.9942,-4.9942,-4.9942,-5.0135,-5.0606,-5.0664,-5.0981,-5.1798,-5.2624,-5.3411,-5.4254,-5.4753,-5.5249,-5.5741,-5.5856,-5.5885,-5.5894,-5.594,-5.6001,-5.6032,-5.6134,-5.6245,-5.635,-5.6378,-5.6425,-5.6434,-5.6494,-5.6514,-5.6553,-5.6558,-5.656,-5.6584,-5.6604,-5.6604,-5.6567,-5.6274,-5.6059,-5.6001,-5.497,-5.3941,-5.0389,-4.9349,-4.931,-4.8976,-4.8513,-4.9237,-4.9076,-4.8324,-4.8324,-4.8324,-4.8324,-4.8324,-4.8324,-4.8324,-4.8324,-4.8324,-4.8324,-4.8324,-4.8324,-4.8324,-4.8324,-4.8363,-4.8494,-4.855,-4.8678,-4.8804,-4.8856,-4.8891,-4.889,-4.8959,-4.9044,-4.9181,-4.9228,-4.9292,-4.9352,-4.964,-4.9797,-4.983,-4.983,-4.9797,-4.9783,-4.9659,-4.9604,-4.957,-4.9308,-4.9123,-4.911,-4.8926,-4.882,-4.8719,-4.8082,-4.7319,-4.652,-4.5884,-4.4903,0.0,-4.3369,0.0,0.0,0.0,0.0,0.0,0.0,0.0,0.0,-4.7586,-4.8794,-5.0366,-5.05,-5.05,-5.05,-5.05,-5.05,-5.05,-5.05,-5.05,-5.05,-5.05,-5.05,-5.05,-5.05,-5.0807,-5.1497,-5.2329,-5.3154,-5.394,-5.4706,-5.5309,-5.5618,-5.5662,-5.5703,-5.5756,-5.5785,-5.5817,-5.5949,-5.6024,-5.6102,-5.6239,-5.6284,-5.6308,-5.6363,-5.6429,-5.6476,-5.6491,-5.6503,-5.6528,-5.6563,-5.6506,-5.643,-5.6352,-5.5689,-5.5201,-5.524,-5.4478,-5.362,-5.0599,-5.051,-5.01,-4.9865,-4.9706,-4.9412,-4.8919,-4.8324,-4.8324,-4.8324,-4.8324,-4.8324,-4.8324,-4.8324,-4.8324,-4.8324,-4.8324,-4.8324,-4.8324,-4.8324,-4.8324,-4.8363,-4.8494,-4.8531,-4.8624,-4.8787,-4.8786,-4.8857,-4.889,-4.8926,-4.8925,-4.896,-4.8959,-4.8995,-4.8993,0.0,0.0,0.0,-4.9371,-4.9292,-4.9174,-4.9075,-4.9062,-4.9044,-4.8995,0.0,-4.8044,-4.7973,-4.7588,-4.6869,-4.6684,0.0,0.0,0.0,0.0,0.0,0.0,0.0,0.0,0.0,0.0,0.0,-4.441,-4.5333,-4.6537,-4.8045,-4.9398,-5.0385,-5.05,-5.05,-5.05,-5.05,-5.05,-5.05,-5.05,-5.05,-5.05,-5.05,-5.05,-5.05,-5.05,-5.0536,-5.0703,-5.1411,-5.2231,-5.3018,-5.3816,-5.4631,-5.5345,-5.548,-5.5539,-5.5562,-5.5596,-5.5675,-5.5798,-5.5836,-5.5938,-5.6086,-5.6148,-5.6187,-5.6294,-5.6333,-5.6378,-5.6453,-5.6498,-5.6472,-5.6489,-5.6014,-5.5552,-5.5552,-5.4849,-5.4459,-5.5105,-5.4031,-5.2899,-5.0992,-5.0785,-5.0577,-5.0295,0.0,-4.9677,-4.9156,-4.8539,-4.8334,-4.8267,-4.8324,-4.8324,-4.8324,-4.8324,-4.8324,-4.8324,-4.8324,-4.8324,-4.8324,-4.8324,-4.8324,-4.8343,-4.8401,-4.8401,-4.8476,-4.8532,-4.855,-4.8569,-4.8605,-4.8605,-4.8642,-4.8715,-4.8697,-4.8697,-4.8697,-4.8624,-4.8749,-4.9094,-4.9079,-4.9029,-4.8942,-4.8891,-4.8857,-4.8857,-4.8769,0.0,0.0,0.0,0.0,0.0,0.0,0.0,0.0,-4.4548,0.0,-4.3963,-4.3649,-4.3554,-4.3774,-4.3806,-4.3874,-4.4038,-4.4537,-4.5511,-4.7024,-4.7966,-4.9013,-5.0278,-5.0412,-5.0393,-5.0412,-5.0393,-5.0393,-5.0393,-5.0393,-5.0412,-5.0393,-5.0393,-5.0393,-5.0393,-5.0393,-5.0382,-5.0367,-5.1113,-5.1751,-5.2186,-5.2938,-5.3779,-5.4619,-5.5167,-5.5465,-5.5446,-5.5476,-5.5531,-5.5624,-5.5696,-5.5768,-5.5902,-5.5965,-5.602,-5.6186,-5.624,-5.6288,-5.6349,-5.6121,-5.586,-5.5789,-5.5201,-5.4648,-5.4596,-5.3971,-5.3502,-5.3934,-5.3309,-5.2567,-5.1415,-5.08,-5.0964,-5.0688,-5.0171,-5.0068,-4.9595,-4.892,0.0,0.0,0.0,-4.8248,-4.8267,-4.8267,-4.8248,-4.8248,-4.8267,-4.8287,-4.8287,-4.8324,-4.8324,-4.8324,-4.8324,-4.8324,-4.8287,-4.8267,-4.8267,-4.8267,-4.8248,-4.8248,-4.8305,-4.8382,-4.8437,-4.84,-4.84,-4.8305,-4.842,-4.8732,-4.8786,-4.8785,-4.8786,-4.8732,-4.8715,-4.8715,-4.8421,-4.7868,-4.7077,-4.6801,-4.6287,-4.5498,-4.4856,-4.4488,-4.447,-4.3915,-4.3634,-4.3771,-4.3818,-4.3942,-4.4136,-4.4151,-4.4244,-4.444,-4.4578,-4.5501,-4.7493,-4.7662,-4.8383,-5.0102,-5.0278,-5.0271,-5.029,-5.0302,-5.0302,-5.0302,-5.0302,-5.0302,-5.0302,-5.0302,-5.0302,-5.0302,-5.0302,-5.0302,-5.0321,-5.0913,-5.1436,-5.1639,-5.2193,-5.29,-5.3779,-5.4753,-5.5416,-5.5396,-5.5409,-5.5408,-5.548,-5.5527,-5.5629,-5.5739,-5.5769,-5.5788,-5.5822,-5.5881,-5.5895,-5.5672,-5.5303,-5.4998,-5.4908,-5.4309,-5.3799,-5.3752,-5.3093,-5.245,-5.247,-5.247,-5.2214,-5.1759,-5.1243,-5.1353,-5.1332,-5.1215,-5.0662,-5.0062,-4.941,-4.8342,-4.7992,-4.8225,-4.811,-4.811,-4.8189,-4.811,-4.8092,-4.8207,-4.8207,-4.8265,-4.8305,-4.8324,-4.8324,-4.8324,-4.8324,-4.8286,-4.8226,-4.8207,-4.8168,-4.8052,-4.8052,-4.8052,-4.809,-4.8052,-4.8072,-4.8072,-4.8052,-4.8072,-4.8113,-4.8306,-4.8344,-4.8286,-4.8325,-4.8363,-4.8326,-4.7664,-4.6911,-4.6122,-4.5424,-4.4672,-4.39,-4.3753,-4.368,-4.3644,-4.3588,-4.3531,-4.3615,-4.3632,-4.3751,-4.3929,-4.3945,-4.4036,-4.4225,-4.4364,-4.5302,-4.722,-4.7498,-4.8232,-4.9911,-5.0163,-5.0231,-5.0212,-5.0248,-5.029,-5.0302,-5.0302,-5.0302,-5.0302,-5.0302,-5.0302,-5.0302,-5.0302,-5.0302,-5.0321,-5.0455,-5.0818,-5.141,-5.1735,-5.2098,-5.2977,-5.4371,-5.5275,-5.539,-5.5384,-5.5403,-5.5255,-5.5401,-5.5351,-5.5599,-5.5525,-5.5263,-5.4872,-5.4877,-5.4738,-5.4148,-5.4016,-5.3964,-5.4028,-5.3387,-5.2924,-5.2821,-5.2225,-5.1685,-5.1687,-5.1668,-5.157,-5.1813,-5.1544,-5.1255,-5.1132,-5.1061,-5.0457,-5.0076,-4.9804,-4.8898,-4.8522,-4.8489,-4.8054,-4.7933,-4.7992,-4.7992,-4.805,-4.809,-4.809,-4.8092,-4.8131,-4.8131,-4.8131,-4.8131,-4.8151,-4.8111,-4.809,-4.809,-4.8052,-4.7992,-4.7992,-4.7992,-4.7992,-4.7949,-4.7966,-4.7966,-4.7886,-4.7827,-4.7845,-4.8032,-4.813,-4.809,-4.8111,-4.793,-4.7509,-4.7125,-4.6357,-4.515,-4.473,-4.4181,-4.3358,-4.341,-4.3446,-4.3446,-4.3462,-4.3532,-4.3531,-4.3531,-4.3617,-4.3734,-4.38,-4.3897,-4.4017,-4.4128,-4.4778,-4.6252,-4.7,-4.7915,-4.9156,-4.9727,-5.005,-5.0095,-5.0133,-5.017,-5.0224,-5.0255,-5.0267,-5.029,-5.0302,-5.0302,-5.0302,-5.0302,-5.0302,-5.0302,-5.0302,-5.0397,-5.0875,-5.1257,-5.1742,-5.2117,-5.3168,-5.3989,-5.3989,-5.397,-5.3982,-5.4007,-5.4,-5.4018,-5.4112,-5.4143,-5.4038,-5.38,-5.3841,-5.376,-5.3538,-5.3248,-5.3052,-5.3064,-5.2446,-5.2035,-5.1929,-5.1747,-5.1425,-5.1392,-5.1394,-5.1394,-5.1928,-5.1562,-5.1053,-5.0742,-5.0577,-5.0108,-4.9996,-5.01,-4.9409,-4.9066,-4.8915,-4.8244,-4.7829,-4.7708,-4.779,-4.787,-4.7911,-4.7931,-4.7951,-4.7992,-4.7992,-4.7992,-4.7992,-4.7992,-4.7992,-4.799,-4.7988,-4.797,-4.7931,-4.7931,-4.7931,-4.7929,-4.7884,-4.7861,-4.7861,-4.7759,-4.7699,-4.7699,-4.7847,-4.7949,-4.797,-4.7828,-4.7427,-4.6823,-4.6442,-4.5658,-4.4491,-4.4218,-4.3834,-4.3269,-4.3305,-4.3358,-4.3376,-4.3393,-4.3427,-4.3427,-4.3463,-4.3515,-4.3565,-4.3686,-4.3753,-4.3832,-4.3913,-4.4373,-4.5345,-4.6453,-4.7518,-4.844,-4.9359,-4.9912,-4.9952,-4.9978,-5.0012,-5.0126,-5.017,-5.0194,-5.0267,-5.0278,-5.029,-5.029,-5.0302,-5.0302,-5.0302,-5.0302,-5.0321,-5.0436,-5.0894,-5.1264,-5.1379,-5.1868,-5.2193,-5.2327,-5.2518,-5.2862,-5.2785,-5.2855,-5.2917,-5.2889,-5.2927,-5.2947,-5.2883,-5.2836,-5.2762,-5.268,-5.2349,-5.209,-5.2018,-5.1711,-5.1405,-5.1424,-5.1414,-5.1396,-5.1392,-5.1394,-5.1394,-5.2334,-5.1161,-5.1001,-5.0604,-5.0028,-4.9925,-5.009,-5.0227,-4.954,-4.9353,-4.9466,-4.8663,-4.7895,-4.7417,-4.7385,-4.7493,-4.7699,-4.772,-4.7806,-4.7972,-4.7992,-4.7992,-4.7992,-4.801,-4.7949,-4.7922,-4.7902,-4.7842,-4.7741,-4.7741,-4.772,-4.772,-4.7699,-4.7738,-4.7699,-4.7699,-4.7699,-4.7699,-4.7699,-4.778,-4.7847,-4.7257,-4.6878,-4.6787,-4.5384,-4.4564,-4.4327,-4.3707,-4.3269,-4.3214,-4.3196,-4.3196,-4.3233,-4.3233,-4.3233,-4.3251,-4.334,-4.3446,-4.3515,-4.3532,-4.3566,-4.3634,-4.3789,-4.4239,-4.5115,-4.6062,-4.7084,-4.8156,-4.9226,-4.9774,-4.9802,-4.9857,-4.9925,-5.0005,-5.0018,-5.007,-5.0175,-5.0219,-5.0224,-5.0302,-5.029,-5.0302,-5.0302,-5.0302,-5.0302,-5.0302,-5.0436,-5.0569,-5.0569,-5.0665,-5.0799,-5.0932,-5.1735,-5.2594,-5.2652,-5.2766,-5.2587,-5.2676,-5.274,-5.2425,-5.2024,-5.1812,-5.1715,-5.1491,-5.1138,-5.1138,-5.121,-5.1138,-5.1215,-5.1252,-5.1323,-5.1386,-5.1388,-5.1394,-5.1392,-5.2392,-5.1398,-5.0969,-5.0352,-4.9713,-4.9737,-4.9854,-4.9948,-4.9711,-4.9461,-4.9107,-4.8469,-4.7939,-4.7535,-4.7244,-4.7227,-4.7399,-4.7417,-4.7529,-4.7684,-4.7723,-4.7744,-4.7806,-4.7806,-4.7804,-4.778,-4.7699,-4.7657,-4.7678,-4.7699,-4.7699,-4.7699,-4.7699,-4.7699,-4.7699,-4.7699,-4.7699,-4.7699,-4.7699,-4.7521,-4.7091,-4.6769,-4.6154,-4.5266,-4.4557,-4.3958,-4.354,-4.3177,-4.3031,-4.3031,-4.3105,-4.316,-4.3142,-4.3178,-4.3214,-4.3214,-4.3304,-4.3394,-4.3428,-4.348,-4.3717,-4.4211,-4.4334,-4.4752,-4.5615,-4.6566,-4.7328,-4.7828,-4.8736,-4.9349,-4.9476,-4.9521,-4.963,-4.9774,-4.9816,-4.9885,-5.005,-5.0101,-5.017,-5.0243,-5.0278,-5.0302,-5.0302,-5.0302,-5.0302,-5.0302,-5.0302,-5.0302,-5.0302,-5.0302,-5.0302,-5.0378,-5.0932,-5.1238,-5.1372,-5.1314,-5.1353,-5.1353,-5.1314,-5.1116,-5.1044,-5.0918,-5.0823,-5.0613,-5.0654,-5.0736,-5.0905,-5.0961,-5.1043,-5.1131,-5.1253,-5.1333,-5.1379,-5.1386,-5.1386,-5.2539,-5.1773,-5.087,-5.0019,-4.9385,-4.9471,-4.953,-4.956,-4.9661,-4.9457,-4.8965,-4.846,-4.7988,-4.7573,-4.7056,-4.6911,-4.702,-4.7066,-4.7205,-4.7403,-4.7403,-4.7486,-4.7593,-4.7593,-4.7572,-4.7551,-4.7464,-4.7464,-4.7551,-4.7551,-4.7593,-4.7636,-4.7636,-4.7657,-4.7699,-4.7699,-4.7699,-4.7699,-4.7699,-4.721,-4.6341,-4.6155,-4.5506,-4.4222,-4.3897,-4.348,-4.2955,-4.2919,-4.2919,-4.2919,-4.2975,-4.3049,-4.3031,-4.3087,-4.3123,-4.3178,-4.3251,-4.3323,-4.3359,-4.363,-4.405,-4.4618,-4.4909,-4.5477,-4.6267,-4.7001,-4.7496,-4.7863,-4.8433,-4.8959,-4.9144,-4.9211,-4.9292,-4.948,-4.9525,-4.9644,-4.9838,-4.9946,-5.0044,-5.0145,-5.0207,-5.0255,-5.0278,-5.029,-5.0302,-5.0302,-5.0302,-5.0302,-5.0302,-5.0302,-5.0302,-5.0302,-5.0321,-5.034,-5.0302,-5.0436,-5.0302,-5.0302,-5.0436,-5.0455,-5.0302,-5.0356,-5.0401,-5.05,-5.0535,-5.0596,-5.071,-5.0814,-5.0916,-5.1056,-5.1167,-5.1253,-5.1349,-5.1364,-5.1396,-5.301,-5.2096,-5.0725,-4.9709,-4.9032,-4.9063,-4.9107,-4.926,-4.9212,-4.9316,-4.9312,-4.8804,-4.8123,-4.741,-4.6772,-4.6512,-4.6637,-4.6749,-4.6934,-4.7196,-4.7201,-4.7249,-4.7302,-4.7302,-4.7294,-4.7245,-4.7241,-4.7201,-4.7223,-4.7241,-4.7312,-4.749,-4.749,-4.7572,-4.7657,-4.7678,-4.7696,-4.7657,-4.7657,-4.6954,-4.5578,-4.5335,-4.4899,-4.4038,-4.3353,-4.2973,-4.29,-4.2919,-4.2919,-4.2919,-4.2919,-4.2919,-4.2919,-4.2919,-4.2975,-4.3068,-4.3104,-4.3178,-4.336,-4.4017,-4.4583,-4.4766,-4.5443,-4.6195,-4.6947,-4.715,-4.7555,-4.8347,-4.8421,-4.8624,-4.8838,-4.8909,-4.8942,-4.9025,-4.9144,-4.9286,-4.9499,-4.9683,-4.9857,-4.9978,-5.007,-5.0114,-5.0188,-5.0248,-5.029,-5.029,-5.029,-5.029,-5.0302,-5.0302,-5.0302,-5.0302,-5.0302,-5.0302,-5.0302,-5.0302,-5.0302,-5.0302,-5.0302,-5.0302,-5.0302,-5.0302,-5.0337,-5.0401,-5.0448,-5.0513,-5.0604,-5.0701,-5.0835,-5.0944,-5.1029,-5.1123,-5.1253,-5.1353,-5.1375,-5.2756,-5.1539,-5.0507,-4.9661,-4.9018,-4.9018,-4.9032,-4.9063,-4.9094,-4.9124,-4.905,-4.8554,-4.8119,-4.7807,-4.6786,-4.6256,-4.6122,-4.6235,-4.6471,-4.6795,-4.6819,-4.6911,-4.7093,-4.7116,-4.7093,-4.7066,-4.6998,-4.6934,-4.6957,-4.7002,-4.7156,-4.7267,-4.7312,-4.7359,-4.7428,-4.7428,-4.7428,-4.7446,-4.7428,-4.665,-4.5165,-4.4962,-4.4309,-4.3052,-4.2889,-4.2823,-4.286,-4.2881,-4.2919,-4.2919,-4.2919,-4.2919,-4.2919,-4.2919,-4.2919,-4.2975,-4.3049,-4.3341,-4.3833,-4.4254,-4.4948,-4.5915,-4.6264,-4.6813,-4.749,-4.7691,-4.7838,-4.8078,-4.8189,-4.8267,-4.8325,-4.8513,-4.8678,-4.8731,-4.8784,-4.8907,-4.9127,-4.9337,-4.9518,-4.966,-4.986,-5.0044,-5.007,-5.0133,-5.0194,-5.0224,-5.0224,-5.0236,-5.0271,-5.0302,-5.029,-5.0302,-5.0302,-5.0302,-5.0302,-5.0302,-5.0302,-5.0302,-5.0302,-5.0302,-5.0302,-5.0302,-5.0325,-5.0325,-5.0371,-5.0424,-5.0492,-5.0576,-5.0717,-5.0835,-5.0918,-5.1011,-5.1157,-5.1224,-5.1269,-5.2756,-5.1555,-5.076,-5.0033,-4.9357,-4.9103,-4.9018,-4.9018,-4.9018,-4.9018,-4.8931,-4.8551,-4.826,-4.7912,-4.6971,-4.6275,-4.5874,-4.5822,-4.6013,-4.6326,-4.6332,-4.6477,-4.6708,-4.6731,-4.6725,-4.6661,-4.6542,-4.6495,-4.6542,-4.6637,-4.6795,-4.6998,-4.702,-4.707,-4.7187,-4.7209,-4.7209,-4.7209,-4.7209,-4.652,-4.5251,-4.4836,-4.4057,-4.2858,-4.2593,-4.2609,-4.2668,-4.2709,-4.2749,-4.2805,-4.2843,-4.2899,-4.2919,-4.2919,-4.3028,-4.3263,-4.3374,-4.3775,-4.452,-4.4924,-4.5618,-4.6638,-4.706,-4.7463,-4.7937,-4.7992,-4.7992,-4.7992,-4.7992,-4.7992,-4.8032,-4.8169,-4.8343,-4.8401,-4.8439,-4.8532,-4.8696,-4.894,-4.919,-4.9427,-4.9636,-4.9797,-4.9898,-4.9952,-5.0044,-5.0114,-5.0126,-5.0163,-5.0255,-5.0278,-5.0278,-5.0302,-5.0302,-5.0302,-5.0302,-5.0302,-5.0302,-5.0302,-5.0302,-5.0302,-5.0302,-5.0302,-5.0302,-5.0302,-5.0314,-5.0337,-5.0393,-5.0472,-5.0576,-5.0709,-5.0786,-5.0871,-5.0972,-5.107,-5.1123,-5.3027,-5.2181,-5.1505,-5.071,-4.9949,-4.9272,-4.9018,-4.9018,-4.9018,-4.9018,-4.8984,-4.8951,-4.8562,-4.7949,-4.7335,-4.6623,-4.6021,-4.565,-4.5615,-4.5811,-4.5811,-4.5938,-4.6186,-4.6186,-4.6137,-4.6038,-4.5897,-4.5879,-4.6013,-4.6038,-4.6228,-4.6501,-4.659,-4.6708,-4.698,-4.6957,-4.698,-4.698,-4.6957,-4.6547,-4.578,-4.4956,-4.4103,-4.3212,-4.2523,-4.2237,-4.2371,-4.2412,-4.2492,-4.2609,-4.2707,-4.2841,-4.2862,-4.2954,-4.3281,-4.3896,-4.4077,-4.4494,-4.5274,-4.6043,-4.6466,-4.6884,-4.7512,-4.786,-4.7933,-4.7951,-4.7972,-4.797,-4.7972,-4.7972,-4.797,-4.7966,-4.7966,-4.801,-4.8149,-4.8228,-4.8344,-4.855,-4.8853,-4.9174,-4.9334,-4.9476,-4.9648,-4.9717,-4.9816,-4.9906,-4.9973,-5.0025,-5.0158,-5.0182,-5.0212,-5.0278,-5.029,-5.0278,-5.029,-5.0302,-5.0302,-5.0302,-5.0302,-5.0302,-5.0302,-5.0302,-5.0302,-5.0302,-5.0302,-5.0314,-5.0356,-5.0427,-5.047,-5.0566,-5.0635,-5.0727,-5.0816,-5.0918,-5.1011,-5.3044,-5.2232,-5.1522,-5.0777,-5.0033,-4.9306,-4.9018,-4.9018,-4.9018,-4.9018,-4.9018,-4.9018,-4.8883,-4.8545,-4.7915,-4.72,-4.6501,-4.5915,-4.5545,-4.5422,-4.5406,-4.5494,-4.5649,-4.5658,-4.5649,-4.558,-4.5546,-4.5546,-4.558,-4.5598,-4.576,-4.5988,-4.6062,-4.6235,-4.6548,-4.659,-4.659,-4.659,-4.659,-4.6106,-4.527,-4.4923,-4.4097,-4.2835,-4.2426,-4.2148,-4.1754,-4.2103,-4.2348,-4.2371,-4.2472,-4.2571,-4.276,-4.3212,-4.3684,-4.4032,-4.452,-4.5192,-4.5997,-4.6398,-4.6835,-4.7291,-4.7656,-4.7785,-4.7804,-4.7785,-4.7785,-4.7804,-4.7804,-4.7785,-4.7765,-4.7762,-4.7804,-4.7925,-4.7966,-4.8024,-4.8067,-4.8248,-4.8514,-4.8767,-4.8959,-4.9094,-4.9225,-4.9337,-4.9476,-4.9596,-4.9698,-4.983,-4.9965,-5.0044,-5.012,-5.0219,-5.0231,-5.0255,-5.0278,-5.029,-5.029,-5.029,-5.0302,-5.0302,-5.0302,-5.0302,-5.0302,-5.0302,-5.0302,-5.0302,-5.0344,-5.0367,-5.0393,-5.0446,-5.0534,-5.0606,-5.0673,-5.075,-5.0852,-5.3213,-5.2655,-5.164,-5.0963,-5.0388,-4.9458,-4.9018,-4.9018,-4.9018,-4.9018,-4.9018,-4.9018,-4.9018,-4.8849,-4.824,-4.7652,-4.7124,-4.6194,-4.5592,-4.536,-4.5118,-4.514,-4.5247,-4.5274,-4.5257,-4.5257,-4.5274,-4.5257,-4.5257,-4.5257,-4.5363,-4.5546,-4.558,-4.5709,-4.6013,-4.6013,-4.6038,-4.6038,-4.6038,-4.5711,-4.5142,-4.4804,-4.4128,-4.3152,-4.2562,-4.2066,-4.1656,-4.1762,-4.1892,-4.2082,-4.221,-4.2476,-4.29,-4.3384,-4.3948,-4.4697,-4.5209,-4.5884,-4.6729,-4.6954,-4.7138,-4.7609,-4.7699,-4.7699,-4.7699,-4.7699,-4.7699,-4.7699,-4.7699,-4.7699,-4.7699,-4.7699,-4.7738,-4.7819,-4.784,-4.784,-4.7902,-4.8028,-4.8209,-4.842,-4.855,-4.8678,-4.8784,-4.8923,-4.9075,-4.9209,-4.9402,-4.9555,-4.9683,-4.9816,-4.9952,-5.0057,-5.0108,-5.017,-5.0255,-5.0267,-5.0259,-5.029,-5.0302,-5.0302,-5.0302,-5.0302,-5.0302,-5.0302,-5.0302,-5.0302,-5.0314,-5.0314,-5.0337,-5.039,-5.0424,-5.0481,-5.0556,-5.0645,-5.0745,-5.3501,-5.3298,-5.1911,-5.1236,-5.0997,-4.9695,-4.9086,-4.9018,-4.9018,-4.9018,-4.9018,-4.9018,-4.9018,-4.8849,-4.8359,-4.8003,-4.7635,-4.6498,-4.5788,-4.5535,-4.5111,-4.4886,-4.4968,-4.4978,-4.4978,-4.4978,-4.4978,-4.4995,-4.4995,-4.4995,-4.5015,-4.5194,-4.522,-4.5274,-4.5441,-4.5415,-4.5468,-4.545,-4.5441,-4.5407,-4.5285,-4.4708,-4.4199,-4.4027,-4.2907,-4.215,-4.1836,-4.1449,-4.1331,-4.1714,-4.2001,-4.2523,-4.3163,-4.3419,-4.4357,-4.5644,-4.6008,-4.6529,-4.7252,-4.7428,-4.7567,-4.7639,-4.7657,-4.7696,-4.7696,-4.7699,-4.7699,-4.7699,-4.7699,-4.7699,-4.7699,-4.7699,-4.7699,-4.7699,-4.7738,-4.7759,-4.7861,-4.7881,-4.8006,-4.8128,-4.8187,-4.8228,-4.8383,-4.8532,-4.8678,-4.882,-4.9029,-4.9193,-4.9318,-4.9491,-4.9702,-4.9816,-4.9879,-4.9999,-5.0076,-5.0151,-5.0163,-5.0236,-5.0267,-5.0278,-5.029,-5.0302,-5.0302,-5.0302,-5.0302,-5.0302,-5.0302,-5.0302,-5.0302,-5.0325,-5.0348,-5.0371,-5.0438,-5.0534,-5.0615,-5.3518,-5.3399,-5.2418,-5.1708,-5.1133,-5.0185,-4.9492,-4.9052,-4.9018,-4.9018,-4.9018,-4.9018,-4.9018,-4.8984,-4.8815,-4.846,-4.7804,-4.6955,-4.616,-4.5652,-4.4981,-4.4671,-4.4709,-4.4709,-4.4692,-4.4692,-4.472,-4.4692,-4.4709,-4.4737,-4.4776,-4.4913,-4.4913,-4.5032,-4.5203,-4.523,-4.5257,-4.5239,-4.5274,-4.5177,-4.5079,-4.4898,-4.4504,-4.3973,-4.3562,-4.2792,-4.1884,-4.1624,-4.1436,-4.1387,-4.2093,-4.258,-4.3044,-4.4016,-4.4885,-4.5541,-4.6333,-4.6847,-4.7196,-4.7359,-4.7428,-4.7533,-4.7551,-4.7615,-4.7678,-4.7717,-4.7717,-4.7699,-4.7699,-4.7699,-4.7699,-4.7699,-4.7699,-4.7699,-4.7699,-4.7717,-4.7759,-4.7759,-4.7822,-4.7943,-4.7984,-4.8028,-4.811,-4.8228,-4.8324,-4.842,-4.8624,-4.8803,-4.894,-4.9075,-4.927,-4.9457,-4.9592,-4.975,-4.9893,-4.9986,-5.0076,-5.0188,-5.0224,-5.0255,-5.0278,-5.0302,-5.0302,-5.0302,-5.0302,-5.0302,-5.0302,-5.0302,-5.0302,-5.0302,-5.0314,-5.0337,-5.0337,-5.0404,-5.047,-5.3518,-5.3433,-5.2638,-5.1894,-5.1166,-5.0405,-4.9678,-4.9103,-4.9018,-4.9018,-4.9018,-4.9018,-4.9018,-4.9018,-4.9001,-4.8798,-4.8325,-4.7597,-4.687,-4.6075,-4.5106,-4.4649,-4.4598,-4.4598,-4.4598,-4.4598,-4.4598,-4.4598,-4.4598,-4.4598,-4.4654,-4.4709,-4.4709,-4.482,-4.4896,-4.4968,-4.4951,-4.4923,-4.494,-4.4896,-4.4831,-4.4831,-4.4661,-4.4184,-4.3912,-4.3068,-4.2074,-4.2023,-4.1891,-4.1736,-4.2285,-4.2954,-4.3391,-4.4286,-4.5089,-4.5539,-4.6336,-4.6801,-4.6975,-4.7093,-4.7227,-4.7338,-4.7377,-4.7464,-4.7572,-4.7615,-4.7636,-4.7696,-4.7699,-4.7699,-4.7699,-4.7699,-4.7699,-4.7699,-4.7699,-4.7699,-4.7699,-4.7699,-4.772,-4.778,-4.7801,-4.7822,-4.7886,-4.7988,-4.8046,-4.8126,-4.8286,-4.8438,-4.8532,-4.866,-4.8837,-4.904,-4.922,-4.9377,-4.9577,-4.9707,-4.9866,-4.9999,-5.0126,-5.017,-5.0243,-5.0278,-5.0302,-5.0302,-5.0302,-5.0302,-5.0302,-5.0302,-5.0302,-5.0302,-5.0302,-5.0302,-5.0314,-5.0325,-5.0382,-5.3467,-5.3399,-5.2723,-5.1961,-5.1183,-5.049,-4.9779,-4.9086,-4.9018,-4.9018,-4.9018,-4.9018,-4.9018,-4.9018,-4.9018,-4.8984,-4.8934,-4.8139,-4.7344,-4.6397,-4.5427,-4.4739,-4.4598,-4.4598,-4.4598,-4.4598,-4.4598,-4.4598,-4.4598,-4.4598,-4.4598,-4.4626,-4.4598,-4.4598,-4.4665,-4.4626,-4.4598,-4.4654,-4.4654,-4.4637,-4.4654,-4.4654,-4.4586,-4.4484,-4.3796,-4.322,-4.2627,-4.2504,-4.2423,-4.2012,-4.2755,-4.3441,-4.4104,-4.4379,-4.4905,-4.556,-4.6059,-4.6381,-4.6542,-4.6754,-4.698,-4.7088,-4.7156,-4.7263,-4.7421,-4.7508,-4.7572,-4.7675,-4.7696,-4.7699,-4.7699,-4.7699,-4.7699,-4.7699,-4.7699,-4.7699,-4.7699,-4.7699,-4.7699,-4.7699,-4.7699,-4.7699,-4.7738,-4.778,-4.7899,-4.7925,-4.8068,-4.8168,-4.8247,-4.8344,-4.8476,-4.8641,-4.8801,-4.8957,-4.919,-4.9396,-4.9596,-4.9774,-4.9965,-5.0057,-5.0182,-5.0243,-5.0278,-5.0302,-5.0302,-5.0302,-5.0302,-5.0302,-5.0302,-5.0302,-5.0302,-5.0302,-5.0302,-5.0302,-5.0348,-5.3264,-5.3247,-5.3247,-5.2452,-5.1269,-5.1031,-5.0219,-4.9018,-4.9001,-4.9018,-4.9001,-4.9001,-4.9001,-4.9018,-4.9018,-4.9018,-4.8917,-4.8223,-4.7242,-4.5974,-4.5703,-4.5094,-4.4733,-4.4598,-4.4598,-4.4598,-4.4598,-4.4598,-4.4598,-4.4598,-4.4598,-4.4598,-4.4598,-4.4598,-4.4598,-4.4598,-4.4598,-4.4598,-4.4598,-4.4598,-4.4598,-4.4598,-4.4598,-4.4502,-4.3832,-4.3392,-4.3206,-4.3166,-4.3152,-4.3192,-4.3473,-4.3827,-4.4093,-4.4654,-4.5077,-4.5329,-4.5692,-4.592,-4.6038,-4.6326,-4.659,-4.6708,-4.6888,-4.7111,-4.7245,-4.7403,-4.749,-4.7554,-4.7618,-4.7678,-4.7699,-4.7699,-4.7699,-4.7699,-4.7699,-4.7699,-4.7699,-4.7699,-4.7699,-4.7699,-4.7699,-4.7699,-4.7699,-4.7717,-4.7759,-4.7777,-4.7861,-4.7963,-4.8006,-4.805,-4.817,-4.8307,-4.842,-4.8587,-4.8802,-4.904,-4.9302,-4.954,-4.9731,-4.9898,-5.0044,-5.017,-5.0194,-5.0243,-5.0302,-5.0302,-5.0302,-5.0302,-5.0302,-5.0302,-5.0302,-5.0302,-5.0302,-5.0302,-5.0302,-5.3041,-5.3076,-5.3264,-5.2471,-5.1255,-5.1168,-5.0371,-4.9173,-4.8925,-4.8956,-4.897,-4.8925,-4.8956,-4.9018,-4.9018,-4.9018,-4.8832,-4.824,-4.7327,-4.6346,-4.5889,-4.528,-4.4733,-4.4598,-4.4598,-4.4598,-4.4598,-4.4598,-4.4598,-4.4598,-4.4598,-4.4598,-4.4598,-4.4598,-4.4598,-4.4598,-4.4598,-4.4598,-4.4598,-4.4598,-4.4598,-4.4598,-4.4542,-4.4435,-4.4035,-4.3816,-4.3816,-4.3833,-4.3888,-4.3988,-4.4126,-4.4225,-4.4269,-4.4719,-4.4988,-4.5059,-4.531,-4.5503,-4.5606,-4.5811,-4.607,-4.6211,-4.6471,-4.6708,-4.6911,-4.712,-4.7294,-4.7359,-4.749,-4.7636,-4.7678,-4.7699,-4.7699,-4.7699,-4.7699,-4.7699,-4.7699,-4.7699,-4.7699,-4.7699,-4.7699,-4.7699,-4.7699,-4.7699,-4.7699,-4.7738,-4.7738,-4.7822,-4.7822,-4.7866,-4.7927,-4.803,-4.8088,-4.8208,-4.8439,-4.8713,-4.9008,-4.9241,-4.9464,-4.9659,-4.9816,-4.9965,-5.0095,-5.017,-5.0243,-5.029,-5.0302,-5.0302,-5.029,-5.0302,-5.0302,-5.0302,-5.0302,-5.0302,-5.0302,-5.2868,-5.2868,-5.3041,-5.227,-5.1092,-5.1006,-5.0212,-4.8947,-4.8769,-4.8707,-4.8832,-4.8755,-4.8738,-4.8846,-4.8909,-4.8892,-4.874,-4.8368,-4.7578,-4.687,-4.6161,-4.5486,-4.4879,-4.4575,-4.4485,-4.453,-4.4587,-4.457,-4.4598,-4.4598,-4.4598,-4.4598,-4.4598,-4.4598,-4.4598,-4.4598,-4.4598,-4.4598,-4.4598,-4.4598,-4.4598,-4.4598,-4.4514,-4.435,-4.4231,-4.4164,-4.4164,-4.4209,-4.4333,-4.4542,-4.457,-4.4598,-4.4626,-4.4709,-4.4776,-4.4793,-4.5032,-4.514,-4.5203,-4.5415,-4.5606,-4.5752,-4.5988,-4.6259,-4.6542,-4.6778,-4.698,-4.716,-4.7312,-4.7486,-4.7615,-4.7636,-4.7657,-4.7657,-4.7678,-4.7699,-4.7699,-4.7699,-4.7699,-4.7699,-4.7699,-4.7699,-4.7699,-4.7699,-4.7699,-4.7699,-4.7699,-4.7699,-4.7699,-4.7699,-4.7783,-4.7824,-4.7886,-4.8008,-4.8209,-4.8402,-4.8713,-4.8942,-4.9195,-4.9355,-4.9521,-4.9655,-4.9811,-5.0076,-5.0194,-5.0219,-5.0255,-5.0267,-5.0267,-5.029,-5.0302,-5.0302,-5.0302,-5.0302,-5.0302,-5.2659,-5.2659,-5.2677,-5.1947,-5.0827,-5.0593,-4.9708,-4.8457,-4.8292,-4.8244,-4.8179,-4.8244,-4.8292,-4.8388,-4.8515,-4.8578,-4.8528,-4.831,-4.7924,-4.7186,-4.6448,-4.5727,-4.501,-4.4418,-4.4217,-4.4258,-4.44,-4.4514,-4.457,-4.4598,-4.4542,-4.457,-4.457,-4.457,-4.4542,-4.4598,-4.4542,-4.4514,-4.4542,-4.4542,-4.4542,-4.4542,-4.4457,-4.4281,-4.4184,-4.4155,-4.4155,-4.4224,-4.4338,-4.4384,-4.4497,-4.457,-4.4598,-4.4626,-4.4654,-4.4682,-4.4803,-4.4913,-4.4923,-4.5096,-4.531,-4.5477,-4.5709,-4.5963,-4.6235,-4.6495,-4.6684,-4.6888,-4.707,-4.729,-4.7363,-4.7468,-4.7511,-4.7572,-4.7615,-4.7678,-4.7678,-4.7699,-4.7699,-4.7699,-4.7699,-4.7699,-4.7699,-4.7699,-4.7699,-4.7699,-4.7699,-4.7699,-4.7699,-4.7699,-4.772,-4.772,-4.772,-4.7866,-4.803,-4.8209,-4.8439,-4.8624,-4.882,-4.8978,-4.9127,-4.9273,-4.9491,-4.9764,-4.9986,-5.0095,-5.0145,-5.0175,-5.0243,-5.0267,-5.0278,-5.029,-5.0302,-5.0302,-5.0302,-5.2214,-5.2069,-5.2217,-5.1444,-5.0269,-5.0137,-4.9309,-4.8034,-4.7704,-4.7638,-4.7688,-4.7754,-4.7853,-4.7968,-4.8147,-4.8244,-4.8244,-4.8244,-4.7811,-4.7095,-4.6379,-4.5632,-4.4933,-4.4214,-4.3914,-4.386,-4.4023,-4.4212,-4.4344,-4.4344,-4.4344,-4.4344,-4.4344,-4.4344,-4.4344,-4.4344,-4.4344,-4.4327,-4.4344,-4.4344,-4.4344,-4.4344,-4.4241,-4.4143,-4.4056,-4.4015,-4.3998,-4.4056,-4.4184,-4.4281,-4.4395,-4.4514,-4.457,-4.4598,-4.4598,-4.4598,-4.4654,-4.4709,-4.472,-4.4869,-4.5005,-4.5113,-4.5336,-4.5555,-4.5786,-4.6038,-4.6332,-4.6637,-4.6772,-4.6957,-4.7138,-4.7267,-4.7334,-4.7377,-4.7486,-4.7593,-4.7615,-4.7657,-4.7678,-4.7678,-4.7717,-4.7717,-4.7699,-4.7699,-4.7699,-4.7699,-4.7699,-4.7699,-4.7699,-4.7699,-4.7699,-4.7699,-4.7699,-4.7783,-4.7907,-4.8048,-4.8189,-4.8363,-4.8495,-4.8624,-4.8768,-4.8925,-4.9176,-4.9446,-4.9655,-4.9838,-5.0031,-5.0095,-5.0158,-5.0231,-5.0231,-5.0243,-5.0278,-5.0302,-5.029,-5.1758,-5.1445,-5.1508,-5.0743,-4.954,-4.9368,-4.8617,-4.7467,-4.7015,-4.6947,-4.7066,-4.71,-4.7202,-4.7421,-4.7638,-4.7754,-4.7787,-4.777,-4.7408,-4.6798,-4.5942,-4.5232,-4.4671,-4.3894,-4.3353,-4.3339,-4.3353,-4.3625,-4.3919,-4.3993,-4.401,-4.401,-4.3993,-4.401,-4.401,-4.4051,-4.4023,-4.4039,-4.4114,-4.4097,-4.4097,-4.4085,-4.4027,-4.3898,-4.3868,-4.3839,-4.3822,-4.3881,-4.4056,-4.4196,-4.4293,-4.4395,-4.4553,-4.4598,-4.4598,-4.4598,-4.4598,-4.4598,-4.4626,-4.4709,-4.4803,-4.4886,-4.5022,-4.5194,-4.5389,-4.5658,-4.5938,-4.6308,-4.6429,-4.6566,-4.6801,-4.698,-4.7048,-4.7138,-4.7294,-4.7446,-4.7468,-4.7529,-4.7615,-4.7636,-4.7675,-4.7696,-4.7678,-4.7699,-4.7699,-4.7699,-4.7699,-4.7699,-4.7699,-4.7699,-4.7699,-4.7699,-4.7699,-4.7738,-4.7822,-4.7902,-4.8026,-4.8146,-4.8228,-4.8344,-4.8458,-4.8606,-4.8855,-4.9077,-4.9292,-4.9476,-4.9726,-4.9952,-5.0018,-5.005,-5.0145,-5.0194,-5.0224,-5.0267,-5.0278,-5.1408,-5.1086,-5.0359,-4.9558,-4.8764,-4.8023,-4.7141,-4.6278,-4.6127,-4.6088,-4.6032,-4.6143,-4.6285,-4.6547,-4.6876,-4.6996,-4.703,-4.7014,-4.6932,-4.6575,-4.552,-4.4854,-4.4529,-4.3311,-4.2791,-4.271,-4.271,-4.308,-4.3399,-4.3519,-4.3608,-4.3608,-4.3578,-4.3638,-4.3595,-4.3684,-4.3831,-4.3831,-4.3964,-4.4068,-4.4068,-4.3969,-4.3927,-4.3868,-4.3763,-4.3658,-4.3687,-4.3793,-4.3956,-4.4114,-4.4224,-4.4384,-4.4559,-4.4598,-4.4598,-4.4598,-4.4598,-4.4598,-4.4615,-4.4626,-4.4682,-4.4765,-4.4831,-4.4978,-4.515,-4.5336,-4.558,-4.5854,-4.5912,-4.6062,-4.6381,-4.659,-4.6708,-4.6847,-4.7025,-4.7178,-4.7245,-4.7399,-4.7486,-4.7551,-4.7572,-4.7636,-4.7678,-4.7678,-4.7699,-4.7699,-4.7699,-4.7699,-4.7699,-4.7699,-4.7699,-4.7699,-4.7699,-4.7738,-4.7759,-4.7819,-4.7881,-4.7963,-4.8026,-4.809,-4.8208,-4.8324,-4.8438,-4.866,-4.8874,-4.9146,-4.9415,-4.9625,-4.9783,-4.9893,-4.9959,-5.0063,-5.0175,-5.02,-5.0219,-5.0269,-5.0174,-4.9428,-4.8615,-4.7789,-4.6922,-4.6102,-4.5442,-4.5237,-4.5194,-4.5157,-4.5274,-4.5478,-4.5769,-4.6001,-4.6108,-4.6246,-4.6298,-4.6298,-4.5994,-4.492,-4.4186,-4.3818,-4.278,-4.2029,-4.2029,-4.2061,-4.211,-4.2522,-4.2865,-4.3035,-4.3035,-4.3035,-4.3019,-4.305,-4.3204,-4.3281,-4.3372,-4.3539,-4.373,-4.3759,-4.3747,-4.3734,-4.3717,-4.3658,-4.3615,-4.3628,-4.3658,-4.3839,-4.3969,-4.4143,-4.4253,-4.4412,-4.4497,-4.4598,-4.4598,-4.4598,-4.4598,-4.4598,-4.4598,-4.4626,-4.4637,-4.4709,-4.4776,-4.4951,-4.5113,-4.523,-4.5441,-4.5468,-4.5632,-4.5887,-4.6062,-4.6259,-4.6447,-4.6684,-4.6842,-4.698,-4.7201,-4.7334,-4.7381,-4.7446,-4.7529,-4.7593,-4.7657,-4.7678,-4.7699,-4.7699,-4.7699,-4.7699,-4.7699,-4.7699,-4.7699,-4.7699,-4.7699,-4.7699,-4.7738,-4.7759,-4.7822,-4.7902,-4.7947,-4.7988,-4.8068,-4.8207,-4.8304,-4.8476,-4.8767,-4.9075,-4.9305,-4.9457,-4.9625,-4.9783,-4.9879,-4.9973,-5.0063,-5.0089,-4.8848,-4.8923,-4.8316,-4.7567,-4.6672,-4.5874,-4.5156,-4.4648,-4.4518,-4.4458,-4.4496,-4.4632,-4.4865,-4.5089,-4.52,-4.5363,-4.5505,-4.5505,-4.5505,-4.5049,-4.4232,-4.3509,-4.2956,-4.2061,-4.1323,-4.1339,-4.1323,-4.1341,-4.1507,-4.1802,-4.2093,-4.2349,-4.2349,-4.2333,-4.2412,-4.2586,-4.2759,-4.3023,-4.3176,-4.3388,-4.3539,-4.3552,-4.3568,-4.3598,-4.3615,-4.3615,-4.3615,-4.3598,-4.3704,-4.3898,-4.4015,-4.4126,-4.431,-4.444,-4.4542,-4.457,-4.4598,-4.4598,-4.4598,-4.4598,-4.4598,-4.4598,-4.4598,-4.4654,-4.4737,-4.4858,-4.4951,-4.5113,-4.5096,-4.5257,-4.5468,-4.5606,-4.5786,-4.6013,-4.6277,-4.6405,-4.6572,-4.6778,-4.698,-4.707,-4.716,-4.7356,-4.7443,-4.7572,-4.7636,-4.7678,-4.7699,-4.7699,-4.7699,-4.7699,-4.7699,-4.7699,-4.7699,-4.7699,-4.7699,-4.7699,-4.7699,-4.7717,-4.7801,-4.7822,-4.7845,-4.7907,-4.8046,-4.8128,-4.8189,-4.8307,-4.8569,-4.8872,-4.9144,-4.9302,-4.9457,-4.9596,-4.9712,-4.9838,-4.9973,-4.7369,-4.7143,-4.6877,-4.6256,-4.5399,-4.471,-4.4289,-4.4073,-4.405,-4.4065,-4.405,-4.4205,-4.4305,-4.4419,-4.4556,-4.4685,-4.4685,-4.4685,-4.4723,-4.4275,-4.3358,-4.2762,-4.2206,-4.148,-4.0627,-4.0627,-4.0662,-4.0662,-4.0627,-4.0799,-4.1189,-4.1588,-4.1606,-4.1638,-4.1737,-4.1948,-4.2381,-4.2665,-4.2852,-4.3068,-4.3281,-4.3402,-4.3462,-4.3568,-4.3598,-4.3615,-4.3615,-4.3615,-4.3674,-4.3868,-4.3927,-4.4056,-4.4224,-4.4338,-4.444,-4.457,-4.4598,-4.4598,-4.4598,-4.4598,-4.4598,-4.4598,-4.4598,-4.4598,-4.4654,-4.4626,-4.4692,-4.4803,-4.4814,-4.4951,-4.5123,-4.5257,-4.5372,-4.5606,-4.5837,-4.5938,-4.6112,-4.6308,-4.6495,-4.6678,-4.6819,-4.698,-4.7178,-4.7294,-4.7529,-4.7593,-4.7699,-4.7699,-4.7699,-4.7699,-4.7699,-4.7699,-4.7699,-4.7699,-4.7699,-4.7699,-4.7699,-4.7699,-4.7738,-4.7759,-4.7741,-4.7822,-4.7904,-4.7945,-4.8008,-4.8012,-4.8093,-4.8458,-4.8749,-4.8957,-4.9125,-4.9255,-4.9446,-4.9596,-4.975,-4.5908,-4.5337,-4.5243,-4.5082,-4.4849,-4.405,-4.366,-4.3566,-4.3581,-4.3566,-4.3581,-4.366,-4.3778,-4.391,-4.3988,-4.4127,-4.4205,-4.4258,-4.4243,-4.38,-4.3006,-4.2297,-4.1717,-4.1015,-4.0207,-4.0207,-4.0191,-4.0207,-4.0207,-4.0207,-4.0296,-4.0593,-4.0817,-4.0885,-4.1021,-4.1323,-4.1818,-4.2238,-4.2445,-4.2634,-4.3007,-4.319,-4.3312,-4.3479,-4.3582,-4.3598,-4.3615,-4.3615,-4.3674,-4.3734,-4.3822,-4.3981,-4.4155,-4.4224,-4.4367,-4.4542,-4.457,-4.4598,-4.4598,-4.4598,-4.4598,-4.4598,-4.4598,-4.4598,-4.4598,-4.4598,-4.4598,-4.4637,-4.4581,-4.4648,-4.4886,-4.4852,-4.4872,-4.5213,-4.5415,-4.5477,-4.5606,-4.5768,-4.5895,-4.5995,-4.6284,-4.6518,-4.6754,-4.698,-4.7272,-4.7511,-4.7615,-4.7699,-4.7699,-4.7699,-4.7699,-4.7699,-4.7699,-4.7699,-4.7699,-4.7699,-4.7699,-4.7699,-4.7699,-4.7699,-4.7699,-4.7699,-4.7801,-4.7822,-4.7842,-4.7907,-4.801,-4.8151,-4.8382,-4.8605,-4.8803,-4.8906,-4.9108,-4.9318,-4.9503,-4.4914,-4.4317,-4.4052,-4.4113,-4.4173,-4.3564,-4.3305,-4.3305,-4.3305,-4.3305,-4.3305,-4.3305,-4.3384,-4.3557,-4.3596,-4.3675,-4.3778,-4.3793,-4.3793,-4.3279,-4.2538,-4.1919,-4.1382,-4.0649,-3.9818,-3.9818,-3.9818,-3.9818,-3.9833,-3.9818,-3.9854,-3.9945,-4.0051,-4.0176,-4.0455,-4.0696,-4.1156,-4.1654,-4.1883,-4.2158,-4.2602,-4.2836,-4.3037,-4.3237,-4.3402,-4.3522,-4.3539,-4.3568,-4.3615,-4.3658,-4.3717,-4.3864,-4.401,-4.4184,-4.4327,-4.4468,-4.457,-4.4598,-4.4598,-4.4598,-4.4598,-4.4598,-4.4598,-4.4598,-4.4598,-4.4542,-4.4497,-4.4468,-4.4384,-4.4355,-4.4609,-4.4463,-4.4502,-4.4797,-4.4835,-4.4917,-4.5035,-4.5196,-4.5249,-4.5354,-4.5641,-4.592,-4.6235,-4.6501,-4.703,-4.732,-4.7533,-4.7636,-4.7699,-4.7699,-4.7699,-4.7699,-4.7699,-4.7699,-4.7699,-4.7699,-4.7699,-4.7699,-4.7699,-4.7699,-4.7699,-4.7699,-4.7699,-4.7741,-4.778,-4.784,-4.7884,-4.7949,-4.811,-4.8323,-4.8458,-4.8623,-4.882,-4.9025,-4.9225,-4.4317,-4.4242,-4.3589,-4.3349,-4.3434,-4.3319,-4.3305,-4.3305,-4.3305,-4.3305,-4.3305,-4.3305,-4.3305,-4.3329,-4.3384,-4.3423,-4.3423,-4.3423,-4.3364,-4.2998,-4.2136,-4.155,-4.095,-4.0216,-3.9532,-3.9424,-3.9496,-3.9532,-3.9475,-3.9532,-3.9496,-3.9496,-3.9604,-3.9732,-3.9996,-4.0126,-4.0528,-4.1055,-4.1241,-4.1621,-4.2045,-4.2397,-4.2665,-4.2852,-4.3207,-4.3328,-4.3342,-4.3509,-4.3539,-4.3568,-4.3628,-4.3747,-4.391,-4.4027,-4.4184,-4.4338,-4.4497,-4.457,-4.4598,-4.4598,-4.4598,-4.457,-4.457,-4.4542,-4.4542,-4.444,-4.4327,-4.4327,-4.4184,-4.4126,-4.4126,-4.4126,-4.4253,-4.4367,-4.4406,-4.4463,-4.4586,-4.4642,-4.4752,-4.4835,-4.5008,-4.5214,-4.5589,-4.5995,-4.6649,-4.708,-4.7385,-4.7533,-4.7636,-4.7657,-4.7657,-4.7699,-4.7699,-4.7699,-4.7699,-4.7699,-4.7699,-4.7699,-4.7699,-4.7699,-4.7699,-4.7699,-4.7699,-4.7699,-4.7738,-4.7759,-4.7738,-4.772,-4.7907,-4.8068,-4.8209,-4.8364,-4.8569,-4.8714,-4.889,-4.3633,-4.3604,-4.3379,-4.3305,-4.3305,-4.3305,-4.3305,-4.3305,-4.3305,-4.3305,-4.3305,-4.3305,-4.3305,-4.3305,-4.3305,-4.3305,-4.3305,-4.329,-4.3185,-4.2581,-4.1728,-4.116,-4.0576,-3.9978,-3.9403,-3.9388,-3.9388,-3.9388,-3.9424,-3.9388,-3.9388,-3.9388,-3.9424,-3.9553,-3.9732,-3.9879,-4.0091,-4.0459,-4.0665,-4.0987,-4.1456,-4.1866,-4.2206,-4.2381,-4.2806,-4.3054,-4.3068,-4.3267,-4.3432,-4.3462,-4.3492,-4.3687,-4.3839,-4.3956,-4.4085,-4.4224,-4.4395,-4.4468,-4.4525,-4.4598,-4.4598,-4.457,-4.4485,-4.444,-4.4367,-4.427,-4.4184,-4.4126,-4.4039,-4.4027,-4.4085,-4.3998,-4.4068,-4.4155,-4.4196,-4.4212,-4.4281,-4.4281,-4.431,-4.4367,-4.4491,-4.4845,-4.5196,-4.5433,-4.6003,-4.6531,-4.6835,-4.7276,-4.7468,-4.7533,-4.7554,-4.7657,-4.7699,-4.7699,-4.7699,-4.7657,-4.7678,-4.7699,-4.7699,-4.7699,-4.7699,-4.7699,-4.7699,-4.7699,-4.7699,-4.7699,-4.7699,-4.7699,-4.772,-4.7827,-4.7992,-4.8111,-4.8229,-4.8401,-4.8532,-4.3305,-4.3305,-4.3305,-4.3305,-4.3305,-4.3305,-4.3305,-4.3305,-4.3305,-4.3305,-4.3305,-4.3305,-4.3305,-4.3305,-4.3305,-4.3305,-4.3275,-4.306,-4.291,-4.2276,-4.1414,-4.0876,-4.0307,-3.9753,-3.9448,-3.9388,-3.9388,-3.9388,-3.9388,-3.9388,-3.9388,-3.9388,-3.9388,-3.9481,-3.9553,-3.9661,-3.9753,-4.0021,-4.0246,-4.0489,-4.0885,-4.1256,-4.1637,-4.1883,-4.2238,-4.2602,-4.2744,-4.2961,-4.3267,-4.3312,-4.3432,-4.3598,-4.3763,-4.3898,-4.3969,-4.4126,-4.4265,-4.4338,-4.444,-4.4468,-4.4468,-4.4468,-4.4367,-4.4265,-4.4224,-4.4114,-4.4056,-4.3998,-4.3881,-4.3881,-4.391,-4.3822,-4.3881,-4.3952,-4.3952,-4.3952,-4.3952,-4.3952,-4.3952,-4.401,-4.4126,-4.4446,-4.4763,-4.4981,-4.5284,-4.5802,-4.6266,-4.6719,-4.7209,-4.7338,-4.7403,-4.7511,-4.7572,-4.7554,-4.7572,-4.7615,-4.7636,-4.7678,-4.7678,-4.7678,-4.7699,-4.7699,-4.7699,-4.7699,-4.7699,-4.7699,-4.7699,-4.7699,-4.772,-4.7741,-4.7806,-4.7888,-4.7968,-4.8108,-4.8265,-4.3305,-4.3305,-4.3305,-4.3305,-4.3305,-4.3305,-4.3305,-4.3305,-4.3305,-4.3305,-4.3305,-4.3305,-4.3305,-4.3305,-4.3305,-4.3245,-4.315,-4.2695,-4.2351,-4.1931,-4.0995,-4.0546,-4.0142,-3.9709,-3.9448,-3.9388,-3.9388,-3.9388,-3.9388,-3.9388,-3.9388,-3.9388,-3.9388,-3.9424,-3.946,-3.9445,-3.9553,-3.9732,-3.993,-4.0106,-4.037,-4.0783,-4.1021,-4.129,-4.1638,-4.198,-4.2206,-4.2523,-4.2852,-4.3068,-4.3281,-4.3449,-4.3598,-4.3793,-4.3868,-4.3969,-4.4167,-4.4253,-4.431,-4.431,-4.4298,-4.427,-4.4253,-4.4212,-4.4097,-4.3969,-4.3881,-4.3852,-4.3763,-4.3704,-4.3645,-4.3645,-4.3674,-4.3658,-4.3674,-4.3674,-4.3674,-4.3674,-4.3674,-4.3734,-4.3822,-4.4051,-4.431,-4.4519,-4.4752,-4.5072,-4.5528,-4.5978,-4.6442,-4.7025,-4.7138,-4.7276,-4.732,-4.7363,-4.7403,-4.7464,-4.7551,-4.7593,-4.7636,-4.7639,-4.7678,-4.7699,-4.7699,-4.7699,-4.7699,-4.7699,-4.7699,-4.7699,-4.7699,-4.772,-4.7741,-4.7762,-4.7845,-4.7947,-4.8108,-4.3305,-4.3305,-4.3305,-4.3305,-4.3305,-4.3305,-4.3305,-4.3305,-4.3305,-4.3305,-4.3305,-4.3305,-4.3305,-4.3305,-4.329,-4.3045,-4.2716,-4.2366,-4.1683,-4.11,-4.0561,-4.0142,-3.9798,-3.9529,-3.9388,-3.9388,-3.9388,-3.9388,-3.9388,-3.9388,-3.9388,-3.9388,-3.9388,-3.9388,-3.9388,-3.9388,-3.946,-3.9517,-3.9696,-3.9788,-3.9915,-4.0301,-4.0439,-4.0665,-4.1088,-4.1374,-4.1606,-4.2029,-4.2397,-4.2728,-4.3021,-4.3235,-4.3432,-4.3598,-4.3734,-4.3898,-4.4039,-4.4155,-4.4138,-4.4138,-4.4126,-4.4056,-4.4027,-4.3981,-4.391,-4.3822,-4.3734,-4.3704,-4.3674,-4.3645,-4.3615,-4.3615,-4.3615,-4.3615,-4.3615,-4.3615,-4.3615,-4.3615,-4.3615,-4.3645,-4.3734,-4.3793,-4.401,-4.4068,-4.4293,-4.453,-4.4828,-4.5241,-4.5751,-4.6339,-4.6754,-4.6898,-4.7053,-4.7075,-4.7205,-4.7267,-4.7399,-4.7508,-4.7533,-4.7597,-4.7657,-4.7696,-4.7678,-4.7699,-4.7699,-4.7699,-4.7699,-4.7699,-4.7699,-4.7699,-4.772,-4.772,-4.7759,-4.7845,-4.7945,-4.3305,-4.3305,-4.3305,-4.3305,-4.3305,-4.3305,-4.3305,-4.3305,-4.3305,-4.3305,-4.3305,-4.3305,-4.3305,-4.323,-4.306,-4.2731,-4.2425,-4.1722,-4.1085,-4.0696,-4.0157,-3.9813,-3.9478,-3.9388,-3.9388,-3.9388,-3.9388,-3.9388,-3.9388,-3.9388,-3.9388,-3.9388,-3.9388,-3.9388,-3.9388,-3.9388,-3.9388,-3.9445,-3.9502,-3.9538,-3.9681,-3.9844,-3.995,-4.0126,-4.0543,-4.0783,-4.1021,-4.1507,-4.1948,-4.2334,-4.2649,-4.3007,-4.319,-4.3372,-4.3598,-4.3763,-4.3939,-4.3998,-4.4027,-4.401,-4.3969,-4.3898,-4.3839,-4.3793,-4.3747,-4.3687,-4.3628,-4.3645,-4.3615,-4.3615,-4.3615,-4.3615,-4.3615,-4.3615,-4.3615,-4.3615,-4.3615,-4.3615,-4.3615,-4.3615,-4.3645,-4.3658,-4.3717,-4.3763,-4.3852,-4.4126,-4.4378,-4.468,-4.5205,-4.5819,-4.6193,-4.6435,-4.6637,-4.6795,-4.6888,-4.702,-4.7201,-4.7356,-4.749,-4.7533,-4.7615,-4.7675,-4.7696,-4.7678,-4.7699,-4.7699,-4.7678,-4.7699,-4.7699,-4.7699,-4.7699,-4.7699,-4.7717,-4.7759,-4.7822,-4.3305,-4.3305,-4.3305,-4.3305,-4.3305,-4.3305,-4.3305,-4.3305,-4.3305,-4.3305,-4.3305,-4.3305,-4.3245,-4.306,-4.2701,-4.2321,-4.1796,-4.1055,-4.0591,-4.0307,-3.9798,-3.9448,-3.9433,-3.9388,-3.9388,-3.9388,-3.9388,-3.9388,-3.9388,-3.9388,-3.9388,-3.9388,-3.9388,-3.9388,-3.9388,-3.9388,-3.9388,-3.9424,-3.9424,-3.946,-3.9481,-3.9589,-3.9696,-3.9753,-4.0021,-4.0301,-4.0543,-4.0953,-4.1423,-4.1834,-4.227,-4.2619,-4.2976,-4.3251,-4.3432,-4.3598,-4.3793,-4.3822,-4.3852,-4.3852,-4.3852,-4.3793,-4.3704,-4.3674,-4.3628,-4.3628,-4.3615,-4.3615,-4.3615,-4.3615,-4.3615,-4.3615,-4.3615,-4.3615,-4.3615,-4.3615,-4.3615,-4.3615,-4.3615,-4.3615,-4.3615,-4.3628,-4.3628,-4.3704,-4.3704,-4.3881,-4.4056,-4.431,-4.4642,-4.5249,-4.5641,-4.592,-4.6161,-4.635,-4.6495,-4.6637,-4.6929,-4.7133,-4.7294,-4.7446,-4.7468,-4.7572,-4.7675,-4.7636,-4.7636,-4.7657,-4.7678,-4.7678,-4.7699,-4.7699,-4.7699,-4.7699,-4.7717,-4.7717,-4.7738,-4.3305,-4.3305,-4.3305,-4.3305,-4.3305,-4.3305,-4.3305,-4.3305,-4.3305,-4.326,-4.329,-4.3245,-4.3015,-4.2551,-4.2366,-4.1871,-4.0935,-4.0576,-4.0127,-3.9843,-3.9433,-3.9388,-3.9388,-3.9388,-3.9388,-3.9388,-3.9388,-3.9388,-3.9388,-3.9388,-3.9388,-3.9388,-3.9388,-3.9388,-3.9388,-3.9388,-3.9388,-3.9388,-3.9388,-3.9388,-3.9424,-3.9424,-3.9496,-3.9553,-3.9732,-3.9945,-4.0191,-4.0489,-4.0953,-4.1439,-4.1817,-4.2381,-4.3021,-4.3251,-4.3432,-4.3582,-4.3674,-4.3687,-4.3687,-4.3704,-4.3704,-4.3704,-4.3645,-4.3615,-4.3615,-4.3615,-4.3615,-4.3615,-4.3615,-4.3615,-4.3615,-4.3615,-4.3615,-4.3615,-4.3615,-4.3615,-4.3615,-4.3615,-4.3615,-4.3615,-4.3615,-4.3615,-4.3615,-4.3615,-4.3628,-4.3734,-4.3852,-4.4039,-4.4167,-4.4586,-4.5025,-4.5354,-4.5658,-4.5862,-4.6038,-4.6259,-4.6542,-4.6819,-4.6985,-4.7165,-4.7302,-4.7407,-4.7511,-4.7533,-4.7551,-4.7593,-4.7636,-4.7696,-4.7696,-4.7699,-4.7699,-4.7699,-4.7699,-4.7717,-4.7717,-4.3305,-4.3305,-4.3305,-4.3305,-4.3305,-4.3305,-4.3305,-4.3245,-4.303,-4.291,-4.2895,-4.2851,-4.2536,-4.1916,-4.1677,-4.1294,-4.0382,-4.0083,-3.9798,-3.9478,-3.9388,-3.9388,-3.9388,-3.9388,-3.9388,-3.9388,-3.9388,-3.9388,-3.9388,-3.9388,-3.9388,-3.9388,-3.9388,-3.9388,-3.9388,-3.9388,-3.9388,-3.9388,-3.9388,-3.9388,-3.9388,-3.9388,-3.9388,-3.946,-3.9532,-3.9711,-3.9874,-4.0156,-4.0489,-4.0987,-4.1472,-4.2125,-4.2696,-4.3054,-4.3281,-4.3432,-4.3568,-4.3615,-4.3598,-4.3568,-4.3568,-4.3568,-4.3598,-4.3598,-4.3615,-4.3615,-4.3615,-4.3615,-4.3615,-4.3615,-4.3615,-4.3615,-4.3615,-4.3615,-4.3615,-4.3615,-4.3615,-4.3615,-4.3615,-4.3615,-4.3615,-4.3615,-4.3615,-4.3615,-4.3645,-4.3645,-4.3763,-4.3852,-4.3952,-4.4068,-4.448,-4.4797,-4.5106,-4.5372,-4.5555,-4.5837,-4.6154,-4.6423,-4.6684,-4.6967,-4.7191,-4.7258,-4.7323,-4.7363,-4.7425,-4.749,-4.7551,-4.7593,-4.7678,-4.7678,-4.7699,-4.7699,-4.7699,-4.7699,-4.7699,-4.3305,-4.3305,-4.3305,-4.3305,-4.3275,-4.3185,-4.3155,-4.3075,-4.2521,-4.2216,-4.2081,-4.2096,-4.1728,-4.122,-4.0726,-4.0472,-4.0157,-3.9783,-3.9484,-3.9403,-3.9388,-3.9388,-3.9388,-3.9388,-3.9388,-3.9388,-3.9388,-3.9388,-3.9388,-3.9388,-3.9388,-3.9388,-3.9388,-3.9388,-3.9388,-3.9388,-3.9388,-3.9388,-3.9388,-3.9388,-3.9388,-3.9388,-3.9388,-3.9388,-3.9424,-3.9496,-3.9661,-3.9874,-4.0121,-4.0593,-4.1156,-4.1818,-4.2381,-4.2744,-4.3023,-4.3221,-4.3402,-4.3462,-4.3492,-4.3462,-4.3492,-4.3509,-4.3539,-4.3539,-4.3539,-4.3568,-4.3568,-4.3615,-4.3615,-4.3615,-4.3615,-4.3615,-4.3615,-4.3615,-4.3615,-4.3615,-4.3615,-4.3615,-4.3615,-4.3615,-4.3615,-4.3615,-4.3615,-4.3615,-4.3615,-4.3615,-4.3645,-4.375,-4.3839,-4.3939,-4.4155,-4.4395,-4.4631,-4.4852,-4.5052,-4.5398,-4.576,-4.6013,-4.6308,-4.6719,-4.7035,-4.7012,-4.708,-4.7232,-4.7276,-4.7298,-4.7385,-4.7468,-4.7554,-4.7618,-4.7618,-4.7636,-4.7699,-4.7699,-4.7699,-4.3305,-4.3305,-4.3305,-4.329,-4.3185,-4.2776,-4.259,-4.247,-4.1848,-4.1294,-4.0965,-4.0801,-4.0651,-4.0591,-4.0502,-4.0217,-3.9753,-3.9418,-3.9418,-3.9388,-3.9388,-3.9388,-3.9388,-3.9388,-3.9388,-3.9388,-3.9388,-3.9388,-3.9388,-3.9388,-3.9388,-3.9388,-3.9388,-3.9388,-3.9388,-3.9388,-3.9388,-3.9388,-3.9388,-3.9388,-3.9388,-3.9388,-3.9388,-3.9388,-3.9388,-3.9424,-3.9532,-3.9661,-3.9874,-4.0261,-4.0851,-4.1489,-4.1996,-4.2397,-4.2696,-4.2945,-4.3129,-4.3174,-4.3204,-4.3204,-4.3221,-4.3204,-4.3204,-4.3281,-4.3312,-4.3402,-4.3479,-4.3568,-4.3598,-4.3615,-4.3615,-4.3615,-4.3615,-4.3615,-4.3615,-4.3615,-4.3615,-4.3615,-4.3615,-4.3615,-4.3615,-4.3615,-4.3615,-4.3615,-4.3615,-4.3615,-4.3615,-4.3674,-4.3704,-4.3793,-4.3898,-4.4056,-4.4241,-4.4395,-4.4586,-4.5015,-4.5363,-4.5606,-4.5912,-4.6291,-4.6531,-4.6661,-4.6754,-4.6921,-4.7053,-4.7098,-4.7187,-4.732,-4.7407,-4.749,-4.7493,-4.7554,-4.7636,-4.7678,-4.7657]},{"header":{"parameterUnit":"m.s-1","parameterCategory":1,"la1":31.0,"la2":29.5877,"lo1":-88.7671,"lo2":-86.6584,"dy":0.0162,"dx":0.0185,"nx":115,"ny":88,"refTime":"2024-04-28T12:00:00:Z","depth":0,"parameterNumber":3,"parameterNumberName":"V-component_of_WINDS"},"data":[0.0,0.0,0.0,0.0,0.0,0.0,0.0,0.0,0.0,0.0,0.0,0.0,0.0,0.0,0.0,0.0,0.0,0.0,0.0,0.0,0.0,0.0,0.0,0.0,0.0,0.0,0.0,0.0,0.0,0.0,0.0,0.0,0.0,0.0,0.0,0.0,0.0,0.0,0.0,0.0,0.0,0.0,0.0,0.0,0.0,0.0,0.0,0.0,0.0,0.0,0.0,0.0,0.0,0.0,0.0,0.0,0.0,0.0,0.0,0.0,0.0,0.0,0.0,0.0,0.0,0.0,0.0,0.0,0.0,0.0,0.0,0.0,0.0,0.0,0.0,0.0,0.0,0.0,0.0,0.0,0.0,0.0,0.0,0.0,0.0,0.0,0.0,0.0,0.0,0.0,0.0,0.0,0.0,0.0,0.0,0.0,0.0,0.0,0.0,0.0,0.0,0.0,0.0,0.0,0.0,0.0,0.0,0.0,0.0,0.0,0.0,0.0,0.0,0.0,0.0,0.0,0.0,0.0,0.0,0.0,0.0,0.0,0.0,0.0,0.0,0.0,0.0,0.0,0.0,0.0,0.0,0.0,0.0,0.0,0.0,0.0,0.0,0.0,0.0,0.0,0.0,0.0,0.0,0.0,0.0,0.0,0.0,0.0,0.0,0.0,0.0,0.0,0.0,0.0,0.0,0.0,0.0,0.0,0.0,0.0,0.0,0.0,0.0,0.0,0.0,0.0,0.0,0.0,0.0,0.0,0.0,0.0,0.0,0.0,0.0,0.0,0.0,0.0,0.0,0.0,0.0,0.0,0.0,0.0,0.0,0.0,0.0,0.0,0.0,0.0,0.0,0.0,0.0,0.0,0.0,0.0,0.0,0.0,0.0,0.0,0.0,0.0,0.0,0.0,0.0,0.0,0.0,0.0,0.0,0.0,0.0,0.0,0.0,0.0,0.0,0.0,0.0,0.0,0.0,0.0,0.0,0.0,0.0,0.0,0.0,0.0,0.0,0.0,0.0,0.0,0.0,0.0,0.0,0.0,0.0,0.0,0.0,0.0,0.0,0.0,0.0,0.0,0.0,0.0,0.0,0.0,0.0,0.0,0.0,0.0,0.0,0.0,0.0,0.0,0.0,0.0,0.0,0.0,0.0,0.0,0.0,0.0,0.0,0.0,0.0,0.0,0.0,0.0,0.0,0.0,0.0,0.0,0.0,0.0,0.0,0.0,0.0,0.0,0.0,0.0,0.0,0.0,0.0,0.0,0.0,0.0,0.0,0.0,0.0,0.0,0.0,0.0,0.0,0.0,0.0,0.0,0.0,0.0,0.0,0.0,0.0,0.0,0.0,0.0,0.0,0.0,0.0,0.0,0.0,0.0,0.0,0.0,0.0,0.0,0.0,0.0,0.0,0.0,0.0,0.0,0.0,0.0,0.0,0.0,0.0,0.0,0.0,0.0,0.0,0.0,0.0,0.0,0.0,0.0,0.0,0.0,0.0,0.0,0.0,0.0,0.0,0.0,0.0,0.0,0.0,0.0,0.0,0.0,0.0,0.0,0.0,0.0,0.0,0.0,0.0,0.0,0.0,0.0,0.0,0.0,0.0,0.0,0.0,0.0,0.0,0.0,0.0,0.0,0.0,0.0,0.0,0.0,0.0,0.0,0.0,0.0,0.0,0.0,0.0,0.0,0.0,0.0,0.0,0.0,0.0,0.0,0.0,0.0,0.0,0.0,0.0,0.0,0.0,0.0,0.0,0.0,0.0,0.0,0.0,0.0,0.0,0.0,0.0,0.0,0.0,0.0,0.0,0.0,0.0,0.0,0.0,0.0,0.0,0.0,0.0,0.0,0.0,0.0,0.0,0.0,0.0,0.0,0.0,0.0,0.0,0.0,0.0,0.0,0.0,0.0,0.0,0.0,0.0,0.0,0.0,0.0,0.0,0.0,0.0,0.0,0.0,0.0,0.0,0.0,0.0,0.0,0.0,0.0,0.0,0.0,0.0,0.0,0.0,0.0,0.0,0.0,0.0,0.0,0.0,0.0,0.0,0.0,0.0,0.0,0.0,0.0,0.0,0.0,0.0,0.0,0.0,0.0,0.0,0.0,0.0,0.0,0.0,0.0,0.0,0.0,0.0,0.0,0.0,0.0,0.0,0.0,0.0,0.0,0.0,0.0,0.0,0.0,0.0,0.0,0.0,0.0,0.0,0.0,0.0,0.0,0.0,0.0,0.0,0.0,0.0,0.0,0.0,0.0,0.0,0.0,0.0,0.0,0.0,0.0,0.0,0.0,0.0,0.0,0.0,0.0,0.0,0.0,0.0,0.0,0.0,0.0,0.0,0.0,0.0,0.0,0.0,0.0,0.0,0.0,0.0,0.0,0.0,0.0,0.0,0.0,0.0,0.0,0.0,0.0,0.0,0.0,0.0,0.0,0.0,0.0,0.0,0.0,0.0,0.0,0.0,0.0,0.0,0.0,0.0,0.0,0.0,0.0,0.0,0.0,0.0,0.0,0.0,0.0,0.0,0.0,0.0,0.0,0.0,0.0,0.0,0.0,0.0,0.0,0.0,0.0,0.0,0.0,0.0,0.0,0.0,0.0,0.0,0.0,0.0,0.0,0.0,0.0,0.0,0.0,0.0,0.0,0.0,0.0,0.0,0.0,0.0,0.0,0.0,0.0,0.0,0.0,0.0,0.0,0.0,0.0,0.0,0.0,0.0,0.0,0.0,0.0,0.0,0.0,0.0,0.0,0.0,0.0,0.0,0.0,0.0,0.0,0.0,0.0,0.0,0.0,0.0,0.0,0.0,0.0,0.0,0.0,0.0,0.0,0.0,0.0,0.0,0.0,0.0,0.0,0.0,0.0,0.0,0.0,0.0,0.0,0.0,0.0,0.0,0.0,0.0,0.0,0.0,0.0,0.0,0.0,0.0,0.0,0.0,0.0,0.0,0.0,0.0,0.0,0.0,0.0,0.0,0.0,0.0,0.0,0.0,0.0,0.0,0.0,0.0,0.0,0.0,0.0,0.0,0.0,0.0,0.0,0.0,0.0,0.0,0.0,0.0,0.0,0.0,0.0,0.0,0.0,0.0,0.0,0.0,0.0,0.0,0.0,0.0,0.0,0.0,0.0,0.0,0.0,0.0,0.0,0.0,0.0,0.0,0.0,0.0,0.0,0.0,0.0,0.0,0.0,0.0,0.0,0.0,0.0,0.0,0.0,0.0,0.0,0.0,0.0,0.0,0.0,0.0,0.0,0.0,0.0,0.0,0.0,0.0,0.0,0.0,0.0,0.0,0.0,0.0,0.0,0.0,0.0,0.0,0.0,0.0,0.0,0.0,0.0,0.0,0.0,0.0,0.0,0.0,0.0,0.0,0.0,0.0,0.0,0.0,0.0,0.0,0.0,0.0,0.0,0.0,0.0,0.0,0.0,0.0,0.0,0.0,0.0,0.0,0.0,0.0,0.0,0.0,0.0,0.0,0.0,0.0,0.0,0.0,0.0,0.0,0.0,0.0,0.0,0.0,0.0,0.0,0.0,0.0,0.0,0.0,0.0,0.0,0.0,0.0,0.0,0.0,0.0,0.0,0.0,0.0,0.0,0.0,0.0,0.0,0.0,0.0,0.0,0.0,0.0,0.0,0.0,0.0,0.0,0.0,0.0,0.0,0.0,0.0,0.0,0.0,0.0,0.0,0.0,0.0,0.0,0.0,0.0,0.0,0.0,0.0,0.0,0.0,0.0,0.0,0.0,0.0,0.0,0.0,0.0,0.0,0.0,0.0,0.0,0.0,0.0,0.0,0.0,0.0,0.0,0.0,0.0,0.0,0.0,0.0,0.0,0.0,0.0,0.0,0.0,0.0,0.0,0.0,0.0,0.0,0.0,0.0,0.0,0.0,0.0,0.0,0.0,0.0,0.0,0.0,0.0,0.0,0.0,0.0,0.0,0.0,0.0,0.0,0.0,0.0,0.0,0.0,0.0,0.0,0.0,0.0,0.0,0.0,0.0,0.0,0.0,0.0,0.0,0.0,0.0,0.0,0.0,0.0,0.0,0.0,0.0,0.0,0.0,0.0,0.0,0.0,0.0,0.0,0.0,0.0,0.0,0.0,0.0,0.0,0.0,0.0,0.0,0.0,0.0,0.0,0.0,0.0,0.0,0.0,0.0,0.0,0.0,0.0,0.0,0.0,0.0,0.0,0.0,0.0,0.0,0.0,0.0,0.0,0.0,0.0,0.0,0.0,0.0,0.0,0.0,0.0,0.0,0.0,0.0,0.0,0.0,-0.7188,0.0,0.0,0.0,0.0,0.0,0.0,0.0,0.0,0.0,0.0,0.0,0.0,0.0,0.0,0.0,0.0,0.0,0.0,0.0,0.0,0.0,0.0,0.0,0.0,0.0,0.0,0.0,0.0,0.0,0.0,0.0,0.0,0.0,0.0,0.0,0.0,0.0,0.0,0.0,0.0,0.0,0.0,0.0,0.0,0.0,0.0,0.0,0.0,0.0,0.0,0.0,0.0,0.0,0.0,0.0,0.0,0.0,0.0,0.0,0.0,0.0,0.0,0.0,0.0,0.0,0.0,0.0,0.0,0.0,0.0,0.0,0.0,0.0,0.0,0.0,0.0,0.0,0.0,0.0,0.0,0.0,0.0,0.0,0.0,0.0,0.0,0.0,0.0,0.0,0.0,0.0,0.0,0.0,0.0,0.0,0.0,0.0,0.0,0.0,0.0,0.0,0.0,0.0,0.0,0.0,0.0,0.0,0.0,0.0,0.0,-0.5584,-0.5584,-0.6137,-0.6587,-0.6989,0.0,0.0,0.0,0.0,0.0,0.0,0.0,0.0,0.0,0.0,0.0,0.0,0.0,0.0,0.0,0.0,0.0,0.0,0.0,0.0,0.0,0.0,0.0,0.0,0.0,0.0,0.0,0.0,0.0,0.0,0.0,0.0,0.0,0.0,0.0,0.0,0.0,0.0,0.0,0.0,0.0,0.0,0.0,0.0,0.0,0.0,0.0,0.0,0.0,0.0,0.0,0.0,0.0,0.0,0.0,0.0,0.0,0.0,0.0,0.0,0.0,0.0,0.0,0.0,0.0,0.0,0.0,0.0,0.0,0.0,0.0,0.0,0.0,0.0,0.0,0.0,0.0,0.0,0.0,0.0,0.0,0.0,0.0,0.0,0.0,0.0,0.0,0.0,0.0,0.0,0.0,0.0,0.0,0.0,0.0,0.0,0.0,0.0,0.0,0.0,0.0,0.0,0.0,0.0,0.0,0.0,0.0,0.0,0.0,0.0,0.0,0.0,-0.6137,-0.6539,-0.6892,0.0,0.0,0.0,0.0,0.0,0.0,0.0,0.0,0.0,0.0,0.0,0.0,0.0,0.0,0.0,0.0,0.0,0.0,0.0,0.0,0.0,0.0,0.0,0.0,0.0,0.0,0.0,0.0,0.0,0.0,0.0,0.0,0.0,0.0,0.0,0.0,0.0,0.0,0.0,0.0,0.0,0.0,0.0,0.0,0.0,0.0,0.0,0.0,0.0,0.0,0.0,0.0,0.0,0.0,0.0,0.0,0.0,0.0,0.0,0.0,0.0,0.0,0.0,0.0,0.0,0.0,0.0,0.0,0.0,0.0,0.0,0.0,0.0,0.0,0.0,0.0,0.0,0.0,0.0,0.0,0.0,0.0,0.0,0.0,0.0,0.0,0.0,0.0,0.0,0.0,0.0,0.0,0.0,0.0,0.0,0.0,0.0,0.0,0.0,0.0,0.0,0.0,0.0,0.0,0.0,0.0,0.0,0.0,0.0,0.0,-0.5584,-0.5586,-0.6137,0.0,-0.7138,0.0,0.0,0.0,0.0,0.0,0.0,0.0,0.0,0.0,0.0,0.0,0.0,0.0,0.0,0.0,0.0,0.0,0.0,0.0,0.0,0.0,0.0,0.0,0.0,0.0,0.0,0.0,0.0,0.0,0.0,0.0,0.0,0.0,0.0,0.0,0.0,0.0,0.0,0.0,0.0,0.0,0.0,0.0,0.0,0.0,0.0,0.0,0.0,0.0,0.0,0.0,0.0,0.0,0.0,0.0,0.0,0.0,0.0,0.0,0.0,0.0,0.0,0.0,0.0,0.0,0.0,0.0,0.0,0.0,0.0,0.0,0.0,0.0,0.0,0.0,0.0,0.0,0.0,0.0,0.0,0.0,0.0,0.0,0.0,0.0,0.0,0.0,0.0,0.0,0.0,0.0,0.0,0.0,0.0,0.0,0.0,0.0,0.0,0.0,0.0,0.0,0.0,0.0,0.0,0.0,0.0,0.0,0.0,0.0,0.0,-0.5584,-0.5584,-0.6137,-0.6637,0.0,0.0,0.0,0.0,0.0,0.0,0.0,0.0,0.0,0.0,0.0,0.0,0.0,0.0,0.0,0.0,0.0,0.0,0.0,0.0,0.0,0.0,0.0,0.0,0.0,0.0,0.0,0.0,0.0,0.0,0.0,0.0,0.0,0.0,0.0,0.0,0.0,0.0,0.0,0.0,0.0,0.0,0.0,0.0,0.0,0.0,0.0,0.0,0.0,0.0,0.0,0.0,0.0,0.0,0.0,0.0,0.0,0.0,0.0,0.0,0.0,0.0,0.0,0.0,0.0,0.0,0.0,0.0,0.0,0.0,0.0,0.0,0.0,0.0,0.0,0.0,0.0,0.0,0.0,0.0,0.0,0.0,0.0,0.0,0.0,0.0,0.0,0.0,0.0,0.0,0.0,0.0,0.0,0.0,0.0,0.0,0.0,0.0,0.0,0.0,0.0,0.0,0.0,0.0,0.0,0.0,0.0,0.0,0.0,0.0,-0.4883,-0.5486,-0.5687,-0.6137,-0.6637,-0.7089,0.0,0.0,0.0,0.0,0.0,0.0,0.0,0.0,0.0,0.0,0.0,0.0,0.0,0.0,0.0,0.0,0.0,0.0,0.0,0.0,0.0,0.0,0.0,0.0,0.0,0.0,0.0,0.0,0.0,0.0,0.0,0.0,0.0,0.0,0.0,0.0,0.0,0.0,0.0,0.0,0.0,0.0,0.0,0.0,0.0,0.0,0.0,0.0,0.0,0.0,0.0,0.0,0.0,0.0,0.0,0.0,0.0,0.0,0.0,0.0,0.0,0.0,0.0,0.0,0.0,0.0,0.0,0.0,0.0,0.0,0.0,0.0,0.0,0.0,0.0,0.0,0.0,0.0,0.0,0.0,0.0,0.0,0.0,0.0,0.0,0.0,0.0,0.0,0.0,0.0,0.0,0.0,0.0,0.0,0.0,0.0,0.0,0.0,0.0,0.0,0.0,0.0,0.0,0.0,0.0,0.0,0.0,0.0,-0.3982,-0.4585,-0.5186,-0.5942,-0.6239,-0.6539,0.0,0.0,0.0,0.0,0.0,0.0,0.0,0.0,0.0,0.0,0.0,0.0,0.0,0.0,0.0,0.0,0.0,0.0,0.0,0.0,0.0,0.0,0.0,0.0,0.0,0.0,0.0,0.0,0.0,0.0,0.0,0.0,0.0,0.0,0.0,0.0,0.0,0.0,0.0,0.0,0.0,0.0,0.0,0.0,0.0,0.0,0.0,0.0,0.0,0.0,0.0,0.0,0.0,0.0,0.0,0.0,0.0,0.0,0.0,0.0,0.0,0.0,0.0,0.0,0.0,0.0,0.0,0.0,0.0,0.0,0.0,0.0,0.0,0.0,0.0,0.0,0.0,0.0,0.0,0.0,0.0,0.0,0.0,0.0,0.0,0.0,0.0,0.0,0.0,0.0,0.0,0.0,0.0,0.0,0.0,0.0,0.0,0.0,0.0,0.0,0.0,0.0,0.0,0.0,0.0,0.0,0.0,0.0,0.0,-0.4033,-0.4688,-0.5338,-0.5992,-0.6089,-0.6339,0.0,0.0,0.0,0.0,0.0,0.0,0.0,0.0,0.0,0.0,0.0,0.0,0.0,0.0,0.0,0.0,0.0,0.0,0.0,0.0,0.0,0.0,0.0,0.0,0.0,0.0,0.0,0.0,0.0,0.0,0.0,0.0,0.0,0.0,0.0,0.0,0.0,0.0,0.0,0.0,0.0,0.0,0.0,0.0,0.0,0.0,0.0,0.0,0.0,0.0,0.0,0.0,0.0,0.0,0.0,0.0,0.0,0.0,0.0,0.0,0.0,0.0,0.0,0.0,0.0,0.0,0.0,0.0,0.0,0.0,0.0,0.0,0.0,0.0,0.0,0.0,0.0,0.0,0.0,0.0,0.0,0.0,0.0,0.0,0.0,0.0,0.0,0.0,0.0,0.0,0.0,0.0,0.0,0.0,0.0,0.0,0.0,0.0,0.0,0.0,0.0,0.0,0.0,0.0,0.0,0.0,0.0,0.0,0.0,-0.3883,0.0,-0.519,-0.5589,-0.5691,-0.5992,0.0,0.0,0.0,0.0,0.0,0.0,0.0,0.0,0.0,0.0,0.0,0.0,0.0,0.0,0.0,0.0,0.0,0.0,0.0,0.0,0.0,0.0,0.0,0.0,0.0,0.0,0.0,0.0,0.0,0.0,0.0,0.0,0.0,0.0,0.0,0.0,0.0,0.0,0.0,0.0,0.0,0.0,0.0,0.0,0.0,0.0,0.0,0.0,0.0,0.0,0.0,0.0,0.0,0.0,0.0,0.0,0.0,0.0,0.0,0.0,0.0,0.0,0.0,0.0,0.0,0.0,0.0,0.0,0.0,0.0,0.0,0.0,0.0,0.0,0.0,0.0,0.0,0.0,0.0,0.0,0.0,0.0,0.0,0.0,0.0,0.0,0.0,0.0,0.0,0.0,0.0,0.0,0.0,0.0,0.0,0.0,0.0,0.0,0.0,0.0,0.0,0.0,0.0,0.0,0.0,0.0,0.0,0.0,-0.3082,-0.3589,-0.4145,-0.4551,-0.4788,-0.5048,-0.5448,0.0,0.0,0.0,0.0,0.0,0.0,0.0,0.0,0.0,0.0,0.0,0.0,0.0,0.0,0.0,0.0,0.0,0.0,0.0,0.0,0.0,0.0,0.0,0.0,0.0,0.0,0.0,0.0,0.0,0.0,0.0,0.0,0.0,0.0,0.0,0.0,0.0,0.0,0.0,0.0,0.0,0.0,0.0,0.0,0.0,0.0,0.0,0.0,0.0,0.0,0.0,0.0,0.0,0.0,0.0,0.0,0.0,0.0,0.0,0.0,0.0,0.0,0.0,0.0,0.0,0.0,0.0,0.0,0.0,0.0,0.0,0.0,0.0,0.0,0.0,0.0,0.0,0.0,0.0,0.0,0.0,0.0,0.0,0.0,0.0,0.0,0.0,0.0,0.0,0.0,0.0,0.0,0.0,0.0,0.0,0.0,0.0,0.0,0.0,0.0,0.0,0.0,0.0,0.0,0.0,0.0,0.0,0.0,0.0,-0.3719,-0.4085,-0.4398,-0.4655,-0.497,-0.5255,0.0,0.0,0.0,0.0,0.0,0.0,0.0,0.0,0.0,0.0,0.0,0.0,0.0,0.0,0.0,0.0,0.0,0.0,0.0,0.0,0.0,0.0,0.0,0.0,0.0,0.0,0.0,0.0,0.0,0.0,0.0,0.0,0.0,0.0,0.0,0.0,0.0,0.0,0.0,0.0,0.0,0.0,0.0,0.0,0.0,0.0,0.0,0.0,0.0,0.0,0.0,0.0,0.0,0.0,0.0,0.0,0.0,0.0,0.0,0.0,0.0,0.0,0.0,0.0,0.0,0.0,0.0,0.0,0.0,0.0,0.0,0.0,0.0,0.0,0.0,0.0,0.0,0.0,0.0,0.0,0.0,0.0,0.0,0.0,0.0,0.0,0.0,0.0,0.0,0.0,0.0,0.0,0.0,0.0,0.0,0.0,0.0,0.0,0.0,0.0,0.0,0.0,0.0,0.0,0.0,0.0,0.0,0.0,0.0,-0.3067,-0.3411,-0.3764,-0.4136,-0.4352,-0.4674,-0.5134,0.0,0.0,0.0,0.0,0.0,0.0,0.0,0.0,0.0,0.0,0.0,0.0,0.0,0.0,0.0,0.0,0.0,0.0,0.0,0.0,0.0,0.0,0.0,0.0,0.0,0.0,0.0,0.0,0.0,0.0,0.0,0.0,0.0,0.0,0.0,0.0,0.0,0.0,0.0,0.0,0.0,0.0,0.0,0.0,0.0,0.0,0.0,0.0,0.0,0.0,0.0,0.0,0.0,0.0,0.0,0.0,0.0,0.0,0.0,0.0,0.0,0.0,0.0,0.0,0.0,0.0,0.0,0.0,0.0,0.0,0.0,0.0,0.0,0.0,0.0,0.0,0.0,0.0,0.0,0.0,0.0,0.0,0.0,0.0,0.0,0.0,0.0,0.0,0.0,0.0,0.0,0.0,0.0,0.0,0.0,0.0,0.0,0.0,0.0,0.0,0.0,0.0,0.0,0.0,0.0,0.0,0.0,0.0,-0.1727,-0.2236,-0.2749,-0.3294,-0.3399,-0.3826,0.0,0.0,0.0,0.0,0.0,0.0,0.0,0.0,0.0,0.0,0.0,0.0,0.0,0.0,0.0,0.0,0.0,0.0,0.0,0.0,0.0,0.0,0.0,0.0,0.0,0.0,0.0,0.0,0.0,0.0,0.0,0.0,0.0,0.0,0.0,0.0,0.0,0.0,0.0,0.0,0.0,0.0,0.0,0.0,0.0,0.0,0.0,0.0,0.0,0.0,0.0,0.0,0.0,0.0,0.0,0.0,0.0,0.0,0.0,0.0,0.0,0.0,0.0,0.0,0.0,0.0,0.0,0.0,0.0,0.0,0.0,0.0,0.0,0.0,0.0,0.0,0.0,0.0,0.0,0.0,0.0,0.0,0.0,0.0,0.0,0.0,0.0,0.0,0.0,0.0,0.0,0.0,0.0,0.0,0.0,0.0,0.0,0.0,0.0,0.0,0.0,0.0,0.0,0.0,0.0,0.0,0.0,0.0,0.0,-0.1111,-0.1292,-0.1755,-0.254,-0.2968,-0.3348,0.0,0.0,0.0,0.0,0.0,0.0,0.0,0.0,0.0,0.0,0.0,0.0,0.0,0.0,0.0,0.0,0.0,0.0,0.0,0.0,0.0,0.0,0.0,0.0,0.0,0.0,0.0,0.0,0.0,0.0,0.0,0.0,0.0,0.0,0.0,0.0,0.0,0.0,0.0,0.0,0.0,0.0,0.0,0.0,0.0,0.0,0.0,0.0,0.0,0.0,0.0,0.0,0.0,0.0,0.0,0.0,0.0,0.0,0.0,0.0,0.0,0.0,0.0,0.0,0.0,0.0,0.0,0.0,0.0,0.0,0.0,0.0,0.0,0.0,0.0,0.0,0.0,0.0,0.0,0.0,0.0,0.0,0.0,0.0,0.0,0.0,0.0,0.0,0.0,0.0,0.0,0.0,0.0,0.0,0.0,0.0,0.0,0.0,0.0,0.0,0.0,0.0,0.0,0.0,0.0,0.0,0.0,0.0,-0.0522,-0.0535,-0.0544,-0.0846,-0.1487,-0.2166,-0.2801,0.0,0.0,0.0,0.0,0.0,0.0,0.0,0.0,0.0,0.0,0.0,0.0,0.0,0.0,0.0,0.0,0.0,0.0,0.0,0.0,0.0,0.0,0.0,0.0,0.0,0.0,0.0,0.0,0.0,0.0,0.0,0.0,0.0,0.0,0.0,0.0,0.0,0.0,0.0,0.0,0.0,0.0,0.0,0.0,0.0,0.0,0.0,0.0,0.0,0.0,0.0,0.0,0.0,0.0,0.0,0.0,0.0,0.0,0.0,0.0,0.0,0.0,0.0,0.0,0.0,0.0,0.0,0.0,0.0,0.0,0.0,0.0,0.0,0.0,0.0,0.0,0.0,0.0,0.0,0.0,0.0,0.0,0.0,0.0,0.0,0.0,0.0,0.0,0.0,0.0,0.0,0.0,0.0,0.0,0.0,0.0,0.0,0.0,0.0,0.0,0.0,0.0,0.0,0.0,0.0,0.0,0.0,0.0,0.0,0.0,0.0,-0.0123,-0.0422,-0.1248,-0.2086,0.0,0.0,0.0,0.0,0.0,0.0,0.0,0.0,0.0,0.0,0.0,0.0,0.0,0.0,0.0,0.0,0.0,0.0,0.0,0.0,0.0,0.0,0.0,0.0,0.0,0.0,0.0,0.0,0.0,0.0,0.0,0.0,0.0,0.0,0.0,0.0,0.0,0.0,0.0,0.0,0.0,0.0,0.0,0.0,0.0,0.0,0.0,0.0,0.0,0.0,0.0,0.0,0.0,0.0,0.0,0.0,0.0,0.0,0.0,0.0,0.0,0.0,0.0,0.0,0.0,0.0,0.0,0.0,0.0,0.0,0.0,0.0,0.0,0.0,0.0,0.0,0.0,0.0,0.0,0.0,0.0,0.0,0.0,0.0,0.0,0.0,0.0,0.0,0.0,0.0,0.0,0.0,0.0,0.0,0.0,0.0,0.0,0.0,0.0,0.0,0.0,0.0,0.0,0.0,0.0,0.0,0.0,0.0,0.0,0.0,0.0,-0.0061,-0.0121,-0.0772,-0.1384,0.0,0.0,0.0,0.0,0.0,0.0,0.0,0.0,0.0,0.0,0.0,0.0,0.0,0.0,0.0,0.0,0.0,0.0,0.0,0.0,0.0,0.0,0.0,0.0,0.0,0.0,0.0,0.0,0.0,0.0,0.0,0.0,0.0,0.0,0.0,0.0,0.0,0.0,0.0,0.0,0.0,0.0,0.0,0.0,0.0,0.0,0.0,0.0,-0.3118,0.0,0.0,0.0,0.0,0.0,0.0,0.0,0.0,0.0,0.0,0.0,0.0,0.0,0.0,0.0,0.0,0.0,0.0,0.0,0.0,0.0,0.0,0.0,0.0,0.0,0.0,0.0,0.0,0.0,0.0,0.0,0.0,0.0,0.0,0.0,0.0,0.0,0.0,0.0,0.0,0.0,0.0,0.0,0.0,0.0,0.0,0.0,0.0,0.0,0.0,0.0,0.0,0.0,0.0,0.0,0.0,0.0,0.0,0.0,0.0,0.0,0.0,0.0,0.0,-0.0296,-0.0751,0.0,0.0,0.0,0.0,0.0,0.0,0.0,0.0,0.0,0.0,0.0,0.0,0.0,0.0,0.0,0.0,0.0,0.0,0.0,0.0,0.0,0.0,0.0,0.0,0.0,0.0,0.0,0.0,0.0,0.0,0.0,0.0,0.0,0.0,0.0,0.0,0.0,0.0,0.0,0.0,0.0,0.0,0.0,0.0,0.0,0.0,0.0,0.0,0.0,0.0,0.0,0.0,0.0,0.0,0.0,0.0,0.0,0.0,0.0,0.0,0.0,0.0,0.0,0.0,0.0,0.0,0.0,0.0,0.0,0.0,0.0,0.0,0.0,0.0,0.0,0.0,0.0,0.0,0.0,0.0,0.0,0.0,0.0,0.0,0.0,0.0,0.0,0.0,0.0,0.0,0.0,0.0,0.0,0.0,0.0,0.0,0.0,0.0,0.0,0.0,0.0,0.0,0.0,0.0,0.0,0.0,0.0,0.0057,0.0058,0.006,0.0,0.0,0.0,0.0,-0.0231,-0.0724,0.0,0.0,0.0,0.0,0.0,0.0,0.0,0.0,0.0,0.0,0.0,0.0,0.0,0.0,0.0,0.0,0.0,0.0,0.0,0.0,0.0,0.0,0.0,0.0,0.0,0.0,0.0,0.0,0.0,0.0,0.0,0.0,0.0,0.0,0.0,0.0,0.0,0.0,0.0,0.0,0.0,0.0,0.0,0.0,0.0,0.0,0.0,0.0,-0.2014,0.0,0.0,0.0,0.0,0.0,0.0,0.0,0.0,0.0,0.0,0.0,0.0,0.0,0.0,0.0,0.0,0.0,0.0,0.0,0.0,0.0,0.0,0.0,0.0,0.0,0.0,0.0,0.0,0.0,0.0,0.0,0.0,0.0,0.0,0.0,0.0,0.0,0.0,0.0,0.0,0.0,0.0,0.0,0.0,0.0,0.0,0.0,0.0,0.0,0.0,0.0,0.0,0.0,0.0,0.0,0.0,0.0768,0.0453,0.0348,0.0355,0.0118,0.0,0.0,0.0,-0.0056,-0.0162,0.0,0.0,0.0,0.0,0.0,0.0,0.0,0.0,0.0,0.0,0.0,0.0,0.0,0.0,0.0,0.0,0.0,0.0,0.0,0.0,0.0,0.0,0.0,0.0,0.0,0.0,0.0,0.0,0.0,0.0,0.0,0.0,0.0,0.0,0.0,0.0,0.0,0.0,0.0,0.0,0.0,0.0,0.0,0.0,0.0,0.0,0.0,0.0,0.0,-0.2147,0.0,0.0,0.0,0.0,0.0,0.0,0.0,0.0,0.0,0.0,0.0,0.0,0.0,0.0,0.0,0.0,0.0,0.0,0.0,0.0,0.0,0.0,0.0,0.0,0.0,0.0,0.0,0.0,0.0,0.0,0.0,0.0,0.0,0.0,0.0,0.0,0.0,0.0,0.0,0.0,0.0,0.0,0.0,0.0,0.0,0.0,0.0,0.0,0.0,0.0,0.0,0.0,0.0,0.0,0.0,0.0865,0.0725,0.0687,0.064,0.0349,0.0233,0.0174,0.0058,0.0,0.0,0.0,0.0,0.0,0.0,0.0,0.0,0.0,0.0,0.0,0.0,0.0,0.0,0.0,0.0,0.0,0.0,0.0,0.0,0.0,0.0,0.0,0.0,0.0,0.0,0.0,0.0,0.0,0.0,0.0,0.0,0.0,0.0,0.0,0.0,0.0,0.0,0.0,0.0,0.0,0.0,0.0,0.0,0.0,0.0,0.0,0.0,0.0,0.0,-0.1035,-0.1487,0.0,0.0,0.0,0.0,0.0,0.0,0.0,0.0,0.0,0.0,0.0,0.0,0.0,0.0,0.0,0.0,0.0,0.0,0.0,0.0,0.0,0.0,0.0,0.0,0.0,0.0,0.0,0.0,0.0,0.0,0.0,0.0,0.0,0.0,0.0,0.0,0.0,0.0,0.0,0.0,0.0,0.0,0.0,0.0,0.0,0.0,0.0,0.0,0.0,0.0,0.0,0.0,0.0,0.0,0.0,0.1068,0.0992,0.0961,0.0976,0.0687,0.0516,0.0517,0.0286,0.0167,0.0,0.0,0.0,0.0,0.0,0.0,0.0,0.0,0.0,0.0,0.0,0.0,0.0,0.0,0.0,0.0,0.0,0.0,0.0,0.0,0.0,0.0,0.0,0.0,0.0,0.0,0.0,0.0,0.0,0.0,0.0,0.0,0.0,0.0,0.0,0.0,0.0,0.0,0.0,0.0,0.0,0.0,0.0,0.0,0.0,0.0,0.0,0.0,-0.0289,-0.0578,0.0,0.0,0.0,0.0,0.0,0.0,0.0,0.0,0.0,0.0,0.0,0.0,0.0,0.0,0.0,0.0,0.0,0.0,0.0,0.0,0.0,0.0,0.0,0.0,0.0,0.0,0.0,0.0,0.0,0.0,0.0,0.0,0.0,0.0,0.0,0.0,0.0,0.0,0.0,0.0,0.0,0.0,0.0,0.0,0.0,0.0,0.0,0.0,0.0,0.0,0.0,0.0,0.0,0.0,0.0,0.0,0.16,0.1378,0.1243,0.1263,0.0963,0.085,0.0862,0.0838,0.0817,0.0,0.0,0.0,0.0,0.0,0.0,0.0,0.0,0.0,0.0,0.0,0.0,0.0,0.0,0.0,0.0,0.0,0.0,0.0,0.0,0.0,0.0,0.0,0.0,0.0,0.0,0.0,0.0,0.0,0.0,0.0,0.0,0.0,0.0,0.0,0.0,0.0,0.0,0.0,0.0,0.0,0.0,0.0,0.0,0.0,0.0,0.0,0.0,-0.0059,-0.0294,0.0,0.0,0.0,0.0,0.0,0.0,0.0,0.0,0.0,0.0,0.0,0.0,0.0,0.0,0.0,0.0,0.0,0.0,0.0,0.0,0.0,0.0,0.0,0.0,0.0,0.0,0.0,0.0,0.0,0.0,0.0,0.0,0.0,0.0,0.0,0.0,0.0,0.0,0.0,0.0,0.0,0.0,0.0,0.0,0.0,0.0,0.0,0.0,0.0,0.0,0.0,0.0,0.0,0.0,0.0,0.2184,0.192,0.1819,0.1802,0.1814,0.1913,0.1912,0.1926,0.1731,0.1642,0.0,0.0,0.0,0.0,0.0,0.0,0.0,0.0,0.0,0.0,0.0,0.0,0.0,0.0,0.0,0.0,0.0,0.0,0.0,0.0,0.0,0.0,0.0,0.0,0.0,0.0,0.0,0.0,0.0,0.0,0.0,0.0,0.0,0.0,0.0,0.0,0.0,0.0,0.0,0.0,0.0,0.0,0.046,0.0347,0.0,0.0,0.0,0.0,0.0,0.0,0.0,0.0,0.0,0.0,0.0,0.0,0.0,0.0,0.0,0.0,0.0,0.0,0.0,0.0,0.0,0.0,0.0,0.0,0.0,0.0,0.0,0.0,0.0,0.0,0.0,0.0,0.0,0.0,0.0,0.0,0.0,0.0,0.0,0.0,0.0,0.0,0.0,0.0,0.0,0.0,0.0,0.0,0.0,0.0,0.0,0.0,0.0,0.0,0.0,0.0,0.0,0.0,0.0,0.0,0.0,0.0,0.2451,0.248,0.2523,0.2579,0.2802,0.2969,0.3023,0.2789,0.0,0.0,0.0,0.0,0.0,0.0,0.0,0.0,0.0,0.0,0.0,0.0,0.0,0.0,0.0,0.0,0.0,0.0,0.0,0.0,0.0,0.0,0.0,0.0,0.0,0.0,0.0,0.0048,0.0,0.0,0.0,0.0,0.0,0.0,0.0,0.0,0.0,0.0,0.0,0.0,0.0,0.0,0.0633,0.0863,0.069,0.0518,0.0,0.0,0.0057,0.0,-0.0173,-0.0345,0.0,0.0,0.0,0.0,0.0,0.0,0.0,0.0,0.0,0.0,0.0,0.0,0.0,0.0,0.0,0.0,0.0,0.0,0.0,0.0,0.0,0.0,0.0,0.0,0.0,0.0,0.0,0.0,0.0,0.0,0.0,0.0,0.0,0.0,0.0,0.0,0.0,0.0,0.0,0.0,0.0,0.0,0.0,0.0,0.0,0.0,0.0,0.0,0.0,0.0,0.0,0.0,0.0,0.0,0.0,0.3304,0.3416,0.3475,0.3475,0.3531,0.3642,0.3917,0.3857,0.3849,0.0,0.0,0.0,0.0,0.0,0.0,0.0,0.0,0.0,0.0,0.0,0.0,0.0,0.0,0.0,0.0,0.0,0.0,0.0,0.0,0.0,0.0,0.0,0.0,0.0,0.0,0.0,0.0,0.0,0.0,0.0,0.0,0.0,0.0,0.0,0.0,0.0,0.0,0.0,0.0,0.0,0.0863,0.0863,0.0863,0.0748,0.0,0.0,0.0288,0.0057,0.0,-0.0115,-0.0345,0.0,0.0,0.0,0.0,0.0,0.0,0.0,0.0,0.0,0.0,0.0,0.0,0.0,0.0,0.0,0.0,0.0,0.0,0.0,0.0,0.0,0.0,0.0,0.0,0.0,0.0,0.0,0.0,0.0,0.0,0.0,0.0,0.0,0.0,0.0,0.0,0.0,0.0,0.0,0.0,0.0,0.0,0.0,0.0,0.0,0.0,0.0,0.0,0.0,0.0,0.0,0.0,0.0,0.4096,0.3675,0.3964,0.4145,0.4201,0.4869,0.5316,0.5423,0.5556,0.5551,0.0,0.0,0.0,0.0,0.0,0.0,0.0,0.0,0.0,0.0,0.0,0.0,0.0,0.0,0.0,0.0,0.0,0.0,0.0,0.0,0.0,0.0,0.0,0.0,0.0,0.0,0.0,0.0,0.0572,0.079,0.1086,0.0,0.0,0.0,0.0,0.0,0.0,0.0,0.0,0.0,0.0,0.1194,0.1435,0.1322,0.0,0.0,0.0868,0.0633,0.0345,0.0285,0.0226,0.0113,-0.0222,0.0,0.0,0.0,0.0,0.0,0.0,0.0,0.0,0.0,0.0,0.0,0.0,0.0,0.0,0.0,0.0,0.0,0.0,0.0,0.0,0.0,0.0,0.0,0.0,0.0,0.0,0.0,0.0,0.0,0.0,0.0,0.0,0.0,0.0,0.0,0.0,0.0,0.0,0.0,0.0,0.0,0.0,0.0,0.0,0.0,0.0,0.0,0.0,0.0,0.0,0.0,0.0,0.4996,0.4682,0.5117,0.5314,0.5318,0.6151,0.6596,0.671,0.6879,0.6882,0.0,0.0,0.0,0.0,0.0,0.0,0.0,0.0,0.0,0.0,0.0,0.0,0.0,0.0,0.0,0.0,0.0,0.0,0.0,0.0,0.0,0.0,0.0,0.0,0.0,0.0,0.0,0.0,0.1124,0.1283,0.1681,0.0,0.0,0.0,0.0,0.0,0.0,0.0,0.0,0.0,0.0,0.1524,0.1778,0.161,0.1503,0.1411,0.1225,0.0983,0.0691,0.0569,0.0565,0.0565,0.0,0.0,0.0,0.0,0.0,0.0,0.0,0.0,0.0,0.0,0.0,0.0,0.0,0.0,0.0,0.0,0.0,0.0,0.0,0.0,0.0,0.0,0.0,0.0,0.0,0.0,0.0,1.0651,0.0,0.0,0.9711,0.0,0.0,0.0,0.0,0.0,0.0,0.0,0.0,0.0,0.0,0.0,0.0,0.0,0.0,0.0,0.0,0.0,0.0,0.0,0.0,0.0,0.0,0.6482,0.6701,0.6983,0.7099,0.7099,0.7154,0.7324,0.7551,0.7607,0.7546,0.7473,0.0,0.0,0.0,0.0,0.0,0.0,0.0,0.0,0.0,0.0,0.0,0.0,0.0,0.0,0.0,0.0,0.0,0.0,0.0,0.0,0.0,0.0,0.0,0.0,0.0,0.0,0.1665,0.1817,0.1983,0.0,0.0,0.0,0.0,0.0,0.0,0.0,0.0,0.0,0.0,0.1776,0.1806,0.178,0.1784,0.1679,0.1471,0.1414,0.1289,0.0981,0.092,0.092,0.0,0.0,0.0,0.0,0.0,0.0,0.0,0.0,0.0,0.0,0.0,0.0,0.0,0.0,0.0,0.0,0.0,0.0,0.0,0.0,0.0,0.0,0.0,0.0,0.0,0.0,0.0,1.2294,1.2302,0.0,0.0,0.0,0.0,0.0,0.0,0.0,0.0,0.0,0.0,0.0,0.8331,0.8381,0.0,0.0,0.0,0.0,0.0,0.0,0.0,0.0,0.0,0.0,0.0,0.0,0.7202,0.7291,0.7569,0.7657,0.7493,0.7875,0.8097,0.8214,0.8383,0.8317,0.8018,0.0,0.0,0.0,0.0,0.0,0.0,0.0,0.0,0.0,0.0,0.0,0.0,0.0,0.0,0.0,0.0,0.0,0.0,0.0,0.0,0.0,0.0,0.0,0.0,0.0,0.2926,0.0,0.0,0.0,0.0,0.0,0.0,0.0,0.0,0.0,0.0,0.0,0.1716,0.18,0.1776,0.1813,0.1864,0.187,0.183,0.0,0.0,0.0,0.0,0.0,0.0,0.0,0.0,0.0,0.0,0.0,0.0,0.0,0.0,-0.0627,-0.1569,-0.1883,-0.2041,-0.2145,0.0,0.0,0.0,0.0,0.0,0.0,0.0,0.0,0.0,0.0,0.0,0.0,0.0,0.0,1.4146,0.0,1.3625,0.0,0.0,0.0,0.0,0.0,0.0,0.0,0.0,0.9834,0.9751,0.9488,0.9598,0.9565,0.0,0.9617,0.9372,0.0,0.0,0.0,0.0,0.0,0.0,0.0,0.0,0.8175,0.8215,0.8465,0.8543,0.838,0.8764,0.8982,0.8985,0.9044,0.8893,0.8522,0.8307,0.8031,0.0,0.0,0.0,0.0,0.0,0.0,0.0,0.0,0.0,0.0,0.0,0.0,0.0,0.0,0.0,0.0,0.0,0.0,0.0,0.0,0.0,0.0,0.0,0.3841,0.0,0.0,0.0,0.0,0.0,0.0,0.0,0.0,0.0,0.2354,0.2126,0.2056,0.2092,0.2117,0.2157,0.2229,0.0,0.0,0.0,0.0,0.0,0.0,0.0,0.1545,0.1604,0.1597,0.159,0.159,0.139,0.1138,0.0844,0.0,0.0,-0.0535,-0.0905,-0.1012,-0.1012,-0.1278,-0.1544,-0.1864,-0.2449,-0.3034,0.0,0.0,0.0,0.0,0.0,0.0,0.0,0.0,1.6764,1.644,0.0,1.5592,0.0,0.0,0.0,0.0,0.0,1.1305,0.0,0.0,1.1417,1.1459,1.1177,1.1446,1.1192,1.0486,1.0757,1.0616,1.0184,0.9657,0.0,0.0,0.0,0.0,0.0,0.0,0.9355,0.9578,0.9734,0.9816,0.9761,0.9761,0.9816,0.9761,0.9544,0.9268,0.8933,0.8794,0.8612,0.8332,0.8122,0.0,0.0,0.0,0.0,0.0,0.0,0.0,0.0,0.0,0.0,0.0,0.0,0.0,0.0,0.0,0.0,0.0,0.0,0.0,0.0,0.482,0.0,0.0,0.0,0.0,0.0,0.0,0.0,0.0,0.0,0.0,0.2877,0.2652,0.2643,0.2745,0.0,0.0,0.0,0.0,0.2859,0.3009,0.2775,0.2516,0.2478,0.2172,0.1932,0.1932,0.0,0.0,0.1889,0.1888,0.1768,0.1474,0.1411,0.1155,0.0325,0.0161,0.0107,0.0107,-0.0107,-0.0374,-0.0748,-0.1397,-0.2092,1.8139,0.0,0.0,0.0,0.0,1.7173,1.7366,1.7629,1.7227,1.7127,1.7055,1.6392,0.0,0.0,0.0,0.0,0.0,0.0,1.2405,1.2302,1.2195,1.2114,1.2001,1.1951,1.1647,1.1268,1.1109,1.0862,1.0542,1.0379,1.0144,0.9851,0.0,0.0,0.0,0.0,0.9888,1.0066,1.012,1.0036,0.9816,0.9816,0.9816,0.9816,0.9706,0.9651,0.9541,0.9332,0.9203,0.9198,0.8945,0.0,0.0,0.0,0.0,0.0,0.0,0.0,0.0,0.0,0.0,0.0,0.0,0.0,0.0,0.0,0.0,0.0,0.0,0.0,0.6432,0.6178,0.6001,0.0,0.0,0.0,0.0,0.0,0.0,0.0,0.0,0.0,0.4678,0.384,0.3316,0.0,0.0,0.3464,0.3573,0.3588,0.3615,0.3626,0.3391,0.0,0.319,0.2881,0.2574,0.2391,0.2138,0.1951,0.1951,0.1932,0.1858,0.1738,0.1782,0.1698,0.1441,0.1032,0.0744,0.0745,0.0516,0.0229,0.0114,-0.0568,-0.1238,1.8911,1.8115,1.8112,1.7961,1.783,1.7877,1.8011,1.8162,1.7867,1.7757,1.7741,1.7121,1.669,1.6371,1.5785,0.0,0.0,0.0,1.4008,1.3954,1.384,1.3678,1.3413,1.3137,1.2762,1.2273,1.1951,1.1673,1.14,1.124,1.1125,1.0911,0.0,0.0,1.0476,1.0367,1.0307,1.0468,1.0472,1.0363,1.0202,1.0253,1.0253,1.0198,1.0417,1.0417,1.0147,1.0088,1.0042,1.005,0.9815,0.9655,0.0,0.0,0.0,0.0,0.0,0.0,0.0,0.0,0.0,0.0,0.0,0.6588,0.6863,0.0,0.0,0.0,0.7177,0.7294,0.7417,0.7114,0.0,0.0,0.0,0.0,0.0,0.0,0.0,0.6161,0.6175,0.6217,0.6247,0.5545,0.4893,0.4508,0.4465,0.4508,0.4619,0.0,0.4601,0.4488,0.4253,0.4009,0.3887,0.3576,0.3268,0.296,0.253,0.2222,0.2222,0.2083,0.1949,0.1947,0.1934,0.1922,0.1922,0.1621,0.1374,0.1359,0.1178,0.1001,0.0884,0.0291,-0.023,1.9263,1.8995,1.8944,1.8623,1.8184,1.8301,1.8443,1.849,1.8464,1.8303,1.7995,1.7692,1.7421,1.7179,1.6649,0.0,1.5613,1.5838,1.5779,1.5559,1.5779,1.5571,1.5035,1.4767,1.4175,1.3315,1.3044,1.2772,1.2382,1.2169,1.2001,1.2001,1.1236,1.0802,1.0747,1.0798,1.0747,1.0747,1.0747,1.0806,1.0802,1.1072,1.1072,1.0857,1.1345,1.1404,1.0857,1.1017,1.1072,1.0903,1.0746,1.0567,1.0369,0.0,0.0,0.0,0.0,0.0,0.0,0.0,0.0,0.0,0.0,0.0,0.0,0.0,0.0,0.0,0.7892,0.0,0.8088,0.7771,0.0,0.0,0.0,0.6979,0.6976,0.6976,0.702,0.708,0.0,0.0,0.7477,0.7516,0.7164,0.6111,0.5946,0.5865,0.596,0.5974,0.5881,0.5657,0.5295,0.4988,0.4744,0.4313,0.3883,0.3577,0.3022,0.259,0.2529,0.2283,0.2099,0.2036,0.2038,0.2037,0.2038,0.1972,0.1959,0.1905,0.1895,0.1776,0.1481,0.111,0.0808,1.9871,1.9521,1.911,1.8715,1.8442,1.8446,1.8495,1.847,1.825,1.8055,1.7975,1.7742,1.7444,1.7179,1.7073,1.6796,1.6411,1.6264,1.6164,1.6111,1.5945,1.5725,1.5405,1.5035,1.4439,1.3624,1.331,1.293,1.2441,1.2332,1.2332,1.2332,1.211,1.1787,1.1404,1.1404,1.1404,1.14,1.1404,1.1459,1.1673,1.1951,1.206,1.2005,1.2114,1.2169,1.2001,1.1841,1.1946,1.2332,1.2109,1.1968,1.2024,1.1765,0.0,0.0,0.0,0.0,0.0,0.0,0.0,0.0,0.0,0.7707,0.8092,0.0,0.8338,0.0,0.8577,0.8679,0.8709,0.8459,0.0,0.0,0.7819,0.7687,0.7636,0.769,0.7684,0.7761,0.7776,0.7949,0.8341,0.8504,0.8616,0.8629,0.7822,0.7272,0.7382,0.7405,0.735,0.725,0.6827,0.6396,0.6215,0.5356,0.4558,0.4253,0.3701,0.3208,0.2899,0.2591,0.2283,0.2038,0.2038,0.2038,0.2038,0.2038,0.1973,0.1958,0.1956,0.1955,0.1832,0.1554,0.1288,2.0093,1.956,1.9111,1.8639,1.8266,1.8291,1.821,1.8076,1.7909,1.7842,1.7829,1.7655,1.7536,1.7384,1.7378,1.7272,1.7107,1.6955,1.6902,1.6902,1.6743,1.6524,1.6258,1.5939,1.5458,1.4863,1.46,1.4277,1.3948,1.384,1.3684,1.3527,1.3408,1.3192,1.2762,1.2223,1.1951,1.1946,1.1951,1.206,1.2169,1.2604,1.2822,1.2822,1.331,1.3521,1.3418,1.3516,1.3678,1.3786,1.3516,1.3346,1.3367,1.2944,1.2333,0.0,0.0,0.0,0.0,0.0,0.0,0.0,0.0,0.0,0.0,0.0,0.8945,0.9168,0.927,0.9268,0.9323,0.9151,0.9065,0.8985,0.8862,0.875,0.875,0.875,0.8784,0.8809,0.8819,0.8932,0.925,0.9398,0.9658,0.9933,0.947,0.8998,0.8766,0.8784,0.8726,0.8541,0.8236,0.7808,0.7439,0.6458,0.5602,0.5116,0.4561,0.3946,0.3513,0.3146,0.2776,0.2346,0.2222,0.216,0.2038,0.2038,0.2038,0.1975,0.1965,0.1958,0.1956,0.18,0.1589,2.0486,1.9564,1.9237,1.88,1.8259,1.8164,1.7923,1.7589,1.7589,1.7589,1.7589,1.7589,1.7589,1.7589,1.7589,1.7589,1.7589,1.7589,1.7589,1.7589,1.7589,1.7483,1.7173,1.6895,1.6583,1.6271,1.6051,1.5945,1.5885,1.5672,1.5405,1.5095,1.4874,1.4659,1.4385,1.3359,1.2762,1.2713,1.2713,1.2762,1.2817,1.3364,1.364,1.3689,1.4606,1.5018,1.4722,1.5192,1.5334,1.5069,1.4815,1.4636,1.4445,1.3919,1.3248,0.0,1.2078,0.0,0.0,0.0,0.0,0.0,0.0,0.0,0.0,0.925,0.9485,0.979,0.9816,0.9816,0.9816,0.9816,0.9816,0.9816,0.9816,0.9816,0.9816,0.9816,0.9816,0.9816,0.9816,0.9876,1.001,1.0231,1.0392,1.0546,1.0696,1.0563,1.0183,0.994,0.9822,0.9518,0.946,0.9028,0.8175,0.75,0.6888,0.6221,0.5605,0.4926,0.425,0.3884,0.3454,0.2837,0.259,0.2468,0.2099,0.2035,0.1971,0.1968,0.1945,0.1928,0.1929,0.1902,0.1872,2.1805,2.1116,2.0369,1.9957,1.9831,1.9029,1.829,1.7589,1.7589,1.7589,1.7589,1.7589,1.7589,1.7589,1.7589,1.7589,1.7589,1.7589,1.7589,1.7589,1.7589,1.7483,1.7173,1.7126,1.6802,1.6324,1.6264,1.6111,1.5885,1.5838,1.5779,1.5731,1.5672,1.5624,1.5565,0.0,0.0,0.0,1.439,1.4659,1.4917,1.5238,1.541,1.5405,1.5624,0.0,1.5263,1.5356,1.5405,1.5342,1.5281,0.0,0.0,0.0,0.0,0.0,0.0,0.0,0.0,0.0,0.0,0.0,1.0457,1.0102,0.9415,0.9448,0.9546,0.9794,0.9816,0.9816,0.9816,0.9816,0.9816,0.9816,0.9816,0.9816,0.9816,0.9816,0.9816,0.9816,0.9816,0.9938,1.02,1.0343,1.0626,1.0967,1.1255,1.1363,1.1386,1.091,1.0607,1.0486,1.0304,0.9754,0.8775,0.8532,0.8111,0.7322,0.6832,0.6154,0.5297,0.4867,0.4313,0.3515,0.3085,0.2836,0.2466,0.214,0.194,0.194,0.1915,0.1902,0.1864,0.1828,0.179,2.2371,2.1819,2.1209,2.0768,0.0,2.0008,1.9363,1.8632,1.8071,1.7747,1.7589,1.7589,1.7589,1.7589,1.7589,1.7589,1.7589,1.7589,1.7589,1.7589,1.7589,1.7536,1.7378,1.7378,1.7226,1.6948,1.6955,1.6842,1.6736,1.6736,1.669,1.6537,1.653,1.653,1.653,1.6683,1.6252,1.5244,1.5357,1.5517,1.5725,1.5945,1.6111,1.6111,1.6377,0.0,0.0,0.0,0.0,0.0,0.0,0.0,0.0,1.5502,0.0,1.455,1.413,1.3524,1.2655,1.2613,1.2374,1.1852,1.157,1.0979,1.0049,1.0032,1.0083,1.0229,1.0257,1.0253,1.0257,1.0253,1.0253,1.0253,1.0253,1.0257,1.0253,1.0253,1.0253,1.0253,1.0253,1.0308,1.0476,1.0632,1.0823,1.1033,1.1252,1.1431,1.161,1.1475,1.1285,1.1281,1.1035,1.0543,0.9933,0.9633,0.9207,0.8355,0.7928,0.7375,0.634,0.5849,0.5358,0.4435,0.3801,0.3294,0.2802,0.241,0.2087,0.1907,0.1885,0.1868,0.1825,0.1803,0.1778,2.2959,2.2419,2.2094,2.1647,2.1167,2.1059,2.067,1.9951,0.0,0.0,0.0,1.774,1.7687,1.7687,1.774,1.774,1.7687,1.7635,1.7635,1.7589,1.7589,1.7589,1.7589,1.7589,1.7635,1.7687,1.7687,1.7687,1.774,1.774,1.7641,1.743,1.7391,1.7437,1.7437,1.7641,1.7265,1.6365,1.6264,1.6205,1.6264,1.6424,1.6537,1.6537,1.6969,1.7069,1.6729,1.6919,1.6904,1.656,1.6326,1.6192,1.6186,1.5767,1.5452,1.5178,1.4981,1.449,1.3757,1.3709,1.3474,1.2953,1.2467,1.182,1.091,1.0785,1.0782,1.0878,1.0802,1.0743,1.0747,1.0692,1.0692,1.0692,1.0692,1.0692,1.0692,1.0692,1.0692,1.0692,1.0692,1.0692,1.0696,1.0822,1.0992,1.0976,1.1094,1.1244,1.1431,1.1638,1.1716,1.1712,1.1462,1.1273,1.091,1.0668,1.0122,0.9265,0.9083,0.8587,0.7535,0.6923,0.6307,0.5238,0.4535,0.3906,0.3178,0.2668,0.229,0.1994,0.1854,0.1774,0.1775,0.1775,0.1823,2.4273,2.3623,2.3335,2.3191,2.3071,2.249,2.1768,2.091,1.9348,1.8422,1.7971,1.8167,1.8167,1.7957,1.8167,1.816,1.7964,1.7964,1.7806,1.7641,1.7589,1.7589,1.7589,1.7589,1.7694,1.7911,1.7964,1.8069,1.8265,1.8265,1.8265,1.822,1.8265,1.8213,1.8213,1.8265,1.8213,1.8048,1.7582,1.7477,1.7694,1.7529,1.7424,1.7411,1.7289,1.7016,1.673,1.6533,1.6259,1.5924,1.5871,1.5844,1.5885,1.5811,1.5683,1.5445,1.5397,1.5118,1.4592,1.4544,1.4202,1.3468,1.3141,1.2563,1.1719,1.1403,1.1357,1.1465,1.1236,1.1021,1.1017,1.0852,1.0747,1.0692,1.0692,1.0692,1.0692,1.0692,1.0692,1.0692,1.0692,1.0692,1.0696,1.0724,1.0802,1.0928,1.0997,1.1074,1.1261,1.1557,1.1812,1.1837,1.1772,1.1587,1.1242,1.1209,1.0759,1.0179,1.0041,0.962,0.8507,0.8079,0.7389,0.611,0.532,0.4603,0.3778,0.309,0.26,0.2306,0.2052,0.1861,0.1805,0.1804,0.1801,2.5201,2.4862,2.4379,2.4184,2.415,2.3461,2.2887,2.2304,2.1261,2.0098,1.8978,1.8748,1.852,1.8422,1.8422,1.8325,1.822,1.822,1.816,1.8055,1.8055,1.8055,1.8055,1.8003,1.8108,1.822,1.822,1.8265,1.8422,1.8422,1.8422,1.8422,1.8586,1.8653,1.8653,1.8803,1.89,1.8907,1.8318,1.8115,1.822,1.8108,1.798,1.7822,1.7678,1.739,1.6881,1.6724,1.6519,1.6265,1.6069,1.6028,1.6028,1.5872,1.5737,1.5683,1.5683,1.5499,1.5166,1.4975,1.4688,1.4196,1.3913,1.353,1.2936,1.2265,1.1836,1.1858,1.1824,1.1728,1.1623,1.1459,1.1295,1.0962,1.0911,1.0857,1.0747,1.0692,1.0692,1.0692,1.0692,1.0692,1.0692,1.0692,1.0712,1.0814,1.0895,1.1057,1.1078,1.1301,1.1476,1.1476,1.1472,1.1413,1.1295,1.1232,1.1051,1.058,1.0524,1.0137,0.9365,0.8889,0.8154,0.7227,0.6243,0.5342,0.4584,0.3725,0.3126,0.2551,0.2259,0.202,0.1851,0.1795,0.1795,2.6245,2.606,2.5593,2.5299,2.5148,2.4643,2.425,2.3897,2.3303,2.2231,2.0826,1.9799,1.9263,1.9094,1.8885,1.8736,1.8632,1.8579,1.8527,1.8422,1.8422,1.8422,1.8422,1.8422,1.8422,1.8482,1.8541,1.8534,1.8579,1.8579,1.8579,1.8639,1.8862,1.8974,1.8974,1.9175,1.9272,1.9272,1.8848,1.8586,1.8534,1.8359,1.8205,1.8032,1.7827,1.7526,1.7023,1.6918,1.6826,1.6609,1.6407,1.6265,1.6272,1.6116,1.5967,1.5967,1.5927,1.5784,1.5588,1.5363,1.5172,1.4879,1.464,1.4364,1.408,1.3375,1.2677,1.2471,1.2421,1.2387,1.2223,1.2114,1.1891,1.14,1.1295,1.1185,1.0857,1.0802,1.0747,1.0747,1.0692,1.0692,1.0692,1.0692,1.0696,1.072,1.0818,1.0955,1.098,1.1025,1.1094,1.1122,1.1163,1.1236,1.122,1.1174,1.1067,1.082,1.0828,1.0532,1.004,0.9435,0.8829,0.8108,0.7124,0.6223,0.5467,0.4581,0.3764,0.3202,0.2694,0.2244,0.1851,0.1795,0.1795,2.7754,2.7131,2.6975,2.6765,2.6391,2.6336,2.5936,2.5454,2.5038,2.4539,2.3594,2.1793,2.0578,2.0005,1.9931,1.9672,1.9272,1.922,1.8952,1.8475,1.8422,1.8422,1.8422,1.8429,1.8586,1.8817,1.8869,1.8966,1.9168,1.9168,1.922,1.922,1.9272,1.9227,1.9272,1.9272,1.9272,1.9272,1.9272,1.9123,1.8848,1.8318,1.8053,1.8018,1.7421,1.7051,1.7015,1.6777,1.6609,1.6588,1.6581,1.6581,1.6541,1.6541,1.6541,1.6494,1.6312,1.6028,1.5784,1.5737,1.5642,1.5452,1.5185,1.5017,1.4986,1.4855,1.4339,1.3525,1.3017,1.293,1.2822,1.2604,1.2332,1.2005,1.1951,1.1732,1.1181,1.1076,1.0962,1.0692,1.0747,1.0692,1.0692,1.0692,1.0692,1.0692,1.072,1.0749,1.0749,1.0769,1.0798,1.0826,1.0997,1.1179,1.1191,1.1216,1.1118,1.1077,1.115,1.0845,1.0466,1.013,0.9702,0.8732,0.7985,0.7187,0.6344,0.5431,0.465,0.3977,0.3251,0.2468,0.1963,0.1795,0.1851,2.8595,2.8052,2.7818,2.7481,2.7062,2.6935,2.6718,2.6418,2.6154,2.5748,2.5156,2.3771,2.2482,2.135,2.085,2.0351,1.9998,2.0005,1.9687,1.9205,1.916,1.9108,1.8952,1.8952,1.9011,1.9123,1.9272,1.9376,1.9324,1.9272,1.9272,1.9272,1.9272,1.9272,1.9272,1.9272,1.9272,1.9272,1.9272,1.9139,1.8847,1.86,1.8297,1.7888,1.7608,1.7371,1.7206,1.7062,1.7005,1.7005,1.6925,1.6838,1.6831,1.6683,1.6588,1.6588,1.6353,1.617,1.6021,1.5879,1.5858,1.5983,1.5699,1.5628,1.5762,1.5637,1.5321,1.4908,1.461,1.4326,1.3954,1.3792,1.3472,1.293,1.2767,1.2495,1.1728,1.1509,1.1295,1.0966,1.0802,1.0692,1.0692,1.0692,1.0692,1.0692,1.0692,1.0692,1.0692,1.0692,1.0692,1.0708,1.0826,1.0891,1.0919,1.0907,1.0915,1.0915,1.0907,1.0807,1.0675,1.0417,0.9994,0.9323,0.8761,0.8149,0.7438,0.6596,0.5759,0.4923,0.3696,0.2746,0.2187,0.2019,0.2019,2.9499,2.9068,2.8562,2.8083,2.7657,2.7422,2.7314,2.726,2.7034,2.6714,2.631,2.5429,2.4385,2.3203,2.188,2.107,2.0873,2.0771,2.0403,1.9939,1.9939,1.9791,1.9532,1.9532,1.9583,1.9635,1.9843,1.9843,1.9635,1.9635,1.9532,1.9428,1.9428,1.9376,1.9272,1.9272,1.9272,1.9272,1.9272,1.9074,1.8723,1.8765,1.8443,1.7867,1.768,1.7567,1.7301,1.7286,1.7286,1.7286,1.7145,1.7066,1.7059,1.6918,1.677,1.6683,1.6548,1.6359,1.6319,1.615,1.6142,1.635,1.6235,1.6216,1.6441,1.6356,1.6238,1.6189,1.6088,1.5672,1.5083,1.4928,1.4659,1.4013,1.3851,1.3418,1.2599,1.2164,1.1841,1.1404,1.1131,1.0911,1.0802,1.0747,1.0692,1.0692,1.0692,1.0692,1.0692,1.0692,1.0692,1.0692,1.0696,1.07,1.0692,1.072,1.0692,1.0692,1.072,1.0724,1.0692,1.0531,1.0312,0.9816,0.9423,0.8978,0.8429,0.7651,0.6647,0.5648,0.4533,0.3415,0.2803,0.2523,0.2244,3.0528,3.0002,2.9212,2.8627,2.8237,2.8184,2.8067,2.7799,2.7843,2.7618,2.7264,2.6567,2.6061,2.5408,2.3193,2.1937,2.1623,2.1428,2.1019,2.0522,2.0462,2.03,2.0078,2.0078,2.0197,2.0359,2.0418,2.0462,2.0411,2.0418,2.0205,1.9732,1.9732,1.9583,1.9376,1.9324,1.9331,1.9376,1.9376,1.903,1.8473,1.8605,1.8483,1.7905,1.7516,1.7362,1.7333,1.7286,1.7286,1.7286,1.7286,1.7286,1.7286,1.7286,1.7145,1.7019,1.6979,1.6845,1.6644,1.6622,1.6669,1.6682,1.6709,1.6814,1.7146,1.7161,1.7132,1.7121,1.7087,1.6743,1.6045,1.5891,1.5725,1.5399,1.5083,1.4541,1.3727,1.3197,1.2604,1.2114,1.1732,1.1455,1.1126,1.0852,1.0747,1.0747,1.0747,1.0747,1.0692,1.0692,1.0692,1.0692,1.0692,1.0692,1.0692,1.0692,1.0692,1.0692,1.0692,1.0692,1.0692,1.0692,1.0527,1.0312,0.9978,0.9647,0.9265,0.8484,0.7371,0.6424,0.5532,0.4585,0.3696,0.3085,0.2692,3.0459,2.9756,2.916,2.8672,2.8301,2.8301,2.8237,2.8184,2.813,2.8077,2.7892,2.7261,2.6879,2.6636,2.4876,2.3568,2.2745,2.2426,2.1979,2.1326,2.1275,2.107,2.066,2.0609,2.066,2.0771,2.0925,2.1019,2.0968,2.0865,2.0565,2.0308,2.0205,2.0042,1.9828,1.9828,1.9828,1.9835,1.9828,1.9562,1.9113,1.9143,1.898,1.8441,1.7875,1.7574,1.7535,1.738,1.7286,1.7286,1.7286,1.7286,1.7286,1.7286,1.7286,1.72,1.7066,1.7018,1.7101,1.6987,1.7141,1.751,1.7528,1.7619,1.7874,1.795,1.7946,1.7975,1.7957,1.7747,1.7529,1.706,1.6583,1.6305,1.6146,1.5832,1.5137,1.4439,1.3732,1.3132,1.2432,1.1841,1.1732,1.1459,1.1185,1.0962,1.0962,1.0907,1.0743,1.0692,1.0747,1.0692,1.0692,1.0692,1.0692,1.0692,1.0692,1.0692,1.0692,1.0692,1.0692,1.0692,1.0582,1.0582,1.0363,1.0202,0.9757,0.9203,0.8146,0.7371,0.6478,0.5699,0.4644,0.4088,0.3473,3.0459,2.9766,2.9307,2.8887,2.8496,2.835,2.8301,2.8301,2.8301,2.8301,2.8179,2.782,2.7583,2.7246,2.617,2.5125,2.4136,2.36,2.2878,2.2283,2.2224,2.192,2.1471,2.142,2.1479,2.1573,2.1827,2.1928,2.1827,2.1623,2.1326,2.0925,2.0873,2.0712,2.0395,2.0344,2.0344,2.0344,2.0344,2.0167,1.9852,1.9728,1.9558,1.9082,1.852,1.8087,1.7947,1.78,1.7652,1.7567,1.7473,1.7387,1.7286,1.7286,1.733,1.7425,1.7359,1.7409,1.7649,1.7583,1.7683,1.8078,1.8124,1.8219,1.8401,1.8422,1.8422,1.8422,1.8422,1.8422,1.8318,1.801,1.7595,1.7318,1.7153,1.6948,1.6471,1.5666,1.4863,1.4056,1.33,1.2762,1.2441,1.2223,1.1841,1.1455,1.14,1.1236,1.0911,1.0802,1.0802,1.0692,1.0692,1.0692,1.0692,1.0692,1.0692,1.0692,1.0692,1.0692,1.0692,1.0692,1.0692,1.0692,1.0637,1.0527,1.0253,0.9754,0.9089,0.8315,0.7703,0.698,0.6033,0.5142,0.4585,3.0615,3.0127,2.9736,2.9277,2.8838,2.8447,2.8301,2.8301,2.8301,2.8301,2.8281,2.8262,2.8037,2.7614,2.6917,2.6311,2.5707,2.4721,2.3872,2.3279,2.3279,2.3029,2.2526,2.2526,2.2627,2.2828,2.3197,2.3188,2.2878,2.2828,2.2485,2.1869,2.1725,2.1471,2.0917,2.0968,2.0917,2.0917,2.0968,2.0785,2.0442,2.0369,2.0215,1.9864,1.9491,1.9082,1.8589,1.8496,1.8311,1.8087,1.7854,1.7581,1.7426,1.7409,1.7486,1.7735,1.7808,1.7977,1.8235,1.8311,1.8304,1.8468,1.8417,1.8492,1.852,1.8527,1.8475,1.8534,1.8475,1.8475,1.8534,1.8653,1.8653,1.8429,1.8062,1.7852,1.7477,1.6836,1.5873,1.4917,1.4379,1.3954,1.3478,1.3147,1.2767,1.2327,1.2055,1.1837,1.135,1.124,1.1017,1.0802,1.0747,1.0802,1.0747,1.0692,1.0692,1.0692,1.0692,1.0692,1.0692,1.0692,1.0692,1.0692,1.0692,1.0637,1.0531,1.0088,0.9868,0.9258,0.8758,0.8205,0.7368,0.6478,0.5699,3.0625,3.0156,2.9746,2.9316,2.8887,2.8467,2.8301,2.8301,2.8301,2.8301,2.8301,2.8301,2.8223,2.8027,2.7594,2.7114,2.6645,2.5977,2.5116,2.4279,2.4143,2.3935,2.3637,2.3578,2.3637,2.3728,2.3836,2.3836,2.3728,2.3737,2.3379,2.2929,2.2778,2.2426,2.1768,2.1725,2.1725,2.1725,2.1725,2.1745,2.1775,2.1729,2.1508,2.1066,2.0922,2.0557,2.0027,1.9188,1.8689,1.8589,1.8357,1.8125,1.7931,1.8065,1.815,1.8126,1.8327,1.8489,1.8584,1.8687,1.8804,1.8927,1.9013,1.9004,1.9011,1.9004,1.9004,1.9011,1.9011,1.9004,1.9056,1.9116,1.9011,1.8757,1.8653,1.8555,1.8391,1.774,1.6942,1.6199,1.5672,1.5244,1.4815,1.4439,1.3954,1.3521,1.3142,1.2713,1.2169,1.1841,1.1514,1.1076,1.1021,1.0911,1.0802,1.0747,1.0747,1.0747,1.0692,1.0692,1.0692,1.0692,1.0692,1.0692,1.0692,1.0692,1.0586,1.0476,1.0253,1.0091,0.9537,0.9037,0.8537,0.7811,0.6977,3.0723,3.04,2.9814,2.9424,2.9092,2.8555,2.8301,2.8301,2.8301,2.8301,2.8301,2.8301,2.8301,2.8203,2.7851,2.7581,2.7207,2.667,2.5992,2.5208,2.4881,2.4637,2.444,2.439,2.4381,2.4381,2.439,2.4381,2.4381,2.4381,2.4183,2.3836,2.3728,2.3479,2.2878,2.2878,2.2828,2.2828,2.2828,2.2915,2.3001,2.289,2.2667,2.2344,2.2039,2.1723,2.1282,2.0369,1.9646,1.9234,1.8904,1.869,1.8598,1.8808,1.8881,1.8915,1.8958,1.9065,1.9117,1.903,1.9045,1.9235,1.9272,1.9272,1.9272,1.9272,1.9272,1.9272,1.9272,1.9272,1.9272,1.9272,1.9227,1.9078,1.9026,1.9026,1.8869,1.8436,1.7845,1.7265,1.6895,1.6524,1.6146,1.5719,1.5238,1.4869,1.4283,1.3743,1.3197,1.2767,1.2223,1.1787,1.1568,1.1295,1.0911,1.0857,1.0798,1.0747,1.0692,1.0692,1.0692,1.0692,1.0692,1.0692,1.0692,1.0692,1.0637,1.0637,1.0527,1.0366,1.0202,0.9812,0.9313,0.8816,0.8094,3.0889,3.0771,2.9971,2.9655,2.9443,2.8691,2.834,2.8301,2.8301,2.8301,2.8301,2.8301,2.8301,2.8203,2.792,2.7715,2.7571,2.6846,2.6435,2.6091,2.5653,2.5137,2.499,2.4932,2.4932,2.4932,2.4932,2.4941,2.4941,2.4941,2.4824,2.4538,2.4489,2.439,2.4035,2.4084,2.3985,2.3976,2.4035,2.4016,2.4079,2.3834,2.3625,2.3533,2.2935,2.2529,2.2245,2.1807,2.1059,2.0065,1.9641,1.9491,1.95,1.9502,1.9749,2.0025,1.9826,1.975,1.9693,1.9524,1.9339,1.9368,1.9376,1.9331,1.9331,1.9272,1.9272,1.9272,1.9272,1.9272,1.9272,1.9272,1.9272,1.9272,1.9227,1.9175,1.8974,1.8921,1.8548,1.8174,1.8016,1.7852,1.7252,1.6889,1.6524,1.6099,1.5517,1.4922,1.4433,1.39,1.3202,1.2767,1.2436,1.1946,1.1618,1.1291,1.1236,1.0907,1.0857,1.0802,1.0747,1.0692,1.0692,1.0692,1.0692,1.0692,1.0692,1.0692,1.0692,1.0582,1.0472,1.0363,1.0033,0.9537,0.9096,3.0898,3.083,3.0264,2.9853,2.9521,2.8975,2.8574,2.832,2.8301,2.8301,2.8301,2.8301,2.8301,2.8281,2.8184,2.7978,2.7669,2.7109,2.665,2.6357,2.5839,2.5596,2.5489,2.5489,2.5479,2.5479,2.543,2.5479,2.5489,2.544,2.5333,2.5088,2.5088,2.4833,2.448,2.443,2.4381,2.4372,2.439,2.4529,2.4667,2.4632,2.4416,2.4125,2.3899,2.3476,2.2978,2.26,2.1916,2.0861,2.0758,2.0653,2.0589,2.0818,2.099,2.0875,2.0689,2.0491,2.0277,2.0042,1.9828,1.9628,1.9635,1.948,1.9324,1.9279,1.9279,1.9272,1.9272,1.9272,1.9272,1.9272,1.9272,1.9272,1.9272,1.9279,1.9175,1.9175,1.9018,1.8764,1.866,1.8436,1.8167,1.7852,1.7589,1.7325,1.6743,1.6152,1.5666,1.5238,1.4595,1.3948,1.3462,1.2866,1.2382,1.2001,1.1618,1.1126,1.0962,1.0911,1.0802,1.0692,1.0692,1.0692,1.0692,1.0692,1.0692,1.0692,1.0692,1.0692,1.0637,1.0527,1.0527,1.0198,0.9868,3.0898,3.085,3.0391,2.9961,2.9541,2.9101,2.8682,2.835,2.8301,2.8301,2.8301,2.8301,2.8301,2.8301,2.8291,2.8174,2.79,2.748,2.706,2.6602,2.5976,2.5713,2.5684,2.5684,2.5684,2.5684,2.5684,2.5684,2.5684,2.5684,2.5586,2.5489,2.5489,2.5294,2.5079,2.499,2.4981,2.503,2.5039,2.5079,2.5235,2.5235,2.5139,2.4871,2.4718,2.4305,2.3683,2.3414,2.2804,2.2017,2.1895,2.2004,2.2049,2.214,2.2235,2.2026,2.1668,2.1267,2.0976,2.066,2.0351,2.0094,2.005,1.9843,1.9583,1.948,1.9428,1.9331,1.9272,1.9272,1.9272,1.9272,1.9272,1.9272,1.9272,1.9272,1.9272,1.9272,1.922,1.9123,1.9071,1.9018,1.8803,1.8541,1.8443,1.8233,1.7694,1.7272,1.6948,1.6518,1.5986,1.5286,1.4696,1.4159,1.3516,1.3029,1.2491,1.1946,1.14,1.1295,1.0966,1.0802,1.0692,1.0692,1.0692,1.0692,1.0692,1.0692,1.0692,1.0692,1.0692,1.0692,1.0637,1.0582,1.0308,3.0947,3.0908,3.0439,3.0,2.9551,2.915,2.874,2.834,2.8301,2.8301,2.8301,2.8301,2.8301,2.8301,2.8301,2.8281,2.8252,2.7793,2.7334,2.6787,2.6161,2.583,2.5684,2.5684,2.5684,2.5684,2.5684,2.5684,2.5684,2.5684,2.5684,2.5635,2.5684,2.5684,2.5528,2.5635,2.5684,2.5586,2.5586,2.5577,2.5586,2.5586,2.5548,2.5489,2.5158,2.4828,2.4487,2.4231,2.3819,2.2989,2.3094,2.322,2.3512,2.3411,2.3376,2.3214,2.2652,2.2123,2.1827,2.1369,2.0917,2.0719,2.0565,2.0367,1.9946,1.9739,1.9583,1.9383,1.9331,1.9272,1.9272,1.9272,1.9272,1.9272,1.9272,1.9272,1.9272,1.9272,1.9272,1.9272,1.9272,1.9272,1.9227,1.9123,1.8928,1.8757,1.8331,1.8069,1.7799,1.7477,1.7047,1.6511,1.6033,1.5613,1.4863,1.4164,1.3521,1.293,1.2169,1.1787,1.124,1.0966,1.0802,1.0692,1.0692,1.0692,1.0692,1.0692,1.0692,1.0692,1.0692,1.0692,1.0692,1.0692,1.0472,3.1218,3.1208,3.0897,3.0283,2.9675,2.9463,2.8994,2.8301,2.8291,2.8301,2.8291,2.8291,2.8291,2.8301,2.8301,2.8301,2.8242,2.7842,2.7275,2.6543,2.6387,2.6035,2.5762,2.5684,2.5684,2.5684,2.5684,2.5684,2.5684,2.5684,2.5684,2.5684,2.5684,2.5684,2.5684,2.5684,2.5684,2.5684,2.5684,2.5684,2.5684,2.5684,2.5684,2.5693,2.537,2.5116,2.5008,2.4922,2.4789,2.4562,2.4222,2.4107,2.419,2.4182,2.4221,2.4038,2.347,2.302,2.2828,2.2283,2.1725,2.1471,2.1121,2.0668,2.0359,1.9939,1.9732,1.9576,1.942,1.9324,1.9272,1.9272,1.9272,1.9272,1.9272,1.9272,1.9272,1.9272,1.9272,1.9272,1.9272,1.9272,1.9272,1.9279,1.9175,1.9182,1.8974,1.8712,1.8548,1.8325,1.795,1.7523,1.7265,1.6789,1.6092,1.5286,1.4487,1.3797,1.3093,1.2441,1.1841,1.1295,1.1185,1.0966,1.0692,1.0692,1.0692,1.0692,1.0692,1.0692,1.0692,1.0692,1.0692,1.0692,1.0692,3.1556,3.1498,3.1218,3.06,2.9816,2.9616,2.9082,2.8462,2.8461,2.8408,2.8344,2.8461,2.8408,2.8301,2.8301,2.8301,2.8193,2.7851,2.7324,2.6758,2.6494,2.6143,2.5762,2.5684,2.5684,2.5684,2.5684,2.5684,2.5684,2.5684,2.5684,2.5684,2.5684,2.5684,2.5684,2.5684,2.5684,2.5684,2.5684,2.5684,2.5684,2.5684,2.5781,2.5849,2.5681,2.5553,2.5553,2.5563,2.5467,2.5333,2.5093,2.4958,2.4919,2.4916,2.4873,2.4784,2.4282,2.3877,2.3678,2.3279,2.2719,2.2476,2.1979,2.1471,2.107,2.055,2.0197,2.0042,1.9732,1.9428,1.9324,1.9272,1.9272,1.9272,1.9272,1.9272,1.9272,1.9272,1.9272,1.9272,1.9272,1.9272,1.9272,1.9272,1.9272,1.9227,1.9227,1.9018,1.9018,1.8855,1.8698,1.8377,1.8279,1.7905,1.7213,1.6358,1.5452,1.4761,1.4067,1.3364,1.2767,1.2169,1.1623,1.1295,1.0966,1.0747,1.0692,1.0692,1.0747,1.0692,1.0692,1.0692,1.0692,1.0692,1.0692,3.1845,3.1845,3.1556,3.0943,3.0095,2.9895,2.9356,2.8617,2.8727,2.8834,2.8621,2.8791,2.8781,2.8558,2.8451,2.8441,2.8353,2.8137,2.7747,2.7334,2.692,2.6527,2.6173,2.5995,2.5878,2.5839,2.5742,2.5732,2.5684,2.5684,2.5684,2.5684,2.5684,2.5684,2.5684,2.5684,2.5684,2.5684,2.5684,2.5684,2.5684,2.5684,2.583,2.5994,2.6119,2.6079,2.6079,2.6041,2.5984,2.5781,2.5732,2.5684,2.5635,2.5489,2.5333,2.5342,2.4833,2.4637,2.448,2.4084,2.3678,2.3438,2.2929,2.2375,2.1827,2.1318,2.0917,2.0506,2.0205,1.9791,1.948,1.9428,1.9376,1.9376,1.9324,1.9272,1.9272,1.9272,1.9272,1.9272,1.9272,1.9272,1.9272,1.9272,1.9272,1.9272,1.9272,1.9272,1.9272,1.9272,1.9063,1.8959,1.8803,1.8489,1.7845,1.7259,1.6358,1.5725,1.4982,1.4444,1.3792,1.3305,1.2708,1.1618,1.1185,1.1076,1.0911,1.0857,1.0857,1.0747,1.0692,1.0692,1.0692,1.0692,1.0692,3.219,3.219,3.2123,3.1445,3.054,3.0625,3.0164,2.9477,2.9448,2.9564,2.9669,2.9564,2.9448,2.929,2.9079,2.8973,2.8943,2.8813,2.8583,2.8143,2.7702,2.7272,2.6911,2.6492,2.6372,2.6265,2.6024,2.583,2.5732,2.5684,2.5781,2.5732,2.5732,2.5732,2.5781,2.5684,2.5781,2.583,2.5781,2.5781,2.5781,2.5781,2.5927,2.6149,2.6352,2.64,2.64,2.6245,2.6052,2.6014,2.582,2.5732,2.5684,2.5635,2.5586,2.5538,2.5284,2.5088,2.503,2.4677,2.4282,2.3926,2.3479,2.2979,2.2426,2.1928,2.1522,2.1121,2.0712,2.0256,1.9983,1.9783,1.968,1.9583,1.948,1.9324,1.9324,1.9272,1.9272,1.9272,1.9272,1.9272,1.9272,1.9272,1.9272,1.9272,1.9272,1.9272,1.9272,1.9272,1.922,1.922,1.922,1.8855,1.8377,1.7845,1.7213,1.6683,1.6099,1.5678,1.5137,1.4654,1.39,1.2812,1.2001,1.1623,1.1404,1.1181,1.0966,1.0857,1.0802,1.0747,1.0692,1.0692,1.0692,3.2944,3.3172,3.2867,3.2224,3.1488,3.1329,3.0812,3.0161,3.0318,3.0422,3.038,3.0276,3.012,2.9973,2.9722,2.9564,2.9564,2.9564,2.9299,2.886,2.8421,2.8032,2.7603,2.7094,2.6911,2.6812,2.6582,2.6304,2.612,2.612,2.612,2.612,2.612,2.612,2.612,2.612,2.612,2.611,2.612,2.612,2.612,2.612,2.6255,2.6458,2.6602,2.6709,2.6699,2.6602,2.6352,2.6149,2.5955,2.583,2.5732,2.5684,2.5684,2.5684,2.5586,2.5489,2.543,2.5128,2.4883,2.4686,2.4233,2.3777,2.3329,2.2828,2.2224,2.1623,2.1377,2.0968,2.0557,2.0308,2.0153,2.005,1.9791,1.9532,1.948,1.9376,1.9324,1.9324,1.9279,1.9279,1.9272,1.9272,1.9272,1.9272,1.9272,1.9272,1.9272,1.9272,1.9272,1.9272,1.9272,1.9063,1.875,1.8384,1.7957,1.7483,1.7054,1.6683,1.6318,1.5779,1.4976,1.4062,1.3305,1.2599,1.1896,1.1623,1.135,1.1021,1.1021,1.0966,1.0802,1.0692,1.0747,3.3692,3.4132,3.361,3.3031,3.248,3.2136,3.1572,3.1047,3.1341,3.1443,3.13,3.1249,3.1094,3.0795,3.0495,3.0349,3.0297,3.036,3.0129,2.9814,2.9268,2.8747,2.839,2.7829,2.7552,2.761,2.7552,2.7194,2.6716,2.663,2.664,2.664,2.663,2.664,2.664,2.6534,2.6582,2.6592,2.6506,2.6496,2.6496,2.6554,2.6651,2.69,2.6948,2.6996,2.6986,2.689,2.6602,2.6294,2.6091,2.5955,2.5723,2.5684,2.5684,2.5684,2.5684,2.5684,2.5635,2.5489,2.5284,2.5137,2.4892,2.4538,2.4134,2.3578,2.3029,2.2274,2.2021,2.1776,2.1267,2.0917,2.0763,2.0557,2.0197,1.9835,1.9783,1.9687,1.948,1.9428,1.9383,1.9331,1.9324,1.9272,1.9272,1.9272,1.9272,1.9272,1.9272,1.9272,1.9272,1.9272,1.9272,1.9227,1.9018,1.8869,1.8496,1.8181,1.7852,1.7477,1.716,1.6796,1.5992,1.5298,1.4659,1.3954,1.3034,1.2223,1.1951,1.1728,1.1404,1.1185,1.0962,1.0857,1.0802,3.4188,3.4458,3.4208,3.3822,3.3358,3.316,3.2855,3.2555,3.26,3.2723,3.2835,3.2611,3.2409,3.2066,3.1618,3.1476,3.1424,3.1414,3.1359,3.1121,3.0415,2.997,2.9753,2.8939,2.8592,2.8538,2.8538,2.7977,2.7515,2.7326,2.7183,2.7183,2.7231,2.7136,2.7241,2.7098,2.686,2.686,2.6678,2.6544,2.6544,2.6747,2.6853,2.6948,2.7081,2.7214,2.7167,2.7034,2.6805,2.6506,2.6245,2.6014,2.5791,2.5684,2.5684,2.5684,2.5684,2.5684,2.5693,2.5635,2.5538,2.5391,2.5235,2.4932,2.4578,2.4233,2.3728,2.3238,2.3079,2.2778,2.2123,2.1725,2.1471,2.1165,2.0814,2.0514,2.0359,1.9998,1.9791,1.9635,1.9583,1.9428,1.9324,1.9324,1.9272,1.9272,1.9272,1.9272,1.9272,1.9272,1.9272,1.9272,1.9272,1.9227,1.9175,1.9078,1.8921,1.8712,1.8496,1.822,1.7905,1.7589,1.7331,1.6636,1.5998,1.5143,1.4169,1.3413,1.2817,1.2382,1.211,1.1673,1.1181,1.1072,1.1076,3.5774,3.5706,3.5338,3.4998,3.4641,3.4404,3.4036,3.3779,3.3857,3.3979,3.4028,3.3808,3.3499,3.3101,3.2812,3.2661,3.2533,3.2493,3.2493,3.228,3.16,3.1083,3.0825,3.0094,2.9566,2.9566,2.952,2.9417,2.8817,2.8305,2.8081,2.8081,2.8081,2.807,2.8023,2.7857,2.7773,2.7631,2.7404,2.7061,2.7013,2.7071,2.7129,2.7119,2.7214,2.732,2.7262,2.7214,2.6996,2.6747,2.6458,2.6197,2.5965,2.582,2.5684,2.5684,2.5684,2.5684,2.5684,2.5684,2.5635,2.5577,2.5489,2.5333,2.4981,2.4686,2.443,2.4035,2.3985,2.3628,2.3129,2.2778,2.2375,2.203,2.1522,2.1224,2.0917,2.0462,2.0153,1.999,1.9835,1.9687,1.9532,1.9376,1.9324,1.9272,1.9272,1.9272,1.9272,1.9272,1.9272,1.9272,1.9272,1.9272,1.9272,1.9227,1.9175,1.9018,1.8869,1.8646,1.8541,1.8331,1.7964,1.7701,1.7107,1.6199,1.5238,1.4546,1.3948,1.3413,1.2817,1.2436,1.2055,1.1673,1.1564,3.7145,3.695,3.6326,3.5926,3.5651,3.528,3.4963,3.4726,3.486,3.4969,3.492,3.4714,3.4348,3.4054,3.3906,3.372,3.3595,3.3595,3.3595,3.3259,3.2655,3.2122,3.1786,3.1124,3.0578,3.0589,3.0578,3.0521,3.0295,2.9886,2.9474,2.9174,2.9106,2.9095,2.9013,2.8792,2.8571,2.8207,2.7972,2.7641,2.7404,2.7347,2.7357,2.7309,2.732,2.732,2.732,2.7309,2.7177,2.69,2.6709,2.6448,2.61,2.5917,2.5781,2.5732,2.5684,2.5684,2.5684,2.5684,2.5684,2.5684,2.5684,2.5586,2.544,2.5186,2.4981,2.4686,2.4677,2.4381,2.3985,2.3678,2.3329,2.2878,2.2384,2.2072,2.1717,2.1318,2.0917,2.0712,2.0506,2.0101,1.9894,1.9583,1.9428,1.9324,1.9272,1.9272,1.9272,1.9272,1.9272,1.9272,1.9272,1.9272,1.9272,1.9272,1.9272,1.9279,1.9071,1.9018,1.8907,1.875,1.8443,1.8174,1.7957,1.7523,1.6723,1.5879,1.5083,1.4487,1.3948,1.3521,1.3088,1.2599,1.2055,3.7679,3.7836,3.6789,3.6221,3.5951,3.5405,3.5308,3.5452,3.5512,3.5524,3.5512,3.532,3.5163,3.5017,3.4811,3.4677,3.4677,3.4677,3.4628,3.4282,3.3647,3.311,3.2679,3.2117,3.1528,3.1528,3.1484,3.1484,3.1528,3.1306,3.0758,3.0216,3.0159,3.0114,2.9977,2.9715,2.9128,2.871,2.843,2.8102,2.7773,2.7584,2.7489,2.7357,2.7309,2.732,2.732,2.732,2.7225,2.6948,2.6853,2.6602,2.6245,2.6052,2.5917,2.5732,2.5684,2.5684,2.5684,2.5684,2.5684,2.5684,2.5684,2.5684,2.5586,2.5635,2.5479,2.5284,2.5226,2.4981,2.4627,2.4381,2.4125,2.3678,2.3229,2.3029,2.2677,2.2274,2.1928,2.1581,2.1275,2.0917,2.0514,2.0197,1.9687,1.9532,1.9272,1.9272,1.9272,1.9272,1.9272,1.9272,1.9272,1.9272,1.9272,1.9272,1.9272,1.9272,1.9227,1.9175,1.9168,1.9018,1.881,1.8705,1.8489,1.837,1.8101,1.71,1.6252,1.5613,1.5078,1.4648,1.4062,1.3521,1.2866,3.7592,3.7456,3.7048,3.6751,3.648,3.607,3.5991,3.6073,3.6086,3.6073,3.6086,3.5991,3.5847,3.5716,3.562,3.5416,3.532,3.5284,3.5271,3.4918,3.4285,3.3796,3.3332,3.2772,3.2125,3.2125,3.2113,3.2125,3.2125,3.2125,3.1981,3.1572,3.125,3.116,3.0982,3.0578,2.9897,2.9301,2.9035,2.8757,2.8196,2.7914,2.7726,2.7499,2.7299,2.7309,2.732,2.732,2.7225,2.7129,2.6986,2.6688,2.64,2.6245,2.6004,2.5781,2.5732,2.5684,2.5684,2.5684,2.5684,2.5684,2.5684,2.5684,2.5684,2.5684,2.5684,2.5577,2.5674,2.5518,2.5137,2.5118,2.5001,2.4421,2.4084,2.3926,2.3678,2.332,2.307,2.287,2.2325,2.1878,2.1369,2.0917,2.0248,1.968,1.948,1.9272,1.9272,1.9272,1.9272,1.9272,1.9272,1.9272,1.9272,1.9272,1.9272,1.9272,1.9272,1.9272,1.9272,1.9272,1.9071,1.9018,1.8966,1.875,1.8429,1.8003,1.7371,1.6677,1.6152,1.5773,1.5131,1.4433,1.3786,3.7355,3.7186,3.7046,3.6851,3.6657,3.6473,3.6417,3.6417,3.6417,3.6417,3.6417,3.6417,3.6323,3.6146,3.6098,3.6003,3.5847,3.586,3.586,3.5439,3.4833,3.4325,3.381,3.3286,3.2605,3.2605,3.2605,3.2605,3.2618,3.2605,3.2562,3.2419,3.2288,3.2101,3.1749,3.1439,3.0802,3.0125,2.9806,2.9451,2.8803,2.842,2.8149,2.7878,2.7584,2.7394,2.7404,2.7357,2.732,2.7214,2.7119,2.688,2.664,2.6352,2.611,2.5868,2.5732,2.5684,2.5684,2.5684,2.5684,2.5684,2.5684,2.5684,2.5684,2.5781,2.582,2.5868,2.6014,2.6062,2.5625,2.58,2.5693,2.5216,2.5109,2.4962,2.4707,2.4412,2.4313,2.4115,2.3569,2.302,2.2426,2.1869,2.0755,2.0086,1.9628,1.9428,1.9272,1.9272,1.9272,1.9272,1.9272,1.9272,1.9272,1.9272,1.9272,1.9272,1.9272,1.9272,1.9272,1.9272,1.9272,1.9168,1.9123,1.9026,1.8862,1.8586,1.8167,1.7648,1.716,1.6624,1.6099,1.5399,1.4815,3.7186,3.7123,3.6656,3.6455,3.6445,3.643,3.6417,3.6417,3.6417,3.6417,3.6417,3.6417,3.6417,3.6358,3.6323,3.6275,3.6275,3.6275,3.6225,3.584,3.5044,3.471,3.4209,3.3596,3.2952,3.3081,3.2995,3.2952,3.305,3.2952,3.2995,3.2995,3.2865,3.268,3.2388,3.2133,3.1593,3.0937,3.0656,3.017,2.9577,2.9071,2.871,2.843,2.7925,2.7736,2.7678,2.7452,2.7404,2.7357,2.7262,2.7071,2.6842,2.6651,2.6352,2.6052,2.582,2.5732,2.5684,2.5684,2.5684,2.5732,2.5732,2.5781,2.5781,2.5917,2.611,2.611,2.6352,2.6448,2.6448,2.6448,2.6197,2.6004,2.5897,2.58,2.5548,2.545,2.5255,2.5109,2.4756,2.4295,2.3669,2.287,2.1505,2.0593,1.9931,1.9628,1.9428,1.9376,1.9376,1.9272,1.9272,1.9272,1.9272,1.9272,1.9272,1.9272,1.9272,1.9272,1.9272,1.9272,1.9272,1.9272,1.9227,1.9175,1.9227,1.922,1.875,1.8331,1.7845,1.7364,1.6842,1.6418,1.5885,3.6694,3.6669,3.648,3.6417,3.6417,3.6417,3.6417,3.6417,3.6417,3.6417,3.6417,3.6417,3.6417,3.6417,3.6417,3.6417,3.6417,3.6405,3.6317,3.573,3.5014,3.4537,3.4048,3.3545,3.3136,3.3124,3.3124,3.3124,3.3081,3.3124,3.3124,3.3124,3.3081,3.2896,3.268,3.2438,3.2176,3.1681,3.1415,3.1026,3.0397,2.9863,2.9416,2.9128,2.8535,2.816,2.8102,2.7831,2.7536,2.7489,2.7441,2.7167,2.6996,2.6805,2.6554,2.6245,2.5955,2.5868,2.5771,2.5684,2.5684,2.5732,2.5878,2.5917,2.6004,2.6207,2.6352,2.6448,2.6592,2.6651,2.6554,2.6699,2.6544,2.64,2.6294,2.6304,2.6149,2.6149,2.61,2.6004,2.5752,2.505,2.4412,2.3967,2.2811,2.1759,2.1097,2.0189,1.9783,1.9628,1.9576,1.9376,1.9272,1.9272,1.9272,1.9376,1.9324,1.9272,1.9272,1.9272,1.9272,1.9272,1.9272,1.9272,1.9272,1.9272,1.9272,1.9272,1.922,1.89,1.8422,1.8108,1.7793,1.7378,1.7008,3.6417,3.6417,3.6417,3.6417,3.6417,3.6417,3.6417,3.6417,3.6417,3.6417,3.6417,3.6417,3.6417,3.6417,3.6417,3.6417,3.6392,3.6132,3.6006,3.5395,3.4751,3.4299,3.3822,3.3357,3.3174,3.3124,3.3124,3.3124,3.3124,3.3124,3.3124,3.3124,3.3124,3.2982,3.2896,3.2766,3.2624,3.2264,3.2013,3.1705,3.116,3.0668,3.0182,2.9806,2.9301,2.8803,2.8628,2.8301,2.7831,2.7726,2.7536,2.7309,2.7081,2.69,2.6747,2.6448,2.6139,2.6052,2.5917,2.5868,2.5868,2.5868,2.6004,2.6139,2.6245,2.6506,2.6602,2.6699,2.689,2.689,2.6842,2.6986,2.689,2.6736,2.6736,2.6736,2.6736,2.6736,2.6736,2.664,2.6448,2.579,2.5197,2.4805,2.4205,2.3211,2.2316,2.1353,2.0344,2.0094,1.9939,1.968,1.9583,1.9576,1.9583,1.948,1.9428,1.9324,1.9324,1.9324,1.9272,1.9272,1.9272,1.9272,1.9272,1.9272,1.9272,1.9272,1.922,1.9168,1.8952,1.8743,1.8593,1.8227,1.7806,3.6417,3.6417,3.6417,3.6417,3.6417,3.6417,3.6417,3.6417,3.6417,3.6417,3.6417,3.6417,3.6417,3.6417,3.6417,3.6367,3.6207,3.5746,3.5458,3.5107,3.4399,3.4022,3.3684,3.3319,3.3174,3.3124,3.3124,3.3124,3.3124,3.3124,3.3124,3.3124,3.3124,3.3081,3.3038,3.3025,3.2896,3.268,3.2407,3.2189,3.1825,3.1294,3.0982,3.0623,3.0114,2.9669,2.9347,2.8885,2.843,2.8102,2.7773,2.7547,2.7309,2.7034,2.6948,2.6747,2.6342,2.6197,2.61,2.61,2.6159,2.6207,2.6197,2.6304,2.6496,2.6747,2.689,2.6938,2.7081,2.7177,2.7272,2.7272,2.7225,2.7214,2.7225,2.7225,2.7225,2.7225,2.7225,2.7129,2.6986,2.6534,2.61,2.5703,2.5255,2.4599,2.3701,2.2861,2.1903,2.0814,2.0557,2.0189,2.0086,1.9983,1.9939,1.9843,1.9635,1.9532,1.9428,1.9368,1.9324,1.9272,1.9272,1.9272,1.9272,1.9272,1.9272,1.9272,1.9272,1.922,1.9168,1.9116,1.8907,1.8646,1.8227,3.6417,3.6417,3.6417,3.6417,3.6417,3.6417,3.6417,3.6417,3.6417,3.6417,3.6417,3.6417,3.6417,3.6417,3.6405,3.6119,3.5843,3.547,3.4977,3.4487,3.4035,3.3684,3.3395,3.3169,3.3124,3.3124,3.3124,3.3124,3.3124,3.3124,3.3124,3.3124,3.3124,3.3124,3.3124,3.3124,3.3038,3.2939,3.2723,3.2581,3.2394,3.1913,3.1737,3.1415,3.0892,3.0476,3.0159,2.9566,2.9071,2.8617,2.8139,2.7809,2.7536,2.7309,2.7129,2.69,2.6592,2.64,2.639,2.639,2.6448,2.6602,2.6651,2.6688,2.6842,2.6986,2.7129,2.7177,2.7225,2.7272,2.732,2.732,2.732,2.732,2.732,2.732,2.732,2.732,2.732,2.7272,2.7129,2.7034,2.664,2.6544,2.6091,2.5645,2.5041,2.4245,2.3311,2.2165,2.1369,2.1003,2.0704,2.0652,2.0403,2.0308,1.9998,1.9739,1.9628,1.9472,1.9376,1.9331,1.9324,1.9272,1.9272,1.9272,1.9272,1.9272,1.9272,1.9272,1.922,1.922,1.9175,1.8907,1.8705,3.6417,3.6417,3.6417,3.6417,3.6417,3.6417,3.6417,3.6417,3.6417,3.6417,3.6417,3.6417,3.6417,3.6355,3.6132,3.5855,3.552,3.4931,3.4474,3.4148,3.3696,3.3407,3.3199,3.3124,3.3124,3.3124,3.3124,3.3124,3.3124,3.3124,3.3124,3.3124,3.3124,3.3124,3.3124,3.3124,3.3124,3.3025,3.2927,3.2884,3.2711,3.2481,3.2351,3.2133,3.1605,3.1294,3.0982,3.0295,2.9715,2.9231,2.8699,2.8196,2.7914,2.7631,2.7309,2.7081,2.6794,2.6699,2.6651,2.664,2.6747,2.69,2.6996,2.7034,2.7071,2.7167,2.7262,2.7272,2.732,2.732,2.732,2.732,2.732,2.732,2.732,2.732,2.732,2.732,2.732,2.732,2.7272,2.7214,2.7119,2.7081,2.6938,2.6448,2.5945,2.5343,2.4353,2.322,2.2467,2.1962,2.1623,2.1326,2.1121,2.0873,2.0462,2.0101,1.9732,1.9628,1.948,1.9383,1.9331,1.9324,1.9272,1.9272,1.9324,1.9272,1.9272,1.9272,1.9272,1.9272,1.9279,1.9175,1.9018,3.6417,3.6417,3.6417,3.6417,3.6417,3.6417,3.6417,3.6417,3.6417,3.6417,3.6417,3.6417,3.6367,3.6132,3.583,3.5433,3.4994,3.4449,3.406,3.3822,3.3395,3.3174,3.3162,3.3124,3.3124,3.3124,3.3124,3.3124,3.3124,3.3124,3.3124,3.3124,3.3124,3.3124,3.3124,3.3124,3.3124,3.3081,3.3081,3.3038,3.2982,3.2853,3.2723,3.2624,3.2264,3.1913,3.1605,3.1071,3.0442,2.9909,2.9324,2.8814,2.8243,2.782,2.7536,2.7309,2.7034,2.6986,2.6938,2.6938,2.6938,2.7034,2.7177,2.7225,2.7262,2.7262,2.732,2.732,2.732,2.732,2.732,2.732,2.732,2.732,2.732,2.732,2.732,2.732,2.732,2.732,2.732,2.7262,2.7262,2.7177,2.7177,2.689,2.6602,2.61,2.545,2.4313,2.3569,2.302,2.2577,2.2232,2.1928,2.1623,2.1078,2.0617,2.0197,1.9835,1.9783,1.9583,1.9383,1.9428,1.9428,1.9376,1.9324,1.9324,1.9272,1.9272,1.9272,1.9272,1.9279,1.9279,1.9227,3.6417,3.6417,3.6417,3.6417,3.6417,3.6417,3.6417,3.6417,3.6417,3.638,3.6405,3.6367,3.6094,3.5705,3.547,3.5056,3.4349,3.4048,3.3671,3.3432,3.3162,3.3124,3.3124,3.3124,3.3124,3.3124,3.3124,3.3124,3.3124,3.3124,3.3124,3.3124,3.3124,3.3124,3.3124,3.3124,3.3124,3.3124,3.3124,3.3124,3.3081,3.3081,3.2995,3.2896,3.268,3.2419,3.2113,3.1705,3.1071,3.0454,2.9966,2.9128,2.8139,2.782,2.7536,2.7299,2.7225,2.7167,2.7167,2.7177,2.7177,2.7177,2.7272,2.732,2.732,2.732,2.732,2.732,2.732,2.732,2.732,2.732,2.732,2.732,2.732,2.732,2.732,2.732,2.732,2.732,2.732,2.732,2.732,2.732,2.7262,2.7129,2.6938,2.6592,2.6342,2.5548,2.4766,2.4115,2.3578,2.3179,2.2828,2.2375,2.1827,2.1275,2.0858,2.0447,2.0078,1.9879,1.968,1.9628,1.9635,1.9532,1.9428,1.9331,1.9331,1.9272,1.9272,1.9272,1.9272,1.9279,1.9279,3.6417,3.6417,3.6417,3.6417,3.6417,3.6417,3.6417,3.6367,3.6107,3.6006,3.5994,3.5956,3.5692,3.5094,3.4893,3.465,3.3884,3.3633,3.3395,3.3199,3.3124,3.3124,3.3124,3.3124,3.3124,3.3124,3.3124,3.3124,3.3124,3.3124,3.3124,3.3124,3.3124,3.3124,3.3124,3.3124,3.3124,3.3124,3.3124,3.3124,3.3124,3.3124,3.3124,3.3038,3.2952,3.2736,3.2506,3.2157,3.1705,3.1026,3.0408,2.9497,2.8664,2.816,2.7773,2.7536,2.7357,2.732,2.7309,2.7357,2.7357,2.7357,2.7309,2.7309,2.732,2.732,2.732,2.732,2.732,2.732,2.732,2.732,2.732,2.732,2.732,2.732,2.732,2.732,2.732,2.732,2.732,2.732,2.732,2.732,2.7272,2.7272,2.7081,2.6938,2.6736,2.6544,2.581,2.5216,2.4618,2.4125,2.3777,2.3229,2.2636,2.208,2.1522,2.085,2.0336,2.0181,2.0027,1.9983,1.9887,1.9732,1.9635,1.9532,1.9324,1.9324,1.9272,1.9272,1.9272,1.9272,1.9272,3.6417,3.6417,3.6417,3.6417,3.6392,3.6317,3.6292,3.6144,3.568,3.5345,3.5232,3.5245,3.5014,3.4587,3.4173,3.396,3.3696,3.3382,3.3131,3.3136,3.3124,3.3124,3.3124,3.3124,3.3124,3.3124,3.3124,3.3124,3.3124,3.3124,3.3124,3.3124,3.3124,3.3124,3.3124,3.3124,3.3124,3.3124,3.3124,3.3124,3.3124,3.3124,3.3124,3.3124,3.3081,3.2995,3.2766,3.2506,3.2201,3.1572,3.0802,2.9897,2.9128,2.8628,2.8207,2.7867,2.7584,2.7489,2.7441,2.7489,2.7441,2.7452,2.7404,2.7404,2.7404,2.7357,2.7357,2.732,2.732,2.732,2.732,2.732,2.732,2.732,2.732,2.732,2.732,2.732,2.732,2.732,2.732,2.732,2.732,2.732,2.732,2.732,2.7272,2.7139,2.6996,2.6794,2.64,2.5955,2.5509,2.5118,2.4716,2.4075,2.3379,2.2878,2.2274,2.1353,2.0696,2.0747,2.0593,2.0292,2.0189,2.0138,1.9931,1.9783,1.9576,1.942,1.942,1.9428,1.9272,1.9272,1.9272,3.6417,3.6417,3.6417,3.6405,3.6317,3.5893,3.5658,3.5558,3.5115,3.465,3.4374,3.4236,3.411,3.406,3.3985,3.3746,3.3357,3.3149,3.3149,3.3124,3.3124,3.3124,3.3124,3.3124,3.3124,3.3124,3.3124,3.3124,3.3124,3.3124,3.3124,3.3124,3.3124,3.3124,3.3124,3.3124,3.3124,3.3124,3.3124,3.3124,3.3124,3.3124,3.3124,3.3124,3.3124,3.3081,3.2952,3.2766,3.2506,3.2025,3.1205,3.0352,2.968,2.9139,2.8664,2.829,2.8008,2.7904,2.7857,2.7857,2.7867,2.7857,2.7857,2.7773,2.7726,2.7584,2.7499,2.7357,2.7309,2.732,2.732,2.732,2.732,2.732,2.732,2.732,2.732,2.732,2.732,2.732,2.732,2.732,2.732,2.732,2.732,2.732,2.732,2.7225,2.7177,2.7034,2.69,2.6602,2.6255,2.5955,2.5548,2.4824,2.4183,2.3678,2.3079,2.2266,2.1759,2.1573,2.1369,2.0952,2.0704,2.0601,2.0395,2.0086,1.9879,1.9732,1.9672,1.9576,1.9428,1.9324,1.9376]}]]